[[{"header":{"parameterUnit":"m.s-1","parameterCategory":1,"la1":31.0,"la2":29.5877,"lo1":-88.7671,"lo2":-86.6584,"dy":0.0162,"dx":0.0185,"nx":115,"ny":88,"refTime":"2026-03-10T12:00:00:Z","depth":0,"parameterNumber":2,"parameterNumberName":"U-component_of_WINDS"},"data":[0.0,0.0,0.0,0.0,0.0,0.0,0.0,0.0,0.0,0.0,0.0,0.0,0.0,0.0,0.0,0.0,0.0,0.0,0.0,0.0,0.0,0.0,0.0,0.0,0.0,0.0,0.0,0.0,0.0,0.0,0.0,0.0,0.0,0.0,0.0,0.0,0.0,0.0,0.0,0.0,0.0,0.0,0.0,0.0,0.0,0.0,0.0,0.0,0.0,0.0,0.0,0.0,0.0,0.0,0.0,0.0,0.0,0.0,0.0,0.0,0.0,0.0,0.0,0.0,0.0,0.0,0.0,0.0,0.0,0.0,0.0,0.0,0.0,0.0,0.0,0.0,0.0,0.0,0.0,0.0,0.0,0.0,0.0,0.0,0.0,0.0,0.0,0.0,0.0,0.0,0.0,0.0,0.0,0.0,0.0,0.0,0.0,0.0,0.0,0.0,0.0,0.0,0.0,0.0,0.0,0.0,0.0,0.0,0.0,0.0,0.0,0.0,0.0,0.0,0.0,0.0,0.0,0.0,0.0,0.0,0.0,0.0,0.0,0.0,0.0,0.0,0.0,0.0,0.0,0.0,0.0,0.0,0.0,0.0,0.0,0.0,0.0,0.0,0.0,0.0,0.0,0.0,0.0,0.0,0.0,0.0,0.0,0.0,0.0,0.0,0.0,0.0,0.0,0.0,0.0,0.0,0.0,0.0,0.0,0.0,0.0,0.0,0.0,0.0,0.0,0.0,0.0,0.0,0.0,0.0,0.0,0.0,0.0,0.0,0.0,0.0,0.0,0.0,0.0,0.0,0.0,0.0,0.0,0.0,0.0,0.0,0.0,0.0,0.0,0.0,0.0,0.0,0.0,0.0,0.0,0.0,0.0,0.0,0.0,0.0,0.0,0.0,0.0,0.0,0.0,0.0,0.0,0.0,0.0,0.0,0.0,0.0,0.0,0.0,0.0,0.0,0.0,0.0,0.0,0.0,0.0,0.0,0.0,0.0,0.0,0.0,0.0,0.0,0.0,0.0,0.0,0.0,0.0,0.0,0.0,0.0,0.0,0.0,0.0,0.0,0.0,0.0,0.0,0.0,0.0,0.0,0.0,0.0,0.0,0.0,0.0,0.0,0.0,0.0,0.0,0.0,0.0,0.0,0.0,0.0,0.0,0.0,0.0,0.0,0.0,0.0,0.0,0.0,0.0,0.0,0.0,0.0,0.0,0.0,0.0,0.0,0.0,0.0,0.0,0.0,0.0,0.0,0.0,0.0,0.0,0.0,0.0,0.0,0.0,0.0,0.0,0.0,0.0,0.0,0.0,0.0,0.0,0.0,0.0,0.0,0.0,0.0,0.0,0.0,0.0,0.0,0.0,0.0,0.0,0.0,0.0,0.0,0.0,0.0,0.0,0.0,0.0,0.0,0.0,0.0,0.0,0.0,0.0,0.0,0.0,0.0,0.0,0.0,0.0,0.0,0.0,0.0,0.0,0.0,0.0,0.0,0.0,0.0,0.0,0.0,0.0,0.0,0.0,0.0,0.0,0.0,0.0,0.0,0.0,0.0,0.0,0.0,0.0,0.0,0.0,0.0,0.0,0.0,0.0,0.0,0.0,0.0,0.0,0.0,0.0,0.0,0.0,0.0,0.0,0.0,0.0,0.0,0.0,0.0,0.0,0.0,0.0,0.0,0.0,0.0,0.0,0.0,0.0,0.0,0.0,0.0,0.0,0.0,0.0,0.0,0.0,0.0,0.0,0.0,0.0,0.0,0.0,0.0,0.0,0.0,0.0,0.0,0.0,0.0,0.0,0.0,0.0,0.0,0.0,0.0,0.0,0.0,0.0,0.0,0.0,0.0,0.0,0.0,0.0,0.0,0.0,0.0,0.0,0.0,0.0,0.0,0.0,0.0,0.0,0.0,0.0,0.0,0.0,0.0,0.0,0.0,0.0,0.0,0.0,0.0,0.0,0.0,0.0,0.0,0.0,0.0,0.0,0.0,0.0,0.0,0.0,0.0,0.0,0.0,0.0,0.0,0.0,0.0,0.0,0.0,0.0,0.0,0.0,0.0,0.0,0.0,0.0,0.0,0.0,0.0,0.0,0.0,0.0,0.0,0.0,0.0,0.0,0.0,0.0,0.0,0.0,0.0,0.0,0.0,0.0,0.0,0.0,0.0,0.0,0.0,0.0,0.0,0.0,0.0,0.0,0.0,0.0,0.0,0.0,0.0,0.0,0.0,0.0,0.0,0.0,0.0,0.0,0.0,0.0,0.0,0.0,0.0,0.0,0.0,0.0,0.0,0.0,0.0,0.0,0.0,0.0,0.0,0.0,0.0,0.0,0.0,0.0,0.0,0.0,0.0,0.0,0.0,0.0,0.0,0.0,0.0,0.0,0.0,0.0,0.0,0.0,0.0,0.0,0.0,0.0,0.0,0.0,0.0,0.0,0.0,0.0,0.0,0.0,0.0,0.0,0.0,0.0,0.0,0.0,0.0,0.0,0.0,0.0,0.0,0.0,0.0,0.0,0.0,0.0,0.0,0.0,0.0,0.0,0.0,0.0,0.0,0.0,0.0,0.0,0.0,0.0,0.0,0.0,0.0,0.0,0.0,0.0,0.0,0.0,0.0,0.0,0.0,0.0,0.0,0.0,0.0,0.0,0.0,0.0,0.0,0.0,0.0,0.0,0.0,0.0,0.0,0.0,0.0,0.0,0.0,0.0,0.0,0.0,0.0,0.0,0.0,0.0,0.0,0.0,0.0,0.0,0.0,0.0,0.0,0.0,0.0,0.0,0.0,0.0,0.0,0.0,0.0,0.0,0.0,0.0,0.0,0.0,0.0,0.0,0.0,0.0,0.0,0.0,0.0,0.0,0.0,0.0,0.0,0.0,0.0,0.0,0.0,0.0,0.0,0.0,0.0,0.0,0.0,0.0,0.0,0.0,0.0,0.0,0.0,0.0,0.0,0.0,0.0,0.0,0.0,0.0,0.0,0.0,0.0,0.0,0.0,0.0,0.0,0.0,0.0,0.0,0.0,0.0,0.0,0.0,0.0,0.0,0.0,0.0,0.0,0.0,0.0,0.0,0.0,0.0,0.0,0.0,0.0,0.0,0.0,0.0,0.0,0.0,0.0,0.0,0.0,0.0,0.0,0.0,0.0,0.0,0.0,0.0,0.0,0.0,0.0,0.0,0.0,0.0,0.0,0.0,0.0,0.0,0.0,0.0,0.0,0.0,0.0,0.0,0.0,0.0,0.0,0.0,0.0,0.0,0.0,0.0,0.0,0.0,0.0,0.0,0.0,0.0,0.0,0.0,0.0,0.0,0.0,0.0,0.0,0.0,0.0,0.0,0.0,0.0,0.0,0.0,0.0,0.0,0.0,0.0,0.0,0.0,0.0,0.0,0.0,0.0,0.0,0.0,0.0,0.0,0.0,0.0,0.0,0.0,0.0,0.0,0.0,0.0,0.0,0.0,0.0,0.0,0.0,0.0,0.0,0.0,0.0,0.0,0.0,0.0,0.0,0.0,0.0,0.0,0.0,0.0,0.0,0.0,0.0,0.0,0.0,0.0,0.0,0.0,0.0,0.0,0.0,0.0,0.0,0.0,0.0,0.0,0.0,0.0,0.0,0.0,0.0,0.0,0.0,0.0,0.0,0.0,0.0,0.0,0.0,0.0,0.0,0.0,0.0,0.0,0.0,0.0,0.0,0.0,0.0,0.0,0.0,0.0,0.0,0.0,0.0,0.0,0.0,0.0,0.0,0.0,0.0,0.0,0.0,0.0,0.0,0.0,0.0,0.0,0.0,0.0,0.0,0.0,0.0,0.0,0.0,0.0,0.0,0.0,0.0,0.0,0.0,0.0,0.0,0.0,0.0,0.0,0.0,0.0,0.0,0.0,0.0,0.0,0.0,0.0,0.0,0.0,0.0,0.0,0.0,0.0,0.0,0.0,0.0,0.0,0.0,0.0,0.0,0.0,0.0,0.0,0.0,0.0,0.0,0.0,0.0,0.0,0.0,0.0,0.0,0.0,0.0,0.0,0.0,0.0,0.0,0.0,0.0,0.0,0.0,0.0,0.0,0.0,0.0,0.0,0.0,0.0,0.0,0.0,0.0,0.0,0.0,0.0,0.0,0.0,0.0,0.0,0.0,0.0,0.0,0.0,0.0,0.0,0.0,0.0,0.0,0.0,0.0,0.0,0.0,0.0,0.0,0.0,0.0,0.0,0.0,0.0,0.0,0.0,0.0,0.0,0.0,0.0,0.0,0.0,0.0,0.0,0.0,0.0,0.0,-2.414,0.0,0.0,0.0,0.0,0.0,0.0,0.0,0.0,0.0,0.0,0.0,0.0,0.0,0.0,0.0,0.0,0.0,0.0,0.0,0.0,0.0,0.0,0.0,0.0,0.0,0.0,0.0,0.0,0.0,0.0,0.0,0.0,0.0,0.0,0.0,0.0,0.0,0.0,0.0,0.0,0.0,0.0,0.0,0.0,0.0,0.0,0.0,0.0,0.0,0.0,0.0,0.0,0.0,0.0,0.0,0.0,0.0,0.0,0.0,0.0,0.0,0.0,0.0,0.0,0.0,0.0,0.0,0.0,0.0,0.0,0.0,0.0,0.0,0.0,0.0,0.0,0.0,0.0,0.0,0.0,0.0,0.0,0.0,0.0,0.0,0.0,0.0,0.0,0.0,0.0,0.0,0.0,0.0,0.0,0.0,0.0,0.0,0.0,0.0,0.0,0.0,0.0,0.0,0.0,0.0,0.0,0.0,0.0,0.0,0.0,-2.5511,-2.5515,-2.5505,-2.4907,-2.363,0.0,0.0,0.0,0.0,0.0,0.0,0.0,0.0,0.0,0.0,0.0,0.0,0.0,0.0,0.0,0.0,0.0,0.0,0.0,0.0,0.0,0.0,0.0,0.0,0.0,0.0,0.0,0.0,0.0,0.0,0.0,0.0,0.0,0.0,0.0,0.0,0.0,0.0,0.0,0.0,0.0,0.0,0.0,0.0,0.0,0.0,0.0,0.0,0.0,0.0,0.0,0.0,0.0,0.0,0.0,0.0,0.0,0.0,0.0,0.0,0.0,0.0,0.0,0.0,0.0,0.0,0.0,0.0,0.0,0.0,0.0,0.0,0.0,0.0,0.0,0.0,0.0,0.0,0.0,0.0,0.0,0.0,0.0,0.0,0.0,0.0,0.0,0.0,0.0,0.0,0.0,0.0,0.0,0.0,0.0,0.0,0.0,0.0,0.0,0.0,0.0,0.0,0.0,0.0,0.0,0.0,0.0,0.0,0.0,0.0,0.0,0.0,-2.5518,-2.4716,-2.3063,0.0,0.0,0.0,0.0,0.0,0.0,0.0,0.0,0.0,0.0,0.0,0.0,0.0,0.0,0.0,0.0,0.0,0.0,0.0,0.0,0.0,0.0,0.0,0.0,0.0,0.0,0.0,0.0,0.0,0.0,0.0,0.0,0.0,0.0,0.0,0.0,0.0,0.0,0.0,0.0,0.0,0.0,0.0,0.0,0.0,0.0,0.0,0.0,0.0,0.0,0.0,0.0,0.0,0.0,0.0,0.0,0.0,0.0,0.0,0.0,0.0,0.0,0.0,0.0,0.0,0.0,0.0,0.0,0.0,0.0,0.0,0.0,0.0,0.0,0.0,0.0,0.0,0.0,0.0,0.0,0.0,0.0,0.0,0.0,0.0,0.0,0.0,0.0,0.0,0.0,0.0,0.0,0.0,0.0,0.0,0.0,0.0,0.0,0.0,0.0,0.0,0.0,0.0,0.0,0.0,0.0,0.0,0.0,0.0,0.0,-2.5511,-2.5519,-2.5503,0.0,-2.313,0.0,0.0,0.0,0.0,0.0,0.0,0.0,0.0,0.0,0.0,0.0,0.0,0.0,0.0,0.0,0.0,0.0,0.0,0.0,0.0,0.0,0.0,0.0,0.0,0.0,0.0,0.0,0.0,0.0,0.0,0.0,0.0,0.0,0.0,0.0,0.0,0.0,0.0,0.0,0.0,0.0,0.0,0.0,0.0,0.0,0.0,0.0,0.0,0.0,0.0,0.0,0.0,0.0,0.0,0.0,0.0,0.0,0.0,0.0,0.0,0.0,0.0,0.0,0.0,0.0,0.0,0.0,0.0,0.0,0.0,0.0,0.0,0.0,0.0,0.0,0.0,0.0,0.0,0.0,0.0,0.0,0.0,0.0,0.0,0.0,0.0,0.0,0.0,0.0,0.0,0.0,0.0,0.0,0.0,0.0,0.0,0.0,0.0,0.0,0.0,0.0,0.0,0.0,0.0,0.0,0.0,0.0,0.0,0.0,0.0,-2.546,-2.5507,-2.4541,-2.3692,0.0,0.0,0.0,0.0,0.0,0.0,0.0,0.0,0.0,0.0,0.0,0.0,0.0,0.0,0.0,0.0,0.0,0.0,0.0,0.0,0.0,0.0,0.0,0.0,0.0,0.0,0.0,0.0,0.0,0.0,0.0,0.0,0.0,0.0,0.0,0.0,0.0,0.0,0.0,0.0,0.0,0.0,0.0,0.0,0.0,0.0,0.0,0.0,0.0,0.0,0.0,0.0,0.0,0.0,0.0,0.0,0.0,0.0,0.0,0.0,0.0,0.0,0.0,0.0,0.0,0.0,0.0,0.0,0.0,0.0,0.0,0.0,0.0,0.0,0.0,0.0,0.0,0.0,0.0,0.0,0.0,0.0,0.0,0.0,0.0,0.0,0.0,0.0,0.0,0.0,0.0,0.0,0.0,0.0,0.0,0.0,0.0,0.0,0.0,0.0,0.0,0.0,0.0,0.0,0.0,0.0,0.0,0.0,0.0,0.0,-2.5417,-2.5445,-2.5425,-2.4325,-2.3492,-2.3041,0.0,0.0,0.0,0.0,0.0,0.0,0.0,0.0,0.0,0.0,0.0,0.0,0.0,0.0,0.0,0.0,0.0,0.0,0.0,0.0,0.0,0.0,0.0,0.0,0.0,0.0,0.0,0.0,0.0,0.0,0.0,0.0,0.0,0.0,0.0,0.0,0.0,0.0,0.0,0.0,0.0,0.0,0.0,0.0,0.0,0.0,0.0,0.0,0.0,0.0,0.0,0.0,0.0,0.0,0.0,0.0,0.0,0.0,0.0,0.0,0.0,0.0,0.0,0.0,0.0,0.0,0.0,0.0,0.0,0.0,0.0,0.0,0.0,0.0,0.0,0.0,0.0,0.0,0.0,0.0,0.0,0.0,0.0,0.0,0.0,0.0,0.0,0.0,0.0,0.0,0.0,0.0,0.0,0.0,0.0,0.0,0.0,0.0,0.0,0.0,0.0,0.0,0.0,0.0,0.0,0.0,0.0,0.0,0.0,-2.5448,-2.5506,-2.5492,-2.5423,-2.4674,0.0,0.0,0.0,0.0,0.0,0.0,0.0,0.0,0.0,0.0,0.0,0.0,0.0,0.0,0.0,0.0,0.0,0.0,0.0,0.0,0.0,0.0,0.0,0.0,0.0,0.0,0.0,0.0,0.0,0.0,0.0,0.0,0.0,0.0,0.0,0.0,0.0,0.0,0.0,0.0,0.0,0.0,0.0,0.0,0.0,0.0,0.0,0.0,0.0,0.0,0.0,0.0,0.0,0.0,0.0,0.0,0.0,0.0,0.0,0.0,0.0,0.0,0.0,0.0,0.0,0.0,0.0,0.0,0.0,0.0,0.0,0.0,0.0,0.0,0.0,0.0,0.0,0.0,0.0,0.0,0.0,0.0,0.0,0.0,0.0,0.0,0.0,0.0,0.0,0.0,0.0,0.0,0.0,0.0,0.0,0.0,0.0,0.0,0.0,0.0,0.0,0.0,0.0,0.0,0.0,0.0,0.0,0.0,0.0,-2.5363,-2.546,-2.5518,-2.5465,-2.4512,-2.3691,0.0,0.0,0.0,0.0,0.0,0.0,0.0,0.0,0.0,0.0,0.0,0.0,0.0,0.0,0.0,0.0,0.0,0.0,0.0,0.0,0.0,0.0,0.0,0.0,0.0,0.0,0.0,0.0,0.0,0.0,0.0,0.0,0.0,0.0,0.0,0.0,0.0,0.0,0.0,0.0,0.0,0.0,0.0,0.0,0.0,0.0,0.0,0.0,0.0,0.0,0.0,0.0,0.0,0.0,0.0,0.0,0.0,0.0,0.0,0.0,0.0,0.0,0.0,0.0,0.0,0.0,0.0,0.0,0.0,0.0,0.0,0.0,0.0,0.0,0.0,0.0,0.0,0.0,0.0,0.0,0.0,0.0,0.0,0.0,0.0,0.0,0.0,0.0,0.0,0.0,0.0,0.0,0.0,0.0,0.0,0.0,0.0,0.0,0.0,0.0,0.0,0.0,0.0,0.0,0.0,0.0,0.0,0.0,0.0,-2.5376,0.0,-2.5486,0.0,-2.422,-2.3352,0.0,0.0,0.0,0.0,0.0,0.0,0.0,0.0,0.0,0.0,0.0,0.0,0.0,0.0,0.0,0.0,0.0,0.0,0.0,0.0,0.0,0.0,0.0,0.0,0.0,0.0,0.0,0.0,0.0,0.0,0.0,0.0,0.0,0.0,0.0,0.0,0.0,0.0,0.0,0.0,0.0,0.0,0.0,0.0,0.0,0.0,0.0,0.0,0.0,0.0,0.0,0.0,0.0,0.0,0.0,0.0,0.0,0.0,0.0,0.0,0.0,0.0,0.0,0.0,0.0,0.0,0.0,0.0,0.0,0.0,0.0,0.0,0.0,0.0,0.0,0.0,0.0,0.0,0.0,0.0,0.0,0.0,0.0,0.0,0.0,0.0,0.0,0.0,0.0,0.0,0.0,0.0,0.0,0.0,0.0,0.0,0.0,0.0,0.0,0.0,0.0,0.0,0.0,0.0,0.0,0.0,0.0,0.0,-2.5052,-2.5374,-2.5386,-2.5469,-2.5576,-2.473,-2.3904,0.0,0.0,0.0,0.0,0.0,0.0,0.0,0.0,0.0,0.0,0.0,0.0,0.0,0.0,0.0,0.0,0.0,0.0,0.0,0.0,0.0,0.0,0.0,0.0,0.0,0.0,0.0,0.0,0.0,0.0,0.0,0.0,0.0,0.0,0.0,0.0,0.0,0.0,0.0,0.0,0.0,0.0,0.0,0.0,0.0,0.0,0.0,0.0,0.0,0.0,0.0,0.0,0.0,0.0,0.0,0.0,0.0,0.0,0.0,0.0,0.0,0.0,0.0,0.0,0.0,0.0,0.0,0.0,0.0,0.0,0.0,0.0,0.0,0.0,0.0,0.0,0.0,0.0,0.0,0.0,0.0,0.0,0.0,0.0,0.0,0.0,0.0,0.0,0.0,0.0,0.0,0.0,0.0,0.0,0.0,0.0,0.0,0.0,0.0,0.0,0.0,0.0,0.0,0.0,0.0,0.0,0.0,0.0,0.0,-2.5374,-2.546,-2.5492,-2.5489,-2.4787,-2.3941,0.0,0.0,0.0,0.0,0.0,0.0,0.0,0.0,0.0,0.0,0.0,0.0,0.0,0.0,0.0,0.0,0.0,0.0,0.0,0.0,0.0,0.0,0.0,0.0,0.0,0.0,0.0,0.0,0.0,0.0,0.0,0.0,0.0,0.0,0.0,0.0,0.0,0.0,0.0,0.0,0.0,0.0,0.0,0.0,0.0,0.0,0.0,0.0,0.0,0.0,0.0,0.0,0.0,0.0,0.0,0.0,0.0,0.0,0.0,0.0,0.0,0.0,0.0,0.0,0.0,0.0,0.0,0.0,0.0,0.0,0.0,0.0,0.0,0.0,0.0,0.0,0.0,0.0,0.0,0.0,0.0,0.0,0.0,0.0,0.0,0.0,0.0,0.0,0.0,0.0,0.0,0.0,0.0,0.0,0.0,0.0,0.0,0.0,0.0,0.0,0.0,0.0,0.0,0.0,0.0,0.0,0.0,0.0,0.0,-2.5274,-2.5414,-2.5476,-2.5515,-2.4764,-2.3945,-2.303,0.0,0.0,0.0,0.0,0.0,0.0,0.0,0.0,0.0,0.0,0.0,0.0,0.0,0.0,0.0,0.0,0.0,0.0,0.0,0.0,0.0,0.0,0.0,0.0,0.0,0.0,0.0,0.0,0.0,0.0,0.0,0.0,0.0,0.0,0.0,0.0,0.0,0.0,0.0,0.0,0.0,0.0,0.0,0.0,0.0,0.0,0.0,0.0,0.0,0.0,0.0,0.0,0.0,0.0,0.0,0.0,0.0,0.0,0.0,0.0,0.0,0.0,0.0,0.0,0.0,0.0,0.0,0.0,0.0,0.0,0.0,0.0,0.0,0.0,0.0,0.0,0.0,0.0,0.0,0.0,0.0,0.0,0.0,0.0,0.0,0.0,0.0,0.0,0.0,0.0,0.0,0.0,0.0,0.0,0.0,0.0,0.0,0.0,0.0,0.0,0.0,0.0,0.0,0.0,0.0,0.0,0.0,0.0,-2.5086,-2.5298,-2.5432,-2.5485,-2.478,-2.3966,0.0,0.0,0.0,0.0,0.0,0.0,0.0,0.0,0.0,0.0,0.0,0.0,0.0,0.0,0.0,0.0,0.0,0.0,0.0,0.0,0.0,0.0,0.0,0.0,0.0,0.0,0.0,0.0,0.0,0.0,0.0,0.0,0.0,0.0,0.0,0.0,0.0,0.0,0.0,0.0,0.0,0.0,0.0,0.0,0.0,0.0,0.0,0.0,0.0,0.0,0.0,0.0,0.0,0.0,0.0,0.0,0.0,0.0,0.0,0.0,0.0,0.0,0.0,0.0,0.0,0.0,0.0,0.0,0.0,0.0,0.0,0.0,0.0,0.0,0.0,0.0,0.0,0.0,0.0,0.0,0.0,0.0,0.0,0.0,0.0,0.0,0.0,0.0,0.0,0.0,0.0,0.0,0.0,0.0,0.0,0.0,0.0,0.0,0.0,0.0,0.0,0.0,0.0,0.0,0.0,0.0,0.0,0.0,0.0,-2.5028,-2.5219,-2.5355,-2.5425,-2.5318,-2.4849,0.0,0.0,0.0,0.0,0.0,0.0,0.0,0.0,0.0,0.0,0.0,0.0,0.0,0.0,0.0,0.0,0.0,0.0,0.0,0.0,0.0,0.0,0.0,0.0,0.0,0.0,0.0,0.0,0.0,0.0,0.0,0.0,0.0,0.0,0.0,0.0,0.0,0.0,0.0,0.0,0.0,0.0,0.0,0.0,0.0,0.0,0.0,0.0,0.0,0.0,0.0,0.0,0.0,0.0,0.0,0.0,0.0,0.0,0.0,0.0,0.0,0.0,0.0,0.0,0.0,0.0,0.0,0.0,0.0,0.0,0.0,0.0,0.0,0.0,0.0,0.0,0.0,0.0,0.0,0.0,0.0,0.0,0.0,0.0,0.0,0.0,0.0,0.0,0.0,0.0,0.0,0.0,0.0,0.0,0.0,0.0,0.0,0.0,0.0,0.0,0.0,0.0,0.0,0.0,0.0,0.0,0.0,0.0,-2.4883,-2.4924,-2.5165,-2.5332,-2.5355,-2.5456,-2.5117,0.0,0.0,0.0,0.0,0.0,0.0,0.0,0.0,0.0,0.0,0.0,0.0,0.0,0.0,0.0,0.0,0.0,0.0,0.0,0.0,0.0,0.0,0.0,0.0,0.0,0.0,0.0,0.0,0.0,0.0,0.0,0.0,0.0,0.0,0.0,0.0,0.0,0.0,0.0,0.0,0.0,0.0,0.0,0.0,0.0,0.0,0.0,0.0,0.0,0.0,0.0,0.0,0.0,0.0,0.0,0.0,0.0,0.0,0.0,0.0,0.0,0.0,0.0,0.0,0.0,0.0,0.0,0.0,0.0,0.0,0.0,0.0,0.0,0.0,0.0,0.0,0.0,0.0,0.0,0.0,0.0,0.0,0.0,0.0,0.0,0.0,0.0,0.0,0.0,0.0,0.0,0.0,0.0,0.0,0.0,0.0,0.0,0.0,0.0,0.0,0.0,0.0,0.0,0.0,0.0,0.0,0.0,0.0,-2.4792,-2.4783,-2.5109,-2.5297,-2.5298,-2.5361,-2.5061,0.0,0.0,0.0,0.0,0.0,0.0,0.0,0.0,0.0,0.0,0.0,0.0,0.0,0.0,0.0,0.0,0.0,0.0,0.0,0.0,0.0,0.0,0.0,0.0,0.0,0.0,0.0,0.0,0.0,0.0,0.0,0.0,0.0,0.0,0.0,0.0,0.0,0.0,0.0,0.0,0.0,0.0,0.0,0.0,0.0,0.0,0.0,0.0,0.0,0.0,0.0,0.0,0.0,0.0,0.0,0.0,0.0,0.0,0.0,0.0,0.0,0.0,0.0,0.0,0.0,0.0,0.0,0.0,0.0,0.0,0.0,0.0,0.0,0.0,0.0,0.0,0.0,0.0,0.0,0.0,0.0,0.0,0.0,0.0,0.0,0.0,0.0,0.0,0.0,0.0,0.0,0.0,0.0,0.0,0.0,0.0,0.0,0.0,0.0,0.0,0.0,0.0,0.0,0.0,0.0,0.0,0.0,0.0,-2.4782,-2.4715,-2.5062,-2.5222,-2.5208,-2.5329,-2.5351,0.0,0.0,0.0,0.0,0.0,0.0,0.0,0.0,0.0,0.0,0.0,0.0,0.0,0.0,0.0,0.0,0.0,0.0,0.0,0.0,0.0,0.0,0.0,0.0,0.0,0.0,0.0,0.0,0.0,0.0,0.0,0.0,0.0,0.0,0.0,0.0,0.0,0.0,0.0,0.0,0.0,0.0,0.0,0.0,0.0,0.0,0.0,0.0,-2.4394,0.0,0.0,0.0,0.0,0.0,0.0,0.0,0.0,0.0,0.0,0.0,0.0,0.0,0.0,0.0,0.0,0.0,0.0,0.0,0.0,0.0,0.0,0.0,0.0,0.0,0.0,0.0,0.0,0.0,0.0,0.0,0.0,0.0,0.0,0.0,0.0,0.0,0.0,0.0,0.0,0.0,0.0,0.0,0.0,0.0,0.0,0.0,0.0,0.0,0.0,0.0,0.0,0.0,0.0,0.0,0.0,0.0,0.0,0.0,-2.4749,-2.4723,-2.5012,-2.5201,-2.5212,-2.5274,-2.5367,0.0,0.0,0.0,0.0,0.0,0.0,0.0,0.0,0.0,0.0,0.0,0.0,0.0,0.0,0.0,0.0,0.0,0.0,0.0,0.0,0.0,0.0,0.0,0.0,0.0,0.0,0.0,0.0,0.0,0.0,0.0,0.0,0.0,0.0,0.0,0.0,0.0,0.0,0.0,0.0,0.0,0.0,0.0,0.0,0.0,0.0,0.0,0.0,0.0,0.0,0.0,0.0,0.0,0.0,0.0,0.0,0.0,0.0,0.0,0.0,0.0,0.0,0.0,0.0,0.0,0.0,0.0,0.0,0.0,0.0,0.0,0.0,0.0,0.0,0.0,0.0,0.0,0.0,0.0,0.0,0.0,0.0,0.0,0.0,0.0,0.0,0.0,0.0,0.0,0.0,0.0,0.0,0.0,0.0,0.0,0.0,0.0,0.0,0.0,0.0,0.0,0.0,0.0,0.0,0.0,0.0,0.0,-2.4522,-2.4696,-2.4697,-2.5013,-2.5217,-2.5201,-2.5215,-2.5269,-2.545,0.0,0.0,0.0,0.0,0.0,0.0,0.0,0.0,0.0,0.0,0.0,0.0,0.0,0.0,0.0,0.0,0.0,0.0,0.0,0.0,0.0,0.0,0.0,0.0,0.0,0.0,0.0,0.0,0.0,0.0,0.0,0.0,0.0,0.0,0.0,0.0,0.0,0.0,-2.2112,-2.3367,0.0,0.0,0.0,0.0,0.0,0.0,0.0,0.0,-2.493,0.0,0.0,0.0,0.0,0.0,0.0,0.0,0.0,0.0,0.0,0.0,0.0,0.0,0.0,0.0,0.0,0.0,0.0,0.0,0.0,0.0,0.0,0.0,0.0,0.0,0.0,0.0,0.0,0.0,0.0,0.0,0.0,0.0,0.0,0.0,0.0,0.0,0.0,0.0,0.0,0.0,0.0,0.0,0.0,0.0,0.0,0.0,0.0,0.0,0.0,0.0,0.0,0.0,0.0,0.0,0.0,-2.4113,-2.4505,-2.4673,-2.4631,-2.5006,-2.5197,-2.5203,-2.5203,-2.5241,-2.5329,0.0,0.0,0.0,0.0,0.0,0.0,0.0,0.0,0.0,0.0,0.0,0.0,0.0,0.0,0.0,0.0,0.0,0.0,0.0,0.0,0.0,0.0,0.0,0.0,0.0,0.0,0.0,0.0,0.0,0.0,0.0,0.0,0.0,0.0,0.0,0.0,0.0,0.0,0.0,-2.4505,-2.5115,0.0,0.0,0.0,0.0,0.0,0.0,0.0,0.0,-2.4579,0.0,0.0,0.0,0.0,0.0,0.0,0.0,0.0,0.0,0.0,0.0,0.0,0.0,0.0,0.0,0.0,0.0,0.0,0.0,0.0,0.0,0.0,0.0,0.0,0.0,0.0,0.0,0.0,0.0,0.0,0.0,0.0,0.0,0.0,0.0,0.0,0.0,0.0,0.0,0.0,0.0,0.0,0.0,0.0,0.0,0.0,0.0,0.0,0.0,0.0,0.0,0.0,0.0,0.0,0.0,-2.3406,-2.362,-2.3759,-2.3837,-2.4143,-2.4335,-2.4316,-2.4416,-2.4525,0.0,0.0,0.0,0.0,0.0,0.0,0.0,0.0,0.0,0.0,0.0,0.0,0.0,0.0,0.0,0.0,0.0,0.0,0.0,0.0,0.0,0.0,0.0,0.0,0.0,0.0,0.0,0.0,0.0,0.0,0.0,0.0,0.0,0.0,0.0,0.0,0.0,0.0,0.0,0.0,-2.4015,-2.4325,-2.4686,0.0,0.0,0.0,0.0,0.0,0.0,-2.5087,-2.4729,0.0,0.0,0.0,0.0,0.0,0.0,0.0,0.0,0.0,0.0,0.0,0.0,0.0,0.0,0.0,0.0,0.0,0.0,0.0,0.0,0.0,0.0,0.0,0.0,0.0,0.0,0.0,0.0,0.0,0.0,0.0,0.0,0.0,0.0,0.0,0.0,0.0,0.0,0.0,0.0,0.0,0.0,0.0,0.0,0.0,0.0,0.0,0.0,0.0,0.0,0.0,0.0,0.0,0.0,0.0,-2.2612,-2.2592,-2.2621,-2.2772,-2.3068,-2.3234,-2.3215,-2.3524,-2.3775,0.0,0.0,0.0,0.0,0.0,0.0,0.0,0.0,0.0,0.0,0.0,0.0,0.0,0.0,0.0,0.0,0.0,0.0,0.0,0.0,0.0,0.0,0.0,0.0,0.0,0.0,0.0,0.0,0.0,0.0,0.0,0.0,0.0,0.0,0.0,0.0,0.0,0.0,0.0,0.0,0.0,-2.3716,-2.3401,-2.3953,0.0,0.0,0.0,0.0,-2.6456,-2.5676,0.0,0.0,0.0,0.0,0.0,0.0,0.0,0.0,0.0,0.0,0.0,0.0,0.0,0.0,0.0,0.0,0.0,0.0,0.0,0.0,0.0,0.0,0.0,0.0,0.0,0.0,0.0,0.0,0.0,0.0,0.0,0.0,0.0,0.0,0.0,0.0,0.0,0.0,0.0,0.0,0.0,0.0,0.0,0.0,0.0,0.0,0.0,0.0,0.0,0.0,0.0,0.0,0.0,0.0,0.0,0.0,-2.2076,-2.1859,-2.1724,-2.1697,-2.2061,-2.2264,-2.2276,-2.297,-2.3432,0.0,0.0,0.0,0.0,0.0,0.0,0.0,0.0,0.0,0.0,0.0,0.0,0.0,0.0,0.0,0.0,0.0,0.0,0.0,0.0,0.0,0.0,0.0,0.0,0.0,0.0,0.0,0.0,0.0,0.0,0.0,0.0,0.0,0.0,0.0,0.0,0.0,0.0,0.0,0.0,0.0,-2.4761,-2.432,-2.4732,-2.5049,0.0,0.0,-2.5862,-2.6579,-2.5772,0.0,0.0,0.0,0.0,0.0,0.0,0.0,0.0,0.0,0.0,0.0,0.0,0.0,0.0,0.0,0.0,0.0,0.0,0.0,0.0,0.0,0.0,0.0,0.0,0.0,0.0,0.0,0.0,0.0,0.0,0.0,0.0,0.0,0.0,0.0,0.0,0.0,0.0,0.0,0.0,0.0,0.0,0.0,0.0,0.0,0.0,0.0,0.0,0.0,0.0,0.0,0.0,0.0,0.0,0.0,-2.1045,-2.128,-2.0653,-2.0339,-2.0445,-2.0805,-2.1036,-2.1036,-2.2015,-2.2615,0.0,0.0,0.0,0.0,0.0,0.0,0.0,0.0,0.0,0.0,0.0,0.0,0.0,0.0,0.0,0.0,0.0,0.0,0.0,0.0,0.0,0.0,0.0,0.0,0.0,0.0,0.0,0.0,0.0,0.0,0.0,0.0,0.0,0.0,0.0,0.0,0.0,0.0,0.0,0.0,0.0,0.0,-2.3704,-2.3968,0.0,0.0,0.0,-2.6398,-2.7236,0.0,0.0,0.0,0.0,0.0,0.0,0.0,0.0,0.0,0.0,0.0,0.0,0.0,0.0,0.0,0.0,0.0,0.0,0.0,0.0,0.0,0.0,0.0,0.0,0.0,0.0,0.0,0.0,0.0,0.0,0.0,0.0,0.0,0.0,0.0,0.0,0.0,0.0,0.0,0.0,0.0,0.0,0.0,0.0,0.0,0.0,0.0,0.0,0.0,0.0,0.0,0.0,0.0,0.0,0.0,0.0,0.0,-2.0576,-1.9475,-1.8979,-1.9192,-1.958,-1.9776,-1.9794,-2.0841,0.0,0.0,0.0,0.0,0.0,0.0,0.0,0.0,0.0,0.0,0.0,0.0,0.0,0.0,0.0,0.0,0.0,0.0,0.0,0.0,0.0,0.0,0.0,0.0,0.0,0.0,0.0,-1.6814,0.0,0.0,0.0,0.0,0.0,0.0,0.0,0.0,0.0,0.0,0.0,0.0,0.0,0.0,-2.2101,-2.2959,-2.3391,-2.3756,0.0,0.0,-2.6653,-2.7088,-2.6554,-2.5845,0.0,0.0,0.0,0.0,0.0,0.0,0.0,0.0,0.0,0.0,0.0,0.0,0.0,0.0,0.0,0.0,0.0,0.0,0.0,0.0,0.0,0.0,0.0,0.0,0.0,0.0,0.0,0.0,0.0,0.0,0.0,0.0,0.0,0.0,0.0,0.0,0.0,0.0,0.0,0.0,0.0,0.0,0.0,0.0,0.0,0.0,0.0,0.0,0.0,0.0,0.0,0.0,0.0,0.0,0.0,-1.9985,-1.8508,-1.7856,-1.8113,-1.8438,-1.8622,-1.8622,-1.9366,-1.9985,0.0,0.0,0.0,0.0,0.0,0.0,0.0,0.0,0.0,0.0,0.0,0.0,0.0,0.0,0.0,0.0,0.0,0.0,0.0,0.0,0.0,0.0,0.0,0.0,0.0,0.0,0.0,0.0,0.0,0.0,0.0,0.0,0.0,0.0,0.0,0.0,0.0,0.0,0.0,0.0,0.0,-2.2796,-2.2493,-2.3572,-2.4296,0.0,-2.5492,-2.6352,-2.5346,-2.5463,-2.5275,-2.4182,0.0,0.0,0.0,0.0,0.0,0.0,0.0,0.0,0.0,0.0,0.0,0.0,0.0,0.0,0.0,0.0,0.0,0.0,0.0,0.0,0.0,0.0,0.0,0.0,0.0,0.0,0.0,0.0,0.0,0.0,0.0,0.0,0.0,0.0,0.0,0.0,0.0,0.0,0.0,0.0,0.0,0.0,0.0,0.0,0.0,0.0,0.0,0.0,0.0,0.0,0.0,0.0,0.0,-1.9605,-1.932,-1.8271,-1.7675,-1.7579,-1.7804,-1.8048,-1.8259,-1.9118,-1.9898,0.0,0.0,0.0,0.0,0.0,0.0,0.0,0.0,0.0,0.0,0.0,0.0,0.0,0.0,0.0,0.0,0.0,0.0,0.0,0.0,0.0,0.0,0.0,0.0,0.0,0.0,0.0,0.0,-1.7711,-1.7815,-1.8191,0.0,0.0,0.0,0.0,0.0,0.0,0.0,0.0,0.0,0.0,-2.1672,-2.1927,-2.2577,0.0,0.0,-2.4355,-2.5241,-2.4767,-2.5391,-2.5464,-2.4115,-2.4454,0.0,0.0,0.0,0.0,0.0,0.0,0.0,0.0,0.0,0.0,0.0,0.0,0.0,0.0,0.0,0.0,0.0,0.0,0.0,0.0,0.0,0.0,0.0,0.0,0.0,0.0,0.0,0.0,0.0,0.0,0.0,0.0,0.0,0.0,0.0,0.0,0.0,0.0,0.0,0.0,0.0,0.0,0.0,0.0,0.0,0.0,0.0,0.0,0.0,0.0,0.0,0.0,-1.9449,-1.885,-1.8067,-1.7492,-1.7126,-1.7259,-1.7471,-1.7704,-1.8409,-1.9091,0.0,0.0,0.0,0.0,0.0,0.0,0.0,0.0,0.0,0.0,0.0,0.0,0.0,0.0,0.0,0.0,0.0,0.0,0.0,0.0,0.0,0.0,0.0,0.0,0.0,0.0,0.0,0.0,-1.8007,-1.7935,-1.7968,0.0,0.0,0.0,0.0,0.0,0.0,0.0,0.0,0.0,0.0,-2.0903,-2.1442,-2.2084,-2.2528,-2.2677,-2.3847,-2.4586,-2.4337,-2.4982,-2.5115,-2.385,0.0,0.0,0.0,0.0,0.0,0.0,0.0,0.0,0.0,0.0,0.0,0.0,0.0,0.0,0.0,0.0,0.0,0.0,0.0,0.0,0.0,0.0,0.0,0.0,0.0,0.0,0.0,-2.137,0.0,0.0,-1.9415,0.0,0.0,0.0,0.0,0.0,0.0,0.0,0.0,0.0,0.0,0.0,0.0,0.0,0.0,0.0,0.0,0.0,0.0,0.0,0.0,0.0,0.0,-1.9186,-1.8796,-1.7797,-1.7124,-1.6727,-1.676,-1.6812,-1.6837,-1.6917,-1.7064,-1.732,0.0,0.0,0.0,0.0,0.0,0.0,0.0,0.0,0.0,0.0,0.0,0.0,0.0,0.0,0.0,0.0,0.0,0.0,0.0,0.0,0.0,0.0,0.0,0.0,0.0,0.0,-1.9161,-1.8153,-1.7434,0.0,0.0,0.0,0.0,0.0,0.0,0.0,0.0,0.0,0.0,-2.0259,-2.087,-2.1047,-2.2374,-2.3229,-2.3302,-2.4164,-2.4595,-2.3871,-2.406,-2.3991,0.0,0.0,0.0,0.0,0.0,0.0,0.0,0.0,0.0,0.0,0.0,0.0,0.0,0.0,0.0,0.0,0.0,0.0,0.0,0.0,0.0,0.0,0.0,0.0,0.0,0.0,0.0,-2.1553,-2.0666,0.0,0.0,0.0,0.0,0.0,0.0,0.0,0.0,0.0,0.0,0.0,-1.5622,-1.5742,0.0,0.0,0.0,0.0,0.0,0.0,0.0,0.0,0.0,0.0,0.0,0.0,-1.8708,-1.7748,-1.7155,-1.6586,-1.6119,-1.613,-1.6349,-1.6776,-1.6812,-1.6863,-1.6952,0.0,0.0,0.0,0.0,0.0,0.0,0.0,0.0,0.0,0.0,0.0,0.0,0.0,0.0,0.0,0.0,0.0,0.0,0.0,0.0,0.0,0.0,0.0,0.0,0.0,-1.8913,0.0,0.0,0.0,0.0,0.0,0.0,0.0,0.0,0.0,0.0,0.0,-1.9061,-1.8731,-1.9381,-1.982,-1.9651,-2.0455,-2.1149,0.0,0.0,0.0,0.0,0.0,0.0,0.0,0.0,0.0,0.0,0.0,0.0,0.0,0.0,-2.1047,-2.1331,-2.108,-2.0911,-2.1118,0.0,0.0,0.0,0.0,0.0,0.0,0.0,0.0,0.0,0.0,0.0,0.0,0.0,0.0,-2.014,-1.9653,-1.8577,0.0,0.0,0.0,0.0,0.0,0.0,0.0,0.0,-1.5859,-1.5143,-1.4406,-1.4523,-1.4502,0.0,-1.5007,-1.5742,0.0,0.0,0.0,0.0,0.0,0.0,0.0,0.0,-1.805,-1.703,-1.6553,-1.6041,-1.5477,-1.5448,-1.5666,-1.609,-1.6131,-1.6251,-1.6512,-1.7084,-1.7394,0.0,0.0,0.0,0.0,0.0,0.0,0.0,0.0,0.0,0.0,0.0,0.0,0.0,0.0,0.0,0.0,0.0,0.0,0.0,0.0,0.0,0.0,0.0,-1.846,0.0,0.0,0.0,0.0,0.0,0.0,0.0,0.0,0.0,-1.8101,-1.8382,-1.8314,-1.7726,-1.8449,-1.8952,-1.8709,0.0,0.0,0.0,0.0,0.0,0.0,0.0,-2.2871,-2.2214,-2.2695,-2.279,-2.177,-2.1463,-2.1322,-2.1199,0.0,0.0,-2.1006,-2.0819,-2.0654,-2.0836,-2.1076,-2.1155,-2.0862,-2.0775,-2.0727,0.0,0.0,0.0,0.0,0.0,0.0,0.0,0.0,-1.8533,-1.8315,0.0,-1.7233,0.0,0.0,0.0,0.0,-1.7794,-1.6896,0.0,0.0,-1.4063,-1.3591,-1.3897,-1.3897,-1.3917,-1.3998,-1.4875,-1.4825,-1.3996,-1.56,0.0,0.0,0.0,0.0,0.0,0.0,-1.7193,-1.6501,-1.5986,-1.5426,-1.4805,-1.4779,-1.4808,-1.4825,-1.4918,-1.5296,-1.5992,-1.6821,-1.7305,-1.7285,-1.8006,0.0,0.0,0.0,0.0,0.0,0.0,0.0,0.0,0.0,0.0,0.0,0.0,0.0,0.0,0.0,0.0,0.0,0.0,0.0,0.0,-1.848,0.0,0.0,0.0,0.0,0.0,0.0,0.0,0.0,0.0,0.0,-1.7162,-1.7126,-1.6859,-1.6545,0.0,0.0,0.0,0.0,-2.0193,-2.018,-2.0713,-2.1271,-2.1669,-2.1697,-2.1744,-2.2077,0.0,0.0,-1.9813,-1.9735,-1.967,-1.9337,-1.936,-1.9643,-2.0459,-2.0404,-2.0442,-2.0914,-2.0524,-2.033,-2.068,-1.9932,-1.9283,-2.1481,0.0,0.0,0.0,0.0,-1.9857,-1.8976,-1.7559,-1.7385,-1.6813,-1.5993,-1.5915,0.0,0.0,0.0,0.0,0.0,0.0,-1.5243,-1.4271,-1.3581,-1.2953,-1.2348,-1.2348,-1.2348,-1.2373,-1.2652,-1.2669,-1.2507,-1.2974,-1.396,-1.5365,0.0,0.0,0.0,0.0,-1.578,-1.4887,-1.4703,-1.4483,-1.41,-1.4321,-1.4558,-1.4793,-1.5188,-1.5513,-1.5698,-1.5736,-1.5999,-1.647,-1.6478,0.0,0.0,0.0,0.0,0.0,0.0,0.0,0.0,0.0,0.0,0.0,0.0,0.0,0.0,0.0,0.0,0.0,0.0,0.0,-1.764,-1.6889,-1.652,0.0,0.0,0.0,0.0,0.0,0.0,0.0,0.0,0.0,-1.5869,-1.6035,-1.6245,0.0,0.0,-1.7141,-1.746,-1.8124,-1.8593,-1.8593,-1.897,0.0,-1.9453,-1.9749,-1.9902,-1.9646,-1.9334,-1.9085,-1.8874,-1.8847,-1.8833,-1.8741,-1.8727,-1.8833,-1.9044,-1.908,-1.9085,-1.9219,-1.912,-1.8912,-1.8717,-1.8153,-1.7812,-1.9568,-1.9863,-1.968,-1.9186,-1.8564,-1.8368,-1.7382,-1.5915,-1.5915,-1.5487,-1.4767,-1.4699,-1.4855,-1.5227,-1.5689,0.0,0.0,0.0,-1.3993,-1.2884,-1.2635,-1.2179,-1.1561,-1.1553,-1.1449,-1.1316,-1.1524,-1.1403,-1.0994,-1.1482,-1.2147,-1.2998,0.0,0.0,-1.4853,-1.4626,-1.4269,-1.3803,-1.3641,-1.3504,-1.3404,-1.3839,-1.4244,-1.4623,-1.4959,-1.5114,-1.5127,-1.517,-1.5371,-1.5824,-1.6008,-1.6224,0.0,0.0,0.0,0.0,0.0,0.0,0.0,0.0,0.0,0.0,0.0,-1.6722,0.0,0.0,0.0,0.0,-1.5789,-1.6371,-1.6624,-1.5996,0.0,0.0,0.0,0.0,0.0,0.0,0.0,-1.5685,-1.5,-1.4553,-1.4604,-1.4748,-1.5089,-1.5623,-1.5921,-1.6169,-1.651,0.0,-1.7073,-1.7062,-1.7175,-1.7343,-1.7648,-1.7694,-1.7644,-1.75,-1.7596,-1.7583,-1.733,-1.7468,-1.7473,-1.7208,-1.7263,-1.7335,-1.7135,-1.7079,-1.7308,-1.7779,-1.7904,-1.7705,-1.7054,-1.6464,-1.6244,-1.7871,-1.7936,-1.871,-1.8398,-1.7387,-1.6927,-1.5835,-1.435,-1.4326,-1.4281,-1.42,-1.3634,-1.3866,-1.4653,-1.4508,0.0,-1.2971,-1.2943,-1.2346,-1.1343,-1.1343,-1.1293,-1.1167,-1.1166,-1.0979,-1.0656,-1.1143,-1.0781,-0.9735,-1.0817,-1.107,-1.0508,-1.1765,-1.275,-1.3376,-1.291,-1.2819,-1.3141,-1.275,-1.2633,-1.28,-1.3331,-1.3847,-1.43,-1.4385,-1.4437,-1.4469,-1.4959,-1.524,-1.5271,-1.6161,-1.6466,-1.6078,0.0,0.0,0.0,0.0,0.0,0.0,0.0,0.0,0.0,0.0,0.0,0.0,0.0,0.0,0.0,-1.5107,0.0,-1.5735,-1.5564,0.0,0.0,0.0,-1.5091,-1.448,-1.4412,-1.4166,-1.3593,0.0,0.0,-1.3351,-1.3351,-1.3563,-1.4163,-1.4854,-1.5381,-1.5536,-1.568,-1.5738,-1.5767,-1.5483,-1.5548,-1.6279,-1.5879,-1.5574,-1.5821,-1.6106,-1.6126,-1.5623,-1.5843,-1.5805,-1.5206,-1.5342,-1.5554,-1.4971,-1.4963,-1.5167,-1.639,-1.6691,-1.649,-1.5577,-1.4985,-1.4735,-1.6695,-1.6658,-1.6114,-1.5805,-1.5702,-1.5578,-1.4801,-1.3668,-1.3634,-1.3364,-1.2871,-1.3038,-1.2982,-1.275,-1.2369,-1.1761,-1.1057,-1.0739,-1.0407,-1.0079,-1.0053,-1.002,-0.9994,-1.0052,-1.0091,-1.0108,-1.0271,-1.0211,-0.9995,-1.0288,-1.0347,-1.0223,-1.0517,-1.1151,-1.2041,-1.2177,-1.2117,-1.1857,-1.2099,-1.2384,-1.2707,-1.2867,-1.3195,-1.3712,-1.4216,-1.4625,-1.4918,-1.4797,-1.4736,-1.4822,-1.4686,-1.4579,-1.4526,-1.5263,0.0,0.0,0.0,0.0,0.0,0.0,0.0,0.0,0.0,-1.4516,-1.4504,0.0,-1.4206,0.0,-1.3488,-1.4126,-1.5387,-1.4639,0.0,0.0,-1.4628,-1.4326,-1.381,-1.3593,-1.3318,-1.2816,-1.2304,-1.1981,-1.1973,-1.1981,-1.2004,-1.222,-1.3524,-1.4627,-1.501,-1.5089,-1.5118,-1.507,-1.4945,-1.5052,-1.5148,-1.5138,-1.4876,-1.4775,-1.5041,-1.5216,-1.5021,-1.5118,-1.5167,-1.4913,-1.456,-1.4492,-1.4619,-1.4242,-1.376,-1.3911,-1.4484,-1.4758,-1.3883,-1.3561,-1.352,-1.5871,-1.58,-1.5075,-1.4574,-1.4252,-1.4251,-1.3769,-1.2967,-1.2943,-1.2618,-1.2082,-1.1974,-1.1592,-1.0995,-1.0732,-1.0401,-1.0041,-0.9818,-0.9666,-0.9614,-0.9614,-0.9533,-0.942,-0.9475,-0.9431,-0.9374,-0.94,-0.9406,-0.9398,-0.9398,-0.9398,-0.9375,-0.9525,-0.9886,-1.0458,-1.1095,-1.1384,-1.1312,-1.1644,-1.207,-1.2548,-1.2559,-1.2848,-1.3433,-1.3761,-1.4071,-1.4417,-1.4172,-1.4159,-1.4445,-1.4182,-1.4032,-1.4011,-1.4444,-1.4444,0.0,0.0,0.0,0.0,0.0,0.0,0.0,0.0,0.0,0.0,0.0,-1.3571,-1.3559,-1.3072,-1.322,-1.4344,-1.3356,-1.2816,-1.3119,-1.3088,-1.2927,-1.2649,-1.2504,-1.2358,-1.2074,-1.1734,-1.1516,-1.1516,-1.1516,-1.1516,-1.1516,-1.2381,-1.3092,-1.3326,-1.3377,-1.3377,-1.3386,-1.325,-1.3101,-1.2927,-1.3096,-1.3108,-1.2812,-1.2872,-1.3046,-1.3017,-1.3038,-1.3046,-1.3017,-1.2718,-1.2564,-1.2826,-1.2567,-1.2092,-1.1875,-1.214,-1.232,-1.2008,-1.1868,-1.1822,-1.4984,-1.4867,-1.4447,-1.3727,-1.2824,-1.2776,-1.254,-1.2218,-1.2218,-1.1938,-1.1437,-1.0818,-1.0143,-0.951,-0.951,-0.9465,-0.9406,-0.9387,-0.938,-0.938,-0.938,-0.9241,-0.899,-0.9003,-0.8839,-0.8527,-0.8633,-0.8609,-0.8515,-0.8625,-0.8637,-0.8652,-0.8928,-0.9076,-0.9118,-1.0005,-1.0645,-1.0985,-1.1223,-1.1618,-1.2147,-1.2213,-1.2572,-1.3198,-1.317,-1.3218,-1.3515,-1.3362,-1.3478,-1.3897,-1.3883,-1.3785,-1.3655,-1.3646,-1.3237,0.0,-1.2295,0.0,0.0,0.0,0.0,0.0,0.0,0.0,0.0,-1.2439,-1.2869,-1.4035,-1.3046,-1.2535,-1.294,-1.2066,-1.1516,-1.1516,-1.1516,-1.1516,-1.1478,-1.1392,-1.1329,-1.1322,-1.1166,-1.1066,-1.0972,-1.0972,-1.0909,-1.0714,-1.0777,-1.0902,-1.1097,-1.1416,-1.1695,-1.1516,-1.123,-1.1219,-1.0827,-1.093,-1.1078,-1.0716,-1.0808,-1.0708,-1.0859,-1.0851,-1.0779,-1.0787,-1.0788,-1.068,-1.0651,-1.0664,-1.0468,-1.0334,-1.0245,-1.0226,-1.035,-1.0334,-1.0115,-1.3344,-1.2654,-1.2082,-1.1504,-1.0907,-1.0462,-1.0659,-1.1249,-1.1249,-1.0931,-1.0325,-1.0183,-0.9662,-0.8995,-0.8935,-0.8679,-0.8209,-0.8242,-0.8209,-0.8242,-0.8215,-0.8118,-0.7911,-0.7981,-0.7852,-0.7675,-0.8254,-0.8585,-0.867,-0.915,-0.9387,-0.9387,-0.9464,-0.9467,-0.9486,0.0,0.0,0.0,-1.0274,-1.0598,-1.0931,-1.1322,-1.1828,-1.2495,-1.253,0.0,-1.3064,-1.2788,-1.259,-1.2573,-1.2165,0.0,0.0,0.0,0.0,0.0,0.0,0.0,0.0,0.0,0.0,0.0,-1.09,-1.0805,-1.099,-1.1182,-1.1532,-1.2068,-1.1874,-1.1734,-1.1819,-1.164,-1.1516,-1.1516,-1.1485,-1.1454,-1.1329,-1.0867,-1.0458,-1.03,-0.9334,-0.8661,-0.8688,-0.814,-0.7822,-0.7947,-0.7947,-0.8237,-0.8801,-1.0312,-1.1423,-1.1494,-1.114,-1.0909,-1.0602,-1.0624,-1.0493,-1.0405,-1.0524,-1.0621,-1.0557,-1.0564,-1.0636,-1.0564,-1.0251,-1.0007,-1.0379,-0.9981,-0.9514,-0.9893,-0.9456,-0.9207,-0.9655,-0.9718,-0.9718,-1.1563,-1.1095,-1.0596,-1.0253,0.0,-0.9706,-0.9797,-1.0131,-1.0388,-1.0144,-0.9625,-0.9743,-0.9355,-0.8572,-0.8684,-0.8512,-0.8093,-0.8093,-0.8021,-0.7901,-0.7901,-0.7744,-0.7401,-0.743,-0.7342,-0.7115,-0.7485,-0.7769,-0.7963,-0.8277,-0.8425,-0.8425,-0.8418,-0.8418,-0.8425,-0.8541,-0.894,-0.9588,-0.9814,-0.9969,-1.0105,-1.0336,-1.0676,-1.1065,-1.1023,0.0,0.0,0.0,0.0,0.0,0.0,0.0,0.0,0.0,0.0,-1.0509,-1.0619,-1.0522,-1.0196,-0.9782,-0.9533,-0.9366,-0.9025,-0.9345,-1.0679,-1.1093,-1.1336,-1.1518,-1.1212,-1.1,-1.1,-1.0654,-1.0426,-1.0395,-1.03,-1.0135,-0.9717,-0.9398,-0.8988,-0.8501,-0.7892,-0.7474,-0.7442,-0.7153,-0.6924,-0.6892,-0.699,-0.7153,-0.7609,-0.895,-1.0059,-1.0272,-1.0224,-0.9987,-0.9713,-0.9313,-0.9075,-0.8884,-0.8645,-0.8506,-0.8472,-0.8472,-0.8478,-0.8444,-0.8171,-0.8087,-0.8277,-0.7987,-0.7802,-0.7975,-0.7767,-0.7605,-0.7913,-0.8554,-0.9014,-1.01,-0.9919,-0.9592,-0.9406,-0.9302,-0.9309,-0.9139,-0.8933,-0.9494,0.0,0.0,-0.9172,-0.8865,-0.8243,-0.8241,-0.8189,-0.808,-0.7963,-0.7825,-0.7595,-0.7595,-0.7379,-0.6957,-0.6951,-0.6823,-0.6562,-0.6597,-0.6748,-0.6951,-0.6998,-0.7021,-0.7015,-0.704,-0.7021,-0.7057,-0.7244,-0.7888,-0.896,-0.9268,-0.9432,-0.9458,-0.9536,-0.964,-0.9762,-0.9666,-0.9714,-1.0,-0.987,-1.0015,-1.0392,-0.9884,-0.9771,-1.0208,-0.9708,-0.9329,-0.9111,-0.9128,-0.8918,-0.845,-0.7922,-0.7612,-0.7552,-0.7231,-0.8001,-1.0184,-1.0578,-1.0714,-1.0683,-1.0205,-0.9869,-0.9869,-0.9294,-0.8877,-0.8882,-0.8721,-0.8388,-0.7859,-0.7762,-0.7572,-0.6953,-0.6728,-0.6625,-0.6597,-0.6465,-0.6433,-0.6433,-0.6367,-0.6601,-0.6826,-0.767,-0.8468,-0.8697,-0.8711,-0.8583,-0.8317,-0.7801,-0.7297,-0.7315,-0.6764,-0.6213,-0.6209,-0.6209,-0.6209,-0.646,-0.6209,-0.6305,-0.6245,-0.6364,-0.6209,-0.6209,-0.6182,-0.615,-0.6258,-0.7197,-0.7957,-0.9707,-0.899,-0.8923,-0.8626,-0.8135,-0.8135,-0.7985,-0.7813,-0.8548,-0.8724,-0.8403,-0.7977,-0.7856,-0.7907,-0.6974,-0.68,-0.7215,-0.6715,-0.6482,-0.6453,-0.6426,-0.6272,-0.5992,-0.6013,-0.5851,-0.5624,-0.5827,-0.5958,-0.6027,-0.624,-0.6333,-0.635,-0.6338,-0.635,-0.6364,-0.6394,-0.6499,-0.6686,-0.8057,-0.8804,-0.8909,-0.9249,-0.9491,-0.9614,-0.9569,-0.9712,-0.9982,-0.9962,-0.9901,-0.9747,-0.9077,-0.852,-0.813,-0.7568,-0.7146,-0.7126,-0.7303,-0.7412,-0.7355,-0.7294,-0.7196,-0.7039,-0.6969,-0.7173,-0.7681,-0.777,-0.7725,-0.7562,-0.7572,-0.7409,-0.7377,-0.7377,-0.7316,-0.7284,-0.7218,-0.7116,-0.6915,-0.6883,-0.6752,-0.6433,-0.5903,-0.554,-0.5507,-0.512,-0.4827,-0.4761,-0.5054,-0.5219,-0.5939,-0.6822,-0.7292,-0.7293,-0.7202,-0.7067,-0.6994,-0.6639,-0.6422,-0.6388,-0.6269,-0.6073,-0.6046,-0.6046,-0.6046,-0.615,-0.6073,-0.61,-0.61,-0.6209,-0.6073,-0.6018,-0.5932,-0.59,-0.5846,-0.6113,-0.6352,-0.8249,-0.7857,-0.7519,-0.723,-0.6972,-0.6972,-0.6894,-0.6827,-0.7181,-0.7357,-0.7355,-0.727,-0.7227,-0.7178,-0.6799,-0.6709,-0.6824,-0.6541,-0.634,-0.6186,-0.6209,-0.6051,-0.5817,-0.5803,-0.5645,-0.5417,-0.5515,-0.5585,-0.5599,-0.5708,-0.5775,-0.5749,-0.5775,-0.5749,-0.578,-0.5908,-0.599,-0.6017,-0.6839,-0.7331,-0.7385,-0.7572,-0.77,-0.7753,-0.7835,-0.7936,-0.8053,-0.816,-0.8143,-0.8034,-0.7704,-0.747,-0.736,-0.6984,-0.6785,-0.6857,-0.6994,-0.6988,-0.6889,-0.6617,-0.6301,-0.5815,-0.5749,-0.5778,-0.5774,-0.656,-0.6985,-0.6892,-0.6892,-0.6892,-0.6892,-0.6854,-0.6789,-0.6789,-0.6691,-0.6429,-0.603,-0.5965,-0.5771,-0.5348,-0.4987,-0.4758,-0.4755,-0.4498,-0.4303,-0.4303,-0.4364,-0.4595,-0.4951,-0.5411,-0.5942,-0.648,-0.6557,-0.6409,-0.6267,-0.5885,-0.5664,-0.5687,-0.5473,-0.5308,-0.5281,-0.5281,-0.5281,-0.5281,-0.5281,-0.5226,-0.5144,-0.512,-0.5093,-0.5007,-0.4976,-0.4838,-0.4532,-0.4195,-0.4436,-0.6896,-0.6842,-0.6399,-0.6237,-0.6225,-0.6133,-0.6128,-0.6096,-0.5961,-0.6017,-0.624,-0.6516,-0.6563,-0.6525,-0.6466,-0.6389,-0.6318,-0.6191,-0.6021,-0.5837,-0.58,-0.5721,-0.5536,-0.5501,-0.5341,-0.5039,-0.5002,-0.4947,-0.4821,-0.4795,-0.4791,-0.4791,-0.4795,-0.477,-0.4774,-0.5,-0.5098,-0.5106,-0.5309,-0.5655,-0.6182,-0.6209,-0.6209,-0.6191,-0.636,-0.6434,-0.6481,-0.6701,-0.6808,-0.6803,-0.6652,-0.6699,-0.6885,-0.6564,-0.6437,-0.6571,-0.651,-0.6351,-0.5998,-0.5433,-0.4845,-0.4256,-0.4192,-0.4156,-0.4154,-0.5107,-0.5965,-0.6235,-0.6235,-0.6199,-0.5997,-0.5895,-0.5858,-0.569,-0.5529,-0.51,-0.4674,-0.4574,-0.4381,-0.3892,-0.3792,-0.3794,-0.3794,-0.3794,-0.3761,-0.3692,-0.3794,-0.3794,-0.3818,-0.3833,-0.4319,-0.5039,-0.5534,-0.5632,-0.5561,-0.5167,-0.4866,-0.4838,-0.4457,-0.4181,-0.4039,-0.3956,-0.4073,-0.4125,-0.4042,-0.4015,-0.3938,-0.3824,-0.3738,-0.3655,-0.3599,-0.3408,-0.3044,-0.2623,-0.2728,-0.629,-0.6263,-0.6191,-0.6267,-0.6307,-0.5977,-0.5829,-0.5777,-0.5258,-0.5031,-0.5104,-0.5328,-0.5756,-0.605,-0.5207,-0.5048,-0.5357,-0.4923,-0.4709,-0.4667,-0.4656,-0.4646,-0.4604,-0.458,-0.4323,-0.3829,-0.3775,-0.3553,-0.3112,-0.3035,-0.301,-0.2932,-0.2957,-0.3005,-0.301,-0.3016,-0.3023,-0.297,-0.3007,-0.4058,-0.6068,-0.6209,-0.6209,-0.6209,-0.63,-0.6528,-0.6623,-0.6977,-0.7049,-0.7111,-0.6514,-0.6218,-0.6175,-0.5497,-0.5115,-0.5245,-0.5097,-0.4671,-0.387,-0.3111,-0.2714,-0.2382,-0.245,-0.2452,-0.2418,-0.2517,-0.3151,-0.42,-0.4537,-0.4323,-0.3649,-0.3616,-0.3453,-0.3023,-0.282,-0.2447,-0.2584,-0.2414,-0.238,-0.2348,-0.2482,-0.2315,-0.2482,-0.2482,-0.2415,-0.2549,-0.2582,-0.2582,-0.2544,-0.252,-0.2481,-0.2778,-0.3503,-0.4231,-0.4194,-0.4156,-0.3876,-0.3461,-0.3297,-0.31,-0.2817,-0.2649,-0.2565,-0.3209,-0.2903,-0.279,-0.2931,-0.2792,-0.2482,-0.2567,-0.243,-0.2211,-0.2099,-0.1874,-0.212,-0.5756,-0.5804,-0.547,-0.5402,-0.5474,-0.5336,-0.5271,-0.5245,-0.5009,-0.4674,-0.429,-0.4358,-0.4779,-0.537,-0.4936,-0.4637,-0.4426,-0.4194,-0.3784,-0.337,-0.3429,-0.3365,-0.3166,-0.3253,-0.3134,-0.28,-0.2873,-0.2815,-0.2644,-0.2672,-0.2674,-0.2697,-0.2681,-0.2681,-0.2681,-0.2681,-0.2681,-0.2681,-0.2675,-0.3187,-0.3971,-0.4129,-0.4309,-0.4601,-0.445,-0.4552,-0.4949,-0.485,-0.4712,-0.4652,-0.4382,-0.4196,-0.4132,-0.3724,-0.3453,-0.3394,-0.3233,-0.2996,-0.2679,-0.238,-0.2181,-0.2114,-0.2112,-0.2097,-0.2099,-0.2094,-0.2394,-0.2842,-0.2978,-0.2852,-0.2587,-0.2551,-0.2406,-0.2166,-0.2097,-0.2097,-0.2096,-0.2101,-0.2114,-0.2114,-0.2114,-0.208,-0.2114,-0.2114,-0.2114,-0.2114,-0.208,-0.2013,-0.2076,-0.2029,-0.2004,-0.204,-0.2488,-0.2758,-0.2845,-0.2822,-0.2738,-0.2625,-0.2569,-0.24,-0.2259,-0.2204,-0.2315,-0.2541,-0.2261,-0.215,-0.2404,-0.2293,-0.2068,-0.1928,-0.1567,-0.1373,-0.1345,-0.1036,-0.0868,-0.5274,-0.5301,-0.4785,-0.4478,-0.439,-0.4425,-0.444,-0.4409,-0.444,-0.4125,-0.3653,-0.359,-0.3841,-0.4304,-0.4338,-0.3994,-0.3564,-0.3472,-0.3103,-0.2552,-0.2582,-0.2488,-0.2236,-0.2338,-0.2252,-0.2028,-0.2116,-0.208,-0.1963,-0.2083,-0.2142,-0.2163,-0.2208,-0.2241,-0.2241,-0.2239,-0.2241,-0.2217,-0.2176,-0.2142,-0.2164,-0.2093,-0.2497,-0.3249,-0.3109,-0.3103,-0.3465,-0.3226,-0.2977,-0.2791,-0.2793,-0.2752,-0.264,-0.25,-0.2322,-0.2176,-0.1886,-0.1772,-0.1844,-0.1656,-0.1529,-0.1531,-0.1532,-0.1519,-0.1525,-0.1512,-0.1526,-0.1522,-0.151,-0.1582,-0.1825,-0.1817,-0.1766,-0.1591,-0.152,-0.152,-0.1483,-0.1526,-0.1474,-0.1531,-0.1396,-0.1522,-0.1513,-0.1444,-0.1411,-0.1444,-0.1478,-0.1511,-0.1508,-0.1419,-0.142,-0.1473,-0.1369,-0.1526,-0.1838,-0.2043,-0.1956,-0.1817,-0.1817,-0.176,-0.1675,-0.1591,-0.176,-0.1621,-0.1676,-0.1676,-0.1651,-0.1624,0.0,0.0,0.0,0.0,-0.0673,0.0,0.0,-0.4935,-0.4833,-0.4324,-0.3741,-0.3121,-0.3261,-0.3299,-0.335,-0.3328,-0.3266,-0.3158,-0.2992,-0.2965,-0.2983,-0.291,-0.2864,-0.2803,-0.2655,-0.2502,-0.235,-0.2253,-0.2182,-0.2207,-0.2211,-0.1903,-0.1339,-0.1347,-0.1106,-0.0616,-0.0739,-0.077,-0.0832,-0.1041,-0.1104,-0.1132,-0.1161,-0.1074,-0.113,-0.1013,-0.0862,-0.0832,-0.0677,-0.132,-0.2611,-0.2898,-0.28,-0.2782,-0.2821,-0.2735,-0.2508,-0.2444,-0.2445,-0.2452,-0.2254,-0.2085,-0.1965,-0.1473,-0.114,-0.1047,-0.0586,0.0,0.0,0.0,0.0,0.0,0.0,0.0,0.0,0.0,0.0,-0.1016,-0.1126,-0.0873,0.0,0.0,0.0,0.0,0.0,0.0,0.0,0.0,0.0,0.0,-0.0101,0.0,0.0,0.0,0.0,0.0,0.0,0.0,0.0,-0.025,-0.0483,-0.1453,-0.1539,-0.1371,-0.1203,-0.1008,-0.0868,-0.0392,-0.0168,-0.0504,-0.07,-0.0588,-0.0616,-0.0757,0.0,0.0,0.0,0.0,0.0,0.0,0.0,0.0,-0.3606,-0.3682,-0.3554,-0.3366,-0.3142,-0.317,-0.3149,-0.3015,-0.3015,-0.2679,-0.221,-0.2111,-0.1811,-0.1376,-0.135,-0.1564,-0.2016,-0.1951,-0.1627,-0.1141,-0.1109,-0.1002,-0.0827,-0.0937,-0.083,-0.0528,-0.0566,-0.054,-0.0509,-0.054,-0.0572,-0.0569,-0.0592,-0.0617,-0.0617,-0.0617,-0.0617,-0.0619,-0.0566,-0.0572,-0.0541,-0.0485,-0.0751,-0.127,-0.1334,-0.1471,-0.1783,-0.1485,-0.1212,-0.1031,-0.1031,-0.1008,-0.0926,-0.0828,-0.0798,-0.0739,-0.0539,-0.0407,-0.038,-0.0174,0.0,0.0,0.0,0.0,0.0,0.0,0.0,0.0,0.0,0.0,-0.0305,-0.0415,-0.0299,0.0,0.0,0.0,0.0,0.0,0.0,0.0,0.0,0.0,0.0,0.0,0.0,0.0,0.0,0.0,0.0,0.0,0.0,0.0,0.0383,0.0563,0.021,-0.0372,-0.0533,-0.0448,-0.0308,-0.0252,0.0028,0.014,-0.014,-0.0112,0.0112,0.014,-0.0112,0.0,0.0,0.0,0.0,0.0,0.0,0.0,0.0,-0.269,-0.2548,-0.2627,-0.2547,-0.2348,-0.235,-0.2248,-0.2147,-0.2112,-0.1812,-0.1309,-0.1175,-0.0908,-0.0472,-0.0371,-0.0606,-0.1074,-0.1141,-0.0874,-0.0337,-0.0337,-0.0234,-0.0066,-0.0134,-0.0132,-0.0032,-0.0097,-0.0229,-0.0327,-0.0393,-0.0426,-0.0425,-0.0417,-0.0445,-0.0413,-0.0445,-0.0413,-0.0415,-0.0194,-0.0065,-0.0033,0.02,0.0336,0.0335,0.0389,-0.0032,-0.0888,-0.0572,-0.0289,-0.0163,-0.0131,-0.0099,0.0,0.0,0.0,0.0,0.0,0.0,0.0,0.0251,0.0,0.0,0.0,0.0803,0.0804,0.0816,0.0783,0.0823,0.0823,0.0824,0.0821,0.0811,0.0612,0.023,0.0268,0.0421,0.0421,0.0,0.0,0.0,0.0,0.0,0.0753,0.0,0.0,0.0673,0.0673,0.0673,0.0673,0.0672,0.067,0.0689,0.11,0.1371,0.1242,0.0869,0.0694,0.0748,0.0627,0.0568,0.045,0.0477,0.0476,0.0532,0.056,0.0588,0.0588,0.0588,0.056,0.0532,0.0,0.0,0.0,0.0,0.0,-0.2239,-0.1639,-0.1609,-0.1276,-0.0775,-0.0741,-0.0607,-0.0674,-0.064,-0.0674,-0.0573,-0.0404,-0.0371,-0.027,-0.0135,0.0,-0.0168,-0.0337,-0.0371,-0.0236,-0.0101,0.0,0.0,0.0,0.0,0.0,0.0034,0.0034,0.0067,0.0,-0.0067,-0.0202,-0.0201,-0.0133,-0.037,-0.02,-0.0335,-0.0134,0.0468,0.0804,0.0907,0.1513,0.1886,0.1919,0.1946,0.1276,-0.0135,-0.0168,0.0,0.0101,0.0101,0.0067,0.0168,0.0,0.0,0.0,0.0,0.0,0.0,0.0891,0.1312,0.1363,0.1967,0.2221,0.2182,0.2226,0.2231,0.219,0.2268,0.2348,0.2309,0.2264,0.1717,0.047,0.0859,0.1288,0.1445,0.1993,0.2438,0.2296,0.2139,0.2248,0.2225,0.1951,0.1824,0.1814,0.1846,0.1812,0.1745,0.1746,0.198,0.2,0.2006,0.2103,0.2136,0.2101,0.2071,0.1991,0.176,0.1596,0.1395,0.1355,0.1261,0.1259,0.1231,0.1259,0.1231,0.1231,0.1343,0.1371,0.1539,0.1541,0.1399,0.1287,0.1427,-0.1043,-0.0841,-0.0841,-0.074,-0.0506,-0.0472,-0.0438,-0.0371,-0.0371,-0.027,-0.0169,-0.0101,-0.0101,0.0,0.0,0.0,0.0,-0.0067,-0.0101,-0.0034,0.0,0.0,0.0,0.0,0.0,0.0,0.0539,0.0774,0.0841,0.1144,0.1343,0.1343,0.1276,0.1276,0.121,0.1276,0.131,0.1309,0.1544,0.1678,0.1715,0.2053,0.2244,0.2248,0.232,0.2097,0.1668,0.144,0.1378,0.1412,0.1444,0.1444,0.1449,0.1539,0.1596,0.1611,0.1676,0.1709,0.1747,0.1953,0.213,0.2158,0.2377,0.2462,0.2503,0.2543,0.2582,0.2542,0.2503,0.2503,0.2503,0.2503,0.2268,0.1801,0.1956,0.2152,0.2231,0.2387,0.2476,0.2501,0.2457,0.2402,0.2366,0.2319,0.2333,0.2228,0.222,0.2217,0.2149,0.2284,0.2114,0.2108,0.2417,0.2867,0.2873,0.3014,0.3126,0.2911,0.2643,0.2411,0.2243,0.215,0.2073,0.2021,0.1992,0.1962,0.1934,0.1965,0.2055,0.1971,0.1893,0.186,0.1822,0.1942,0.2131,-0.0304,-0.0304,-0.0337,-0.0304,-0.0304,-0.0304,-0.027,-0.0203,-0.0205,-0.0103,0.0,0.0,0.0,0.0,0.0313,0.0486,0.0521,0.0763,0.0936,0.0796,0.0172,0.0172,0.0484,0.0755,0.0854,0.0922,0.1332,0.1526,0.1513,0.1986,0.2192,0.2123,0.2189,0.2202,0.2187,0.2237,0.224,0.2222,0.2479,0.265,0.2677,0.2973,0.3191,0.3199,0.3281,0.3308,0.3302,0.3164,0.2801,0.2387,0.2248,0.2248,0.2253,0.2289,0.2387,0.2379,0.2412,0.246,0.2513,0.2755,0.2998,0.3041,0.3248,0.3443,0.3443,0.3444,0.3444,0.3444,0.3482,0.3404,0.3443,0.3443,0.3444,0.3444,0.3129,0.3129,0.3326,0.3443,0.3465,0.353,0.3453,0.3309,0.3235,0.3201,0.3176,0.3084,0.3048,0.2995,0.2988,0.3004,0.2893,0.2919,0.3311,0.3573,0.3651,0.3872,0.4158,0.3823,0.3431,0.3197,0.3002,0.2968,0.2907,0.2838,0.2815,0.2843,0.2841,0.2772,0.2809,0.2575,0.245,0.2712,0.2878,0.2811,0.2916,0.0034,0.0067,0.0067,0.0169,0.0203,0.0237,0.0306,0.0205,0.0244,0.0281,0.0,0.0,0.0,0.0,0.1084,0.1373,0.1491,0.1954,0.2245,0.1913,0.1107,0.0749,0.1331,0.1839,0.2035,0.2138,0.2279,0.232,0.2288,0.2617,0.2485,0.2497,0.2688,0.2621,0.2683,0.2623,0.2719,0.2782,0.3295,0.3574,0.3511,0.4168,0.4589,0.4553,0.4541,0.4556,0.452,0.4465,0.3935,0.2873,0.2782,0.2815,0.2685,0.2622,0.276,0.2808,0.2676,0.2789,0.2876,0.3466,0.3861,0.3908,0.4387,0.5018,0.4781,0.4662,0.4675,0.4726,0.4766,0.4847,0.4854,0.4828,0.482,0.4873,0.4235,0.4187,0.482,0.4859,0.4691,0.4756,0.4841,0.4758,0.4542,0.453,0.4481,0.4462,0.4345,0.4213,0.4185,0.3997,0.418,0.4167,0.403,0.403,0.3995,0.4028,0.4281,0.4175,0.385,0.3714,0.3556,0.3539,0.3533,0.3509,0.3477,0.3587,0.36,0.3428,0.3433,0.3374,0.3503,0.3831,0.379,0.3542,0.3445,0.0303,0.0807,0.0807,0.1156,0.1659,0.1697,0.1751,0.1818,0.1795,0.1731,0.1807,0.1849,0.1752,0.1857,0.2041,0.2184,0.2264,0.2444,0.2503,0.2459,0.2119,0.1946,0.2152,0.2351,0.2485,0.2557,0.3024,0.3261,0.328,0.3727,0.397,0.4027,0.397,0.4068,0.4075,0.4029,0.4097,0.407,0.4234,0.4357,0.4383,0.4575,0.4747,0.4795,0.4868,0.4909,0.492,0.4923,0.4753,0.4227,0.4106,0.4109,0.4053,0.4075,0.4054,0.4084,0.4225,0.431,0.4336,0.4504,0.4662,0.4701,0.4859,0.5018,0.5018,0.5018,0.5059,0.5113,0.5143,0.5178,0.5246,0.5265,0.5233,0.5146,0.4794,0.4709,0.494,0.5018,0.5018,0.5012,0.4941,0.489,0.4822,0.4777,0.4757,0.4714,0.4618,0.4493,0.4531,0.4454,0.436,0.4317,0.4236,0.427,0.4267,0.4267,0.4298,0.4295,0.4177,0.4097,0.3924,0.3833,0.3819,0.3821,0.3719,0.3762,0.3792,0.3766,0.39,0.394,0.3943,0.3962,0.3927,0.377,0.3783,0.1143,0.1512,0.1563,0.1862,0.2275,0.237,0.244,0.2475,0.2503,0.2511,0.2517,0.2506,0.2514,0.2516,0.289,0.304,0.3078,0.3416,0.3559,0.3554,0.356,0.3383,0.3194,0.3276,0.3475,0.3475,0.3879,0.4074,0.413,0.4599,0.4749,0.465,0.4794,0.4816,0.4659,0.4784,0.4773,0.4749,0.477,0.4821,0.478,0.4847,0.4904,0.4882,0.4947,0.5018,0.5018,0.5015,0.4925,0.4784,0.4773,0.4843,0.4849,0.4868,0.4874,0.4876,0.4941,0.4976,0.5018,0.5018,0.5018,0.4979,0.5018,0.5045,0.5078,0.5089,0.5135,0.5284,0.5301,0.5342,0.5391,0.5413,0.5353,0.52,0.5127,0.5067,0.5023,0.5018,0.5018,0.5018,0.5012,0.4957,0.4915,0.4874,0.4876,0.4811,0.4727,0.4667,0.4629,0.4512,0.4433,0.4417,0.4382,0.4384,0.4368,0.4357,0.433,0.4322,0.4317,0.4276,0.4191,0.4051,0.4013,0.4004,0.3935,0.3924,0.3957,0.3992,0.4032,0.4054,0.404,0.4046,0.404,0.4005,0.4011,0.2157,0.2262,0.2361,0.2496,0.2659,0.2712,0.2896,0.2803,0.293,0.2915,0.2926,0.2826,0.3031,0.2817,0.3643,0.3941,0.3941,0.4469,0.4758,0.4766,0.4727,0.4479,0.3992,0.4353,0.4553,0.4588,0.4777,0.4729,0.4712,0.4882,0.4887,0.4803,0.4917,0.4942,0.4885,0.4947,0.4909,0.4887,0.4931,0.4931,0.4879,0.4906,0.4991,0.4996,0.4963,0.5018,0.5018,0.5012,0.4961,0.482,0.4922,0.4985,0.4963,0.5012,0.501,0.5004,0.501,0.5018,0.5023,0.5034,0.5042,0.505,0.5061,0.5091,0.5184,0.5249,0.5257,0.5377,0.5388,0.5407,0.5434,0.5457,0.536,0.5279,0.5233,0.5154,0.5064,0.5023,0.5018,0.5018,0.5018,0.5018,0.5018,0.5018,0.501,0.4923,0.4801,0.4731,0.4716,0.4632,0.4624,0.4621,0.4577,0.4523,0.4492,0.4457,0.4382,0.4355,0.436,0.433,0.4276,0.4197,0.4159,0.4124,0.4105,0.4073,0.4124,0.4159,0.4186,0.4205,0.4194,0.424,0.4276,0.4216,0.4197,0.2598,0.3122,0.328,0.3685,0.4232,0.4298,0.4357,0.4394,0.4416,0.4305,0.4433,0.4416,0.4387,0.4387,0.4543,0.474,0.4662,0.4898,0.5018,0.5018,0.5018,0.494,0.4737,0.49,0.4936,0.4933,0.4938,0.4958,0.4961,0.4963,0.4955,0.4961,0.5038,0.5004,0.4988,0.5027,0.501,0.4944,0.5007,0.5004,0.5018,0.5029,0.5093,0.5093,0.5096,0.5054,0.5018,0.5018,0.5004,0.4993,0.5049,0.5199,0.5023,0.5018,0.5018,0.5021,0.5023,0.5021,0.5034,0.5102,0.5151,0.5156,0.5219,0.5303,0.5361,0.5369,0.5388,0.548,0.547,0.5545,0.5608,0.5559,0.5496,0.54,0.5374,0.5281,0.5167,0.5072,0.5034,0.5018,0.5018,0.5018,0.5018,0.5018,0.5012,0.496,0.4903,0.4814,0.4798,0.4746,0.4772,0.4769,0.4703,0.4649,0.4627,0.458,0.452,0.445,0.4442,0.4398,0.4341,0.4325,0.4292,0.427,0.4251,0.4249,0.4221,0.424,0.4257,0.4287,0.4303,0.4303,0.4303,0.4303,0.4303,0.3563,0.393,0.4116,0.4402,0.4763,0.4858,0.4958,0.501,0.5018,0.5018,0.5018,0.5018,0.5018,0.5018,0.5018,0.4979,0.5018,0.5018,0.5018,0.5018,0.5018,0.5018,0.5018,0.5018,0.5018,0.5018,0.5015,0.5018,0.5018,0.5018,0.5015,0.5057,0.5249,0.5246,0.5132,0.5246,0.5249,0.5051,0.5018,0.5135,0.5362,0.544,0.5631,0.5825,0.5906,0.5902,0.5902,0.6009,0.6035,0.6054,0.6096,0.5753,0.5112,0.5018,0.5021,0.5021,0.5075,0.5091,0.5124,0.52,0.5314,0.5312,0.5377,0.5396,0.5436,0.5453,0.5513,0.5559,0.5597,0.5623,0.5677,0.5645,0.558,0.5508,0.5494,0.5401,0.5284,0.5167,0.5069,0.5037,0.5018,0.5018,0.5018,0.5112,0.5057,0.5049,0.5007,0.4931,0.4901,0.4893,0.4876,0.4852,0.4784,0.4738,0.4761,0.4712,0.4638,0.461,0.4597,0.4531,0.4423,0.446,0.4468,0.4379,0.4311,0.4295,0.4278,0.43,0.4303,0.4303,0.4303,0.4303,0.4303,0.4308,0.4306,0.4542,0.458,0.4768,0.4825,0.4841,0.4969,0.5012,0.5018,0.5018,0.5018,0.5018,0.5018,0.5018,0.5018,0.5018,0.5018,0.5018,0.5018,0.5018,0.5018,0.5018,0.5018,0.5018,0.5018,0.5096,0.5093,0.5018,0.5018,0.5018,0.5093,0.5249,0.5249,0.5595,0.5592,0.5362,0.5556,0.5634,0.5285,0.5443,0.5634,0.598,0.6054,0.6325,0.6595,0.671,0.674,0.6776,0.6899,0.7099,0.7264,0.7401,0.6708,0.5848,0.5384,0.5384,0.5435,0.5651,0.577,0.5844,0.5812,0.5895,0.573,0.5801,0.5766,0.5806,0.5835,0.588,0.5893,0.5935,0.5935,0.5863,0.5938,0.5931,0.5956,0.5921,0.5772,0.558,0.5462,0.5421,0.5118,0.5164,0.5175,0.5249,0.535,0.5241,0.514,0.5137,0.5096,0.5101,0.5049,0.5052,0.4958,0.4893,0.4866,0.4852,0.4871,0.4794,0.4731,0.4717,0.4646,0.4529,0.4561,0.455,0.4406,0.4346,0.4344,0.4327,0.4319,0.4317,0.4308,0.4325,0.4349,0.4341,0.4353,0.4319,0.472,0.4787,0.4925,0.4949,0.4949,0.501,0.5018,0.5018,0.5018,0.5018,0.5018,0.5018,0.5018,0.5018,0.5018,0.5018,0.5018,0.5018,0.5018,0.5018,0.5057,0.5096,0.5093,0.5249,0.5362,0.5518,0.5401,0.5171,0.5249,0.5479,0.5747,0.5783,0.5938,0.5899,0.5864,0.5867,0.6025,0.5928,0.6197,0.6507,0.6719,0.6874,0.6913,0.7146,0.7192,0.72,0.7241,0.7247,0.7283,0.742,0.7458,0.7368,0.7167,0.7108,0.7019,0.6879,0.6869,0.686,0.6881,0.7129,0.725,0.7336,0.7221,0.6987,0.6728,0.6558,0.6568,0.6584,0.6605,0.6605,0.6647,0.6605,0.6908,0.7136,0.7199,0.7027,0.657,0.6329,0.6102,0.5741,0.555,0.5382,0.5445,0.5556,0.5579,0.5543,0.5583,0.5532,0.5523,0.5347,0.5237,0.5115,0.4996,0.4988,0.4982,0.5002,0.4958,0.4833,0.4792,0.4741,0.4675,0.4676,0.4621,0.4523,0.4466,0.4484,0.4454,0.4379,0.4365,0.4419,0.4429,0.4446,0.444,0.4435,0.4402,0.4724,0.4809,0.4928,0.5018,0.5018,0.5018,0.5018,0.5018,0.5018,0.5018,0.5018,0.5018,0.5018,0.5018,0.5018,0.5018,0.5018,0.5018,0.5018,0.5057,0.5287,0.5479,0.555,0.5744,0.6093,0.6286,0.6131,0.5938,0.6018,0.6247,0.6398,0.6514,0.6707,0.6745,0.6556,0.6788,0.6719,0.672,0.6909,0.7305,0.7696,0.7942,0.8101,0.8101,0.8101,0.8196,0.8265,0.8397,0.8511,0.8614,0.8708,0.8785,0.8747,0.8683,0.8367,0.7745,0.7643,0.7651,0.7636,0.7714,0.7714,0.7729,0.78,0.7654,0.7394,0.7298,0.7302,0.7305,0.7305,0.7305,0.7305,0.7305,0.7482,0.7702,0.7834,0.7665,0.7353,0.7245,0.6923,0.6452,0.5966,0.5684,0.5515,0.5679,0.5859,0.5969,0.6096,0.606,0.6002,0.5885,0.5779,0.575,0.5709,0.5592,0.5553,0.5473,0.5392,0.5207,0.4969,0.4957,0.4857,0.4858,0.4786,0.4703,0.4648,0.4627,0.4591,0.4566,0.4536,0.4509,0.4553,0.4575,0.4542,0.4512,0.4492,0.487,0.4839,0.4938,0.5018,0.5018,0.5018,0.5018,0.5018,0.5018,0.5018,0.5018,0.5018,0.5018,0.5018,0.5018,0.5018,0.5018,0.5093,0.5249,0.5365,0.5822,0.6089,0.6207,0.6503,0.6775,0.6859,0.6939,0.6984,0.6784,0.6976,0.7092,0.7169,0.7591,0.7591,0.7246,0.7494,0.7579,0.7537,0.7625,0.7999,0.8547,0.9037,0.9322,0.9322,0.9322,0.9246,0.9229,0.9299,0.9456,0.9592,0.9742,0.9927,0.9985,0.999,0.9361,0.8287,0.814,0.815,0.8197,0.83,0.8468,0.8468,0.8309,0.8185,0.8053,0.8009,0.7965,0.7874,0.8006,0.8009,0.8053,0.8053,0.8141,0.8317,0.836,0.8181,0.8082,0.7983,0.7844,0.726,0.6446,0.6337,0.6544,0.668,0.7033,0.7022,0.7141,0.682,0.6752,0.6724,0.6638,0.6655,0.6595,0.6402,0.6286,0.6131,0.6012,0.5874,0.5538,0.5316,0.516,0.5043,0.4963,0.4876,0.4817,0.4762,0.4761,0.4701,0.4638,0.4624,0.4687,0.469,0.4629,0.4627,0.4594,0.5409,0.4996,0.501,0.5018,0.5018,0.5057,0.5018,0.5054,0.5096,0.5018,0.5171,0.5057,0.5096,0.5135,0.5132,0.5054,0.521,0.5553,0.5789,0.5902,0.6437,0.6687,0.6577,0.6544,0.7047,0.7319,0.7447,0.7221,0.7268,0.7535,0.7668,0.7744,0.7783,0.7744,0.7757,0.7966,0.804,0.8131,0.8675,0.9032,0.9182,0.9274,0.9305,0.9341,0.9356,0.9376,0.9512,0.9606,0.9691,0.9928,0.9966,0.9994,0.9994,0.9994,0.9985,0.9764,0.973,0.974,0.9557,0.9488,0.9462,0.9419,0.955,0.9375,0.8986,0.8784,0.8612,0.7874,0.838,0.8788,0.88,0.8775,0.9078,0.9331,0.9419,0.9157,0.8934,0.8759,0.8623,0.8352,0.7688,0.785,0.8102,0.8197,0.8283,0.8209,0.8061,0.7732,0.7576,0.7601,0.7541,0.7568,0.7497,0.7332,0.7047,0.6915,0.6663,0.6489,0.6161,0.5802,0.5715,0.5595,0.5148,0.5068,0.5007,0.4898,0.4838,0.4768,0.4728,0.4742,0.4776,0.4772,0.4698,0.4714,0.4711,0.6377,0.5518,0.5518,0.5518,0.5515,0.5518,0.5518,0.5595,0.5899,0.6093,0.6057,0.6057,0.6057,0.6018,0.6096,0.6096,0.6131,0.6325,0.644,0.6595,0.7088,0.7351,0.7433,0.7631,0.7937,0.7957,0.8212,0.8344,0.8182,0.8141,0.8322,0.8289,0.828,0.8318,0.8246,0.8408,0.8589,0.8882,0.9317,0.9667,0.9653,0.9573,0.9465,0.946,0.9465,0.9522,0.9597,0.9776,0.9847,0.999,0.9994,0.9994,0.9994,0.9994,0.999,0.9999,1.0074,1.0069,1.0013,1.0004,1.0004,0.9999,0.9999,0.982,0.9577,0.9566,0.9584,0.9282,0.9611,0.9777,0.9642,0.9687,0.9781,0.9959,1.0028,0.9901,0.959,0.9602,0.9419,0.92,0.8982,0.9104,0.9005,0.866,0.8627,0.87,0.8678,0.8542,0.8539,0.8665,0.8595,0.848,0.8369,0.8263,0.7963,0.7708,0.7331,0.7109,0.6831,0.6537,0.647,0.6218,0.5698,0.5349,0.5223,0.5112,0.4969,0.4901,0.4852,0.4871,0.4866,0.4852,0.4803,0.477,0.4792,0.7361,0.6363,0.6212,0.617,0.6131,0.617,0.6131,0.6209,0.6633,0.6865,0.6903,0.6865,0.6865,0.6903,0.6826,0.6749,0.6865,0.7057,0.7134,0.7326,0.7663,0.7935,0.8052,0.8406,0.858,0.8642,0.8724,0.8765,0.8762,0.8777,0.873,0.8779,0.8613,0.867,0.868,0.8735,0.8908,0.9213,0.9517,0.9729,0.9786,0.9658,0.9644,0.9658,0.9682,0.9677,0.9743,0.989,0.9985,0.9994,1.007,1.0104,1.0104,1.0175,1.0203,1.0236,1.0336,1.0293,1.017,1.0104,1.0075,1.0061,1.0009,0.9994,0.9979,1.0189,1.022,1.0016,1.0234,1.027,1.0289,1.0168,1.0135,1.0069,1.0104,1.0113,1.0093,1.0037,1.0025,0.9879,0.9772,0.9804,0.9574,0.8947,0.8834,0.9083,0.9182,0.9204,0.9256,0.9391,0.9201,0.8982,0.8918,0.881,0.8631,0.8335,0.7999,0.7708,0.7423,0.7199,0.706,0.6631,0.6051,0.5759,0.5583,0.5409,0.5286,0.5151,0.5015,0.4985,0.4963,0.4988,0.4963,0.4874,0.4841,0.8284,0.7629,0.7096,0.6826,0.6822,0.6826,0.6826,0.6826,0.6903,0.7015,0.7092,0.698,0.7053,0.7019,0.7096,0.7092,0.7019,0.748,0.7668,0.7936,0.8275,0.8458,0.8529,0.8595,0.8685,0.8609,0.8849,0.8905,0.8836,0.8915,0.8963,0.8982,0.8784,0.8722,0.876,0.8869,0.8995,0.923,0.9445,0.9522,0.9616,0.9635,0.9682,0.99,0.9952,0.9971,0.9971,1.0009,1.0066,1.0075,1.0213,1.0289,1.0312,1.0407,1.046,1.0488,1.0554,1.0447,1.035,1.026,1.027,1.0232,1.0123,0.9994,1.0009,1.0194,1.0217,1.017,1.0403,1.0341,1.0184,1.0042,1.0203,1.0203,1.0236,1.0312,1.0365,1.0409,1.0392,1.0466,1.045,1.0331,1.027,0.9638,0.9336,0.9572,0.9579,0.9599,0.9484,0.9536,0.9428,0.9302,0.9288,0.9228,0.9164,0.8928,0.8656,0.8259,0.7918,0.7741,0.7532,0.704,0.6478,0.635,0.6183,0.5876,0.5568,0.5308,0.5113,0.5045,0.5018,0.5018,0.5018,0.4936,0.4928,0.8551,0.8356,0.8089,0.7783,0.7437,0.7476,0.7476,0.7514,0.7859,0.8008,0.7974,0.8012,0.8012,0.7974,0.8012,0.8012,0.805,0.8203,0.8322,0.8449,0.8678,0.8792,0.8855,0.894,0.9053,0.8996,0.9098,0.9145,0.9089,0.9014,0.8976,0.8959,0.8798,0.8732,0.8774,0.8902,0.9018,0.9155,0.9338,0.9536,0.9564,0.9606,0.9639,0.9748,0.9762,0.9838,0.998,1.0127,1.0246,1.036,1.0455,1.0493,1.0466,1.0607,1.0649,1.0622,1.0697,1.0636,1.0502,1.0379,1.0265,1.0127,1.0037,0.9999,1.0023,1.0203,1.035,1.0417,1.0545,1.0494,1.0422,1.0384,1.0417,1.0355,1.0379,1.0483,1.0542,1.0641,1.0655,1.0655,1.0575,1.0516,1.0478,1.0354,1.0147,1.0008,1.0013,0.9971,0.9828,0.9734,0.9639,0.9597,0.9592,0.9554,0.9493,0.9373,0.9217,0.8826,0.8384,0.8258,0.8032,0.7488,0.7058,0.6905,0.6547,0.5973,0.5571,0.5382,0.5243,0.5116,0.5056,0.5018,0.5018,0.504,0.5059,0.8703,0.8703,0.8703,0.8432,0.8089,0.8089,0.8046,0.8127,0.847,0.8703,0.8703,0.8703,0.8703,0.8703,0.8665,0.8627,0.8589,0.8632,0.8712,0.8792,0.8901,0.9009,0.9122,0.9239,0.9343,0.9376,0.9366,0.9357,0.923,0.907,0.8948,0.8883,0.8793,0.8722,0.8751,0.8868,0.8985,0.9079,0.9362,0.9597,0.9606,0.9747,0.9856,0.9904,0.9956,1.005,1.0227,1.0355,1.045,1.0564,1.0612,1.0706,1.0735,1.0763,1.0749,1.0792,1.0801,1.0792,1.0584,1.0426,1.0222,1.0056,1.0009,1.0028,1.0118,1.0279,1.0469,1.0532,1.0731,1.0811,1.0608,1.0564,1.0556,1.0527,1.0597,1.0641,1.0773,1.0872,1.0844,1.0825,1.074,1.0664,1.0617,1.0626,1.0493,1.0289,1.0194,1.0156,1.005,0.9999,0.9914,0.989,0.99,0.9809,0.9724,0.9429,0.9133,0.8875,0.8614,0.8743,0.8526,0.7972,0.756,0.7374,0.6854,0.603,0.5689,0.5607,0.5434,0.5213,0.5183,0.5137,0.5165,0.5197,0.5175,0.8703,0.8703,0.8703,0.8665,0.8589,0.8665,0.8627,0.8585,0.8665,0.8703,0.8703,0.8703,0.8703,0.8703,0.8703,0.8703,0.8713,0.8732,0.8812,0.8959,0.9056,0.9131,0.9296,0.947,0.9639,0.9592,0.9512,0.9395,0.9322,0.9028,0.8863,0.8812,0.876,0.8751,0.8737,0.8926,0.8985,0.9061,0.9446,0.963,0.9795,1.005,1.0182,1.0234,1.0319,1.04,1.0504,1.0537,1.0664,1.0744,1.082,1.0877,1.0891,1.1023,1.1085,1.1113,1.0957,1.0797,1.0621,1.0426,1.0236,1.008,1.007,1.0127,1.0298,1.0469,1.0611,1.0655,1.0787,1.0792,1.0674,1.0598,1.0693,1.074,1.0754,1.0825,1.0953,1.1038,1.1005,1.0986,1.0934,1.0877,1.0816,1.0749,1.0706,1.0569,1.0376,1.0291,1.0249,1.0246,1.017,1.0137,1.0142,1.0061,0.9868,0.9353,0.9,0.879,0.886,0.9135,0.8957,0.8414,0.8111,0.7854,0.74,0.6748,0.6306,0.596,0.5739,0.5535,0.5364,0.5355,0.538,0.5372,0.5331,0.8703,0.8703,0.8703,0.8703,0.8703,0.8703,0.8703,0.8703,0.8703,0.8703,0.8703,0.8703,0.8703,0.8703,0.8713,0.8718,0.8732,0.8888,0.9001,0.9048,0.9235,0.9404,0.9545,0.9715,0.9828,0.9757,0.9625,0.938,0.9318,0.9011,0.8817,0.8727,0.8893,0.8916,0.8973,0.9124,0.9275,0.9446,0.9823,1.0074,1.0097,1.0355,1.0557,1.0562,1.0643,1.0804,1.0919,1.0924,1.0972,1.1058,1.1192,1.1158,1.1172,1.1287,1.1233,1.1195,1.0995,1.0731,1.0485,1.0331,1.0298,1.0236,1.0222,1.0303,1.0502,1.0569,1.0683,1.0759,1.0863,1.0858,1.0811,1.0797,1.0844,1.0844,1.0877,1.0967,1.1071,1.1127,1.1142,1.1132,1.1099,1.1075,1.1028,1.0967,1.0877,1.0801,1.0669,1.0532,1.0466,1.0456,1.046,1.0403,1.0365,1.027,1.0021,0.9717,0.9575,0.9517,0.9551,0.9662,0.9366,0.8897,0.8644,0.8456,0.7971,0.753,0.7037,0.6572,0.6176,0.5895,0.5675,0.5473,0.5457,0.5432,0.5391,0.8703,0.8703,0.8703,0.8703,0.8703,0.8703,0.8703,0.8703,0.8703,0.8703,0.8703,0.8703,0.8703,0.8722,0.8779,0.8774,0.8841,0.903,0.9178,0.9211,0.9451,0.9606,0.9771,0.9852,0.989,0.9771,0.953,0.9263,0.919,0.8869,0.8779,0.8869,0.9183,0.9407,0.9478,0.9579,0.9663,0.9937,1.0316,1.0621,1.0714,1.0938,1.1189,1.124,1.132,1.1485,1.1537,1.1548,1.1583,1.1697,1.1731,1.1731,1.1736,1.1683,1.1551,1.1405,1.0901,1.0607,1.0348,1.0327,1.0374,1.0499,1.0428,1.0485,1.0631,1.0697,1.082,1.0929,1.0981,1.099,1.099,1.0986,1.0981,1.0986,1.1014,1.1104,1.1127,1.1184,1.1194,1.1194,1.1194,1.1194,1.1194,1.1179,1.1109,1.1038,1.0962,1.082,1.0679,1.065,1.0631,1.0575,1.0559,1.0469,1.0398,1.0265,1.0159,1.0222,1.0184,1.0146,0.9864,0.9445,0.9233,0.8882,0.8296,0.7822,0.7647,0.7244,0.6697,0.6192,0.5834,0.5637,0.5542,0.5477,0.5461,0.8703,0.8703,0.8703,0.8703,0.8703,0.8703,0.8703,0.8703,0.8703,0.8703,0.8703,0.8703,0.8727,0.8765,0.8926,0.8971,0.9032,0.9206,0.9366,0.9517,0.9625,0.9781,0.9838,0.9928,0.9786,0.9611,0.9357,0.9141,0.9025,0.8878,0.8869,0.9182,0.9656,1.0023,1.0196,1.0253,1.0309,1.0578,1.0945,1.1146,1.1247,1.1775,1.1895,1.1989,1.2141,1.2374,1.2458,1.2474,1.2533,1.2613,1.2662,1.271,1.2662,1.2516,1.2181,1.1601,1.0835,1.0543,1.0341,1.0372,1.0545,1.0702,1.0697,1.0754,1.083,1.0901,1.0986,1.1071,1.1127,1.1151,1.1165,1.1156,1.1151,1.1151,1.1151,1.1179,1.1179,1.1194,1.1194,1.1194,1.1194,1.1194,1.1194,1.1194,1.1194,1.1156,1.108,1.1033,1.0896,1.0787,1.0764,1.0735,1.0674,1.0659,1.0597,1.0499,1.0428,1.0403,1.046,1.0405,1.015,0.9985,0.9772,0.9315,0.8557,0.8155,0.8182,0.7749,0.7126,0.6612,0.6151,0.5838,0.5695,0.564,0.564,0.8703,0.8703,0.8703,0.8703,0.8703,0.8703,0.8703,0.8703,0.8703,0.8703,0.8703,0.8703,0.8789,0.8935,0.8962,0.9075,0.923,0.939,0.9507,0.9625,0.9719,0.9776,0.9767,0.9724,0.9601,0.938,0.9188,0.9105,0.9048,0.893,0.9428,0.993,1.0207,1.063,1.0987,1.1147,1.1204,1.1303,1.1666,1.1647,1.1785,1.2194,1.2341,1.2438,1.2654,1.2817,1.2839,1.285,1.2856,1.2829,1.2797,1.2807,1.2759,1.2694,1.2427,1.176,1.1162,1.0721,1.0566,1.05,1.0659,1.092,1.0986,1.1038,1.1094,1.1099,1.1118,1.1165,1.1194,1.1194,1.1194,1.1194,1.1194,1.1194,1.1194,1.1194,1.1194,1.1194,1.1194,1.1194,1.1194,1.1194,1.1194,1.1194,1.1194,1.1194,1.1179,1.1142,1.1094,1.0976,1.092,1.0896,1.0858,1.0806,1.0735,1.0679,1.0608,1.0551,1.0627,1.0655,1.051,1.0376,1.0228,0.9853,0.9223,0.8984,0.8886,0.8255,0.7365,0.6979,0.6555,0.621,0.5908,0.5788,0.5694,0.916,0.916,0.9155,0.916,0.916,0.9198,0.9198,0.9122,0.8818,0.8703,0.8713,0.8803,0.8902,0.9034,0.9159,0.9315,0.9423,0.9663,0.9781,0.98,0.9852,0.97,0.962,0.954,0.9348,0.9219,0.915,0.9162,0.93,0.9717,1.0187,1.0512,1.0753,1.123,1.1657,1.1881,1.2209,1.2229,1.2276,1.2181,1.2291,1.2517,1.2654,1.2755,1.2999,1.3095,1.3117,1.3123,1.3064,1.3093,1.3151,1.3236,1.3155,1.2998,1.2614,1.197,1.1402,1.1336,1.1339,1.1171,1.1209,1.1235,1.1312,1.1253,1.1224,1.117,1.1175,1.1194,1.1194,1.1194,1.1194,1.1194,1.1194,1.1194,1.1194,1.1194,1.1194,1.1194,1.1194,1.1194,1.1194,1.1194,1.1194,1.1194,1.1194,1.1194,1.1194,1.1179,1.1165,1.1123,1.109,1.1075,1.1047,1.1009,1.0934,1.0877,1.0853,1.0839,1.0891,1.0891,1.0806,1.0726,1.0538,1.0348,1.0049,0.9688,0.9242,0.836,0.7584,0.7156,0.6734,0.6284,0.5989,0.5824,0.5768,0.9884,0.9841,0.9884,0.9846,0.9884,0.9846,0.9846,0.9809,0.916,0.8818,0.8894,0.9038,0.9178,0.9343,0.9558,0.9713,0.9856,1.0005,1.0154,1.0053,0.9966,0.9859,0.9785,0.9521,0.9471,0.9221,0.9277,0.9693,1.0031,1.037,1.073,1.1098,1.1575,1.1989,1.2318,1.2599,1.2998,1.3427,1.312,1.2853,1.2871,1.3021,1.3253,1.3377,1.3566,1.3738,1.3686,1.3668,1.3604,1.3695,1.3661,1.377,1.3525,1.3193,1.274,1.2366,1.1849,1.1849,1.1943,1.1817,1.1748,1.1761,1.1785,1.1443,1.1292,1.1194,1.1194,1.1194,1.1194,1.1194,1.1194,1.1194,1.1194,1.1194,1.1194,1.1194,1.1194,1.1194,1.1194,1.1194,1.1194,1.1194,1.1194,1.1194,1.1194,1.1194,1.1194,1.1194,1.1212,1.1212,1.1227,1.1222,1.1156,1.1118,1.1113,1.1075,1.1123,1.1137,1.1127,1.1113,1.1014,1.0929,1.0853,1.0683,1.0473,0.989,0.9329,0.8648,0.7959,0.7214,0.6752,0.6332,0.6048,0.5899,0.5863,0.9884,0.9884,0.9884,0.9884,0.9884,0.9884,0.9922,0.9884,0.969,0.9657,0.9661,0.986,0.9984,1.0049,1.0155,1.0351,1.0573,1.0492,1.0577,1.061,1.0484,1.0311,1.0325,1.0141,0.9922,0.9919,1.0122,1.0517,1.0867,1.1125,1.1337,1.173,1.218,1.2528,1.3173,1.3476,1.3773,1.437,1.422,1.4002,1.413,1.4396,1.4639,1.4663,1.4774,1.4754,1.4691,1.4449,1.434,1.4263,1.3789,1.365,1.3558,1.3222,1.3036,1.2903,1.2461,1.2473,1.2488,1.2402,1.2131,1.1951,1.1785,1.1487,1.1292,1.1243,1.1194,1.1194,1.1194,1.1194,1.1194,1.1194,1.1194,1.1194,1.1194,1.1194,1.1194,1.1194,1.1194,1.1194,1.1194,1.1194,1.1194,1.1194,1.1194,1.1194,1.1194,1.1203,1.1246,1.1264,1.1307,1.1293,1.1212,1.1184,1.1194,1.1194,1.1194,1.1194,1.1165,1.1175,1.1198,1.1109,1.1009,1.1014,1.0775,1.0062,0.9578,0.9332,0.855,0.7411,0.6851,0.6452,0.6188,0.6053,0.6029,1.0438,1.0443,1.0443,1.0594,1.0743,1.0556,1.0588,1.0812,1.085,1.0915,1.0904,1.0673,1.0589,1.0906,1.1097,1.1158,1.1352,1.1149,1.0884,1.0872,1.1021,1.0842,1.0796,1.0861,1.0875,1.0873,1.1183,1.1518,1.1757,1.2218,1.256,1.2772,1.2954,1.3421,1.4153,1.4188,1.4482,1.5103,1.5151,1.5276,1.5318,1.5282,1.4993,1.4984,1.509,1.5172,1.5064,1.4723,1.4455,1.4127,1.3565,1.3371,1.3318,1.33,1.3303,1.326,1.3079,1.3065,1.3164,1.2922,1.248,1.2292,1.1932,1.1683,1.1292,1.1194,1.1194,1.1194,1.1194,1.1194,1.1194,1.1194,1.1194,1.1194,1.1194,1.1194,1.1194,1.1194,1.1194,1.1194,1.1194,1.1194,1.1194,1.1194,1.1222,1.1368,1.1345,1.1411,1.142,1.1392,1.1411,1.1397,1.134,1.1236,1.1194,1.1194,1.1194,1.1194,1.1241,1.1217,1.1231,1.1208,1.117,1.1121,1.08,0.9998,0.9602,0.9276,0.8324,0.697,0.6717,0.6606,0.6378,0.6214,0.6211,1.126,1.1292,1.1335,1.1632,1.2003,1.1558,1.1658,1.2098,1.2173,1.2337,1.2505,1.1603,1.1496,1.1881,1.2117,1.2111,1.2005,1.1692,1.1297,1.126,1.1331,1.1585,1.1735,1.1759,1.1991,1.2113,1.2297,1.2449,1.2574,1.3134,1.3636,1.3935,1.4279,1.4741,1.4783,1.4901,1.5144,1.565,1.5899,1.6147,1.594,1.5658,1.5305,1.5048,1.4943,1.4901,1.4908,1.4657,1.437,1.3903,1.3479,1.3379,1.3405,1.3501,1.3616,1.3579,1.3626,1.3806,1.3933,1.3482,1.3062,1.2705,1.2301,1.1829,1.1389,1.1194,1.1194,1.1194,1.1194,1.1194,1.1194,1.1194,1.1194,1.1194,1.1194,1.1198,1.1198,1.1203,1.1203,1.1208,1.1212,1.1212,1.125,1.1246,1.134,1.1487,1.1595,1.168,1.1718,1.1657,1.1628,1.159,1.1534,1.1416,1.1321,1.1316,1.1359,1.1397,1.1444,1.1345,1.1283,1.1321,1.134,1.1281,1.0794,1.0216,0.9406,0.8913,0.7806,0.6869,0.6578,0.6544,0.6454,0.6347,0.6385,1.2114,1.2556,1.2562,1.2636,1.2673,1.2569,1.2803,1.3109,1.313,1.3303,1.3563,1.3727,1.3642,1.3487,1.2735,1.2593,1.2772,1.2376,1.2354,1.2401,1.2331,1.2604,1.2871,1.302,1.3525,1.361,1.3565,1.3669,1.3666,1.4185,1.4531,1.4566,1.4615,1.5033,1.5492,1.5609,1.5775,1.6196,1.6402,1.6525,1.6574,1.6409,1.6402,1.6319,1.6319,1.5989,1.5575,1.4985,1.4506,1.4039,1.3685,1.3592,1.3652,1.3767,1.3888,1.3984,1.4026,1.4105,1.4076,1.3688,1.3258,1.278,1.2322,1.178,1.1438,1.1194,1.1194,1.1194,1.1194,1.1194,1.1194,1.1194,1.1194,1.1194,1.1194,1.1212,1.1227,1.1236,1.1246,1.126,1.1274,1.1345,1.1458,1.1482,1.1548,1.1676,1.1761,1.1841,1.185,1.1874,1.1855,1.1813,1.1765,1.1737,1.1699,1.1628,1.1642,1.1666,1.1657,1.1576,1.1524,1.1505,1.1465,1.1469,1.1266,1.0807,0.9954,0.9017,0.8256,0.7491,0.6745,0.6473,0.6448,0.643,0.6518]},{"header":{"parameterUnit":"m.s-1","parameterCategory":1,"la1":31.0,"la2":29.5877,"lo1":-88.7671,"lo2":-86.6584,"dy":0.0162,"dx":0.0185,"nx":115,"ny":88,"refTime":"2026-03-10T12:00:00:Z","depth":0,"parameterNumber":3,"parameterNumberName":"V-component_of_WINDS"},"data":[0.0,0.0,0.0,0.0,0.0,0.0,0.0,0.0,0.0,0.0,0.0,0.0,0.0,0.0,0.0,0.0,0.0,0.0,0.0,0.0,0.0,0.0,0.0,0.0,0.0,0.0,0.0,0.0,0.0,0.0,0.0,0.0,0.0,0.0,0.0,0.0,0.0,0.0,0.0,0.0,0.0,0.0,0.0,0.0,0.0,0.0,0.0,0.0,0.0,0.0,0.0,0.0,0.0,0.0,0.0,0.0,0.0,0.0,0.0,0.0,0.0,0.0,0.0,0.0,0.0,0.0,0.0,0.0,0.0,0.0,0.0,0.0,0.0,0.0,0.0,0.0,0.0,0.0,0.0,0.0,0.0,0.0,0.0,0.0,0.0,0.0,0.0,0.0,0.0,0.0,0.0,0.0,0.0,0.0,0.0,0.0,0.0,0.0,0.0,0.0,0.0,0.0,0.0,0.0,0.0,0.0,0.0,0.0,0.0,0.0,0.0,0.0,0.0,0.0,0.0,0.0,0.0,0.0,0.0,0.0,0.0,0.0,0.0,0.0,0.0,0.0,0.0,0.0,0.0,0.0,0.0,0.0,0.0,0.0,0.0,0.0,0.0,0.0,0.0,0.0,0.0,0.0,0.0,0.0,0.0,0.0,0.0,0.0,0.0,0.0,0.0,0.0,0.0,0.0,0.0,0.0,0.0,0.0,0.0,0.0,0.0,0.0,0.0,0.0,0.0,0.0,0.0,0.0,0.0,0.0,0.0,0.0,0.0,0.0,0.0,0.0,0.0,0.0,0.0,0.0,0.0,0.0,0.0,0.0,0.0,0.0,0.0,0.0,0.0,0.0,0.0,0.0,0.0,0.0,0.0,0.0,0.0,0.0,0.0,0.0,0.0,0.0,0.0,0.0,0.0,0.0,0.0,0.0,0.0,0.0,0.0,0.0,0.0,0.0,0.0,0.0,0.0,0.0,0.0,0.0,0.0,0.0,0.0,0.0,0.0,0.0,0.0,0.0,0.0,0.0,0.0,0.0,0.0,0.0,0.0,0.0,0.0,0.0,0.0,0.0,0.0,0.0,0.0,0.0,0.0,0.0,0.0,0.0,0.0,0.0,0.0,0.0,0.0,0.0,0.0,0.0,0.0,0.0,0.0,0.0,0.0,0.0,0.0,0.0,0.0,0.0,0.0,0.0,0.0,0.0,0.0,0.0,0.0,0.0,0.0,0.0,0.0,0.0,0.0,0.0,0.0,0.0,0.0,0.0,0.0,0.0,0.0,0.0,0.0,0.0,0.0,0.0,0.0,0.0,0.0,0.0,0.0,0.0,0.0,0.0,0.0,0.0,0.0,0.0,0.0,0.0,0.0,0.0,0.0,0.0,0.0,0.0,0.0,0.0,0.0,0.0,0.0,0.0,0.0,0.0,0.0,0.0,0.0,0.0,0.0,0.0,0.0,0.0,0.0,0.0,0.0,0.0,0.0,0.0,0.0,0.0,0.0,0.0,0.0,0.0,0.0,0.0,0.0,0.0,0.0,0.0,0.0,0.0,0.0,0.0,0.0,0.0,0.0,0.0,0.0,0.0,0.0,0.0,0.0,0.0,0.0,0.0,0.0,0.0,0.0,0.0,0.0,0.0,0.0,0.0,0.0,0.0,0.0,0.0,0.0,0.0,0.0,0.0,0.0,0.0,0.0,0.0,0.0,0.0,0.0,0.0,0.0,0.0,0.0,0.0,0.0,0.0,0.0,0.0,0.0,0.0,0.0,0.0,0.0,0.0,0.0,0.0,0.0,0.0,0.0,0.0,0.0,0.0,0.0,0.0,0.0,0.0,0.0,0.0,0.0,0.0,0.0,0.0,0.0,0.0,0.0,0.0,0.0,0.0,0.0,0.0,0.0,0.0,0.0,0.0,0.0,0.0,0.0,0.0,0.0,0.0,0.0,0.0,0.0,0.0,0.0,0.0,0.0,0.0,0.0,0.0,0.0,0.0,0.0,0.0,0.0,0.0,0.0,0.0,0.0,0.0,0.0,0.0,0.0,0.0,0.0,0.0,0.0,0.0,0.0,0.0,0.0,0.0,0.0,0.0,0.0,0.0,0.0,0.0,0.0,0.0,0.0,0.0,0.0,0.0,0.0,0.0,0.0,0.0,0.0,0.0,0.0,0.0,0.0,0.0,0.0,0.0,0.0,0.0,0.0,0.0,0.0,0.0,0.0,0.0,0.0,0.0,0.0,0.0,0.0,0.0,0.0,0.0,0.0,0.0,0.0,0.0,0.0,0.0,0.0,0.0,0.0,0.0,0.0,0.0,0.0,0.0,0.0,0.0,0.0,0.0,0.0,0.0,0.0,0.0,0.0,0.0,0.0,0.0,0.0,0.0,0.0,0.0,0.0,0.0,0.0,0.0,0.0,0.0,0.0,0.0,0.0,0.0,0.0,0.0,0.0,0.0,0.0,0.0,0.0,0.0,0.0,0.0,0.0,0.0,0.0,0.0,0.0,0.0,0.0,0.0,0.0,0.0,0.0,0.0,0.0,0.0,0.0,0.0,0.0,0.0,0.0,0.0,0.0,0.0,0.0,0.0,0.0,0.0,0.0,0.0,0.0,0.0,0.0,0.0,0.0,0.0,0.0,0.0,0.0,0.0,0.0,0.0,0.0,0.0,0.0,0.0,0.0,0.0,0.0,0.0,0.0,0.0,0.0,0.0,0.0,0.0,0.0,0.0,0.0,0.0,0.0,0.0,0.0,0.0,0.0,0.0,0.0,0.0,0.0,0.0,0.0,0.0,0.0,0.0,0.0,0.0,0.0,0.0,0.0,0.0,0.0,0.0,0.0,0.0,0.0,0.0,0.0,0.0,0.0,0.0,0.0,0.0,0.0,0.0,0.0,0.0,0.0,0.0,0.0,0.0,0.0,0.0,0.0,0.0,0.0,0.0,0.0,0.0,0.0,0.0,0.0,0.0,0.0,0.0,0.0,0.0,0.0,0.0,0.0,0.0,0.0,0.0,0.0,0.0,0.0,0.0,0.0,0.0,0.0,0.0,0.0,0.0,0.0,0.0,0.0,0.0,0.0,0.0,0.0,0.0,0.0,0.0,0.0,0.0,0.0,0.0,0.0,0.0,0.0,0.0,0.0,0.0,0.0,0.0,0.0,0.0,0.0,0.0,0.0,0.0,0.0,0.0,0.0,0.0,0.0,0.0,0.0,0.0,0.0,0.0,0.0,0.0,0.0,0.0,0.0,0.0,0.0,0.0,0.0,0.0,0.0,0.0,0.0,0.0,0.0,0.0,0.0,0.0,0.0,0.0,0.0,0.0,0.0,0.0,0.0,0.0,0.0,0.0,0.0,0.0,0.0,0.0,0.0,0.0,0.0,0.0,0.0,0.0,0.0,0.0,0.0,0.0,0.0,0.0,0.0,0.0,0.0,0.0,0.0,0.0,0.0,0.0,0.0,0.0,0.0,0.0,0.0,0.0,0.0,0.0,0.0,0.0,0.0,0.0,0.0,0.0,0.0,0.0,0.0,0.0,0.0,0.0,0.0,0.0,0.0,0.0,0.0,0.0,0.0,0.0,0.0,0.0,0.0,0.0,0.0,0.0,0.0,0.0,0.0,0.0,0.0,0.0,0.0,0.0,0.0,0.0,0.0,0.0,0.0,0.0,0.0,0.0,0.0,0.0,0.0,0.0,0.0,0.0,0.0,0.0,0.0,0.0,0.0,0.0,0.0,0.0,0.0,0.0,0.0,0.0,0.0,0.0,0.0,0.0,0.0,0.0,0.0,0.0,0.0,0.0,0.0,0.0,0.0,0.0,0.0,0.0,0.0,0.0,0.0,0.0,0.0,0.0,0.0,0.0,0.0,0.0,0.0,0.0,0.0,0.0,0.0,0.0,0.0,0.0,0.0,0.0,0.0,0.0,0.0,0.0,0.0,0.0,0.0,0.0,0.0,0.0,0.0,0.0,0.0,0.0,0.0,0.0,0.0,0.0,0.0,0.0,0.0,0.0,0.0,0.0,0.0,0.0,0.0,0.0,0.0,0.0,0.0,0.0,0.0,0.0,0.0,0.0,0.0,0.0,0.0,0.0,0.0,0.0,0.0,0.0,0.0,0.0,0.0,0.0,0.0,0.0,0.0,0.0,0.0,0.0,0.0,0.0,0.0,0.0,0.0,0.0,0.0,0.0,0.0,0.0,0.0,0.0,0.0,0.0,0.0,0.0,0.0,0.0,0.0,0.0,0.0,0.0,0.0,0.0,0.0,0.0,0.0,0.0,0.0,0.0,0.1688,0.0,0.0,0.0,0.0,0.0,0.0,0.0,0.0,0.0,0.0,0.0,0.0,0.0,0.0,0.0,0.0,0.0,0.0,0.0,0.0,0.0,0.0,0.0,0.0,0.0,0.0,0.0,0.0,0.0,0.0,0.0,0.0,0.0,0.0,0.0,0.0,0.0,0.0,0.0,0.0,0.0,0.0,0.0,0.0,0.0,0.0,0.0,0.0,0.0,0.0,0.0,0.0,0.0,0.0,0.0,0.0,0.0,0.0,0.0,0.0,0.0,0.0,0.0,0.0,0.0,0.0,0.0,0.0,0.0,0.0,0.0,0.0,0.0,0.0,0.0,0.0,0.0,0.0,0.0,0.0,0.0,0.0,0.0,0.0,0.0,0.0,0.0,0.0,0.0,0.0,0.0,0.0,0.0,0.0,0.0,0.0,0.0,0.0,0.0,0.0,0.0,0.0,0.0,0.0,0.0,0.0,0.0,0.0,0.0,0.0,0.3444,0.3105,0.285,0.2371,0.1704,0.0,0.0,0.0,0.0,0.0,0.0,0.0,0.0,0.0,0.0,0.0,0.0,0.0,0.0,0.0,0.0,0.0,0.0,0.0,0.0,0.0,0.0,0.0,0.0,0.0,0.0,0.0,0.0,0.0,0.0,0.0,0.0,0.0,0.0,0.0,0.0,0.0,0.0,0.0,0.0,0.0,0.0,0.0,0.0,0.0,0.0,0.0,0.0,0.0,0.0,0.0,0.0,0.0,0.0,0.0,0.0,0.0,0.0,0.0,0.0,0.0,0.0,0.0,0.0,0.0,0.0,0.0,0.0,0.0,0.0,0.0,0.0,0.0,0.0,0.0,0.0,0.0,0.0,0.0,0.0,0.0,0.0,0.0,0.0,0.0,0.0,0.0,0.0,0.0,0.0,0.0,0.0,0.0,0.0,0.0,0.0,0.0,0.0,0.0,0.0,0.0,0.0,0.0,0.0,0.0,0.0,0.0,0.0,0.0,0.0,0.0,0.0,0.2907,0.2516,0.1689,0.0,0.0,0.0,0.0,0.0,0.0,0.0,0.0,0.0,0.0,0.0,0.0,0.0,0.0,0.0,0.0,0.0,0.0,0.0,0.0,0.0,0.0,0.0,0.0,0.0,0.0,0.0,0.0,0.0,0.0,0.0,0.0,0.0,0.0,0.0,0.0,0.0,0.0,0.0,0.0,0.0,0.0,0.0,0.0,0.0,0.0,0.0,0.0,0.0,0.0,0.0,0.0,0.0,0.0,0.0,0.0,0.0,0.0,0.0,0.0,0.0,0.0,0.0,0.0,0.0,0.0,0.0,0.0,0.0,0.0,0.0,0.0,0.0,0.0,0.0,0.0,0.0,0.0,0.0,0.0,0.0,0.0,0.0,0.0,0.0,0.0,0.0,0.0,0.0,0.0,0.0,0.0,0.0,0.0,0.0,0.0,0.0,0.0,0.0,0.0,0.0,0.0,0.0,0.0,0.0,0.0,0.0,0.0,0.0,0.0,0.3585,0.353,0.3499,0.0,0.1846,0.0,0.0,0.0,0.0,0.0,0.0,0.0,0.0,0.0,0.0,0.0,0.0,0.0,0.0,0.0,0.0,0.0,0.0,0.0,0.0,0.0,0.0,0.0,0.0,0.0,0.0,0.0,0.0,0.0,0.0,0.0,0.0,0.0,0.0,0.0,0.0,0.0,0.0,0.0,0.0,0.0,0.0,0.0,0.0,0.0,0.0,0.0,0.0,0.0,0.0,0.0,0.0,0.0,0.0,0.0,0.0,0.0,0.0,0.0,0.0,0.0,0.0,0.0,0.0,0.0,0.0,0.0,0.0,0.0,0.0,0.0,0.0,0.0,0.0,0.0,0.0,0.0,0.0,0.0,0.0,0.0,0.0,0.0,0.0,0.0,0.0,0.0,0.0,0.0,0.0,0.0,0.0,0.0,0.0,0.0,0.0,0.0,0.0,0.0,0.0,0.0,0.0,0.0,0.0,0.0,0.0,0.0,0.0,0.0,0.0,0.3663,0.3613,0.3176,0.2542,0.0,0.0,0.0,0.0,0.0,0.0,0.0,0.0,0.0,0.0,0.0,0.0,0.0,0.0,0.0,0.0,0.0,0.0,0.0,0.0,0.0,0.0,0.0,0.0,0.0,0.0,0.0,0.0,0.0,0.0,0.0,0.0,0.0,0.0,0.0,0.0,0.0,0.0,0.0,0.0,0.0,0.0,0.0,0.0,0.0,0.0,0.0,0.0,0.0,0.0,0.0,0.0,0.0,0.0,0.0,0.0,0.0,0.0,0.0,0.0,0.0,0.0,0.0,0.0,0.0,0.0,0.0,0.0,0.0,0.0,0.0,0.0,0.0,0.0,0.0,0.0,0.0,0.0,0.0,0.0,0.0,0.0,0.0,0.0,0.0,0.0,0.0,0.0,0.0,0.0,0.0,0.0,0.0,0.0,0.0,0.0,0.0,0.0,0.0,0.0,0.0,0.0,0.0,0.0,0.0,0.0,0.0,0.0,0.0,0.0,0.3827,0.3633,0.3347,0.2852,0.2184,0.1434,0.0,0.0,0.0,0.0,0.0,0.0,0.0,0.0,0.0,0.0,0.0,0.0,0.0,0.0,0.0,0.0,0.0,0.0,0.0,0.0,0.0,0.0,0.0,0.0,0.0,0.0,0.0,0.0,0.0,0.0,0.0,0.0,0.0,0.0,0.0,0.0,0.0,0.0,0.0,0.0,0.0,0.0,0.0,0.0,0.0,0.0,0.0,0.0,0.0,0.0,0.0,0.0,0.0,0.0,0.0,0.0,0.0,0.0,0.0,0.0,0.0,0.0,0.0,0.0,0.0,0.0,0.0,0.0,0.0,0.0,0.0,0.0,0.0,0.0,0.0,0.0,0.0,0.0,0.0,0.0,0.0,0.0,0.0,0.0,0.0,0.0,0.0,0.0,0.0,0.0,0.0,0.0,0.0,0.0,0.0,0.0,0.0,0.0,0.0,0.0,0.0,0.0,0.0,0.0,0.0,0.0,0.0,0.0,0.0,0.3747,0.333,0.2792,0.27,0.2132,0.0,0.0,0.0,0.0,0.0,0.0,0.0,0.0,0.0,0.0,0.0,0.0,0.0,0.0,0.0,0.0,0.0,0.0,0.0,0.0,0.0,0.0,0.0,0.0,0.0,0.0,0.0,0.0,0.0,0.0,0.0,0.0,0.0,0.0,0.0,0.0,0.0,0.0,0.0,0.0,0.0,0.0,0.0,0.0,0.0,0.0,0.0,0.0,0.0,0.0,0.0,0.0,0.0,0.0,0.0,0.0,0.0,0.0,0.0,0.0,0.0,0.0,0.0,0.0,0.0,0.0,0.0,0.0,0.0,0.0,0.0,0.0,0.0,0.0,0.0,0.0,0.0,0.0,0.0,0.0,0.0,0.0,0.0,0.0,0.0,0.0,0.0,0.0,0.0,0.0,0.0,0.0,0.0,0.0,0.0,0.0,0.0,0.0,0.0,0.0,0.0,0.0,0.0,0.0,0.0,0.0,0.0,0.0,0.0,0.4045,0.338,0.2907,0.2676,0.1956,0.1371,0.0,0.0,0.0,0.0,0.0,0.0,0.0,0.0,0.0,0.0,0.0,0.0,0.0,0.0,0.0,0.0,0.0,0.0,0.0,0.0,0.0,0.0,0.0,0.0,0.0,0.0,0.0,0.0,0.0,0.0,0.0,0.0,0.0,0.0,0.0,0.0,0.0,0.0,0.0,0.0,0.0,0.0,0.0,0.0,0.0,0.0,0.0,0.0,0.0,0.0,0.0,0.0,0.0,0.0,0.0,0.0,0.0,0.0,0.0,0.0,0.0,0.0,0.0,0.0,0.0,0.0,0.0,0.0,0.0,0.0,0.0,0.0,0.0,0.0,0.0,0.0,0.0,0.0,0.0,0.0,0.0,0.0,0.0,0.0,0.0,0.0,0.0,0.0,0.0,0.0,0.0,0.0,0.0,0.0,0.0,0.0,0.0,0.0,0.0,0.0,0.0,0.0,0.0,0.0,0.0,0.0,0.0,0.0,0.0,0.3962,0.0,0.2847,0.0,0.1667,0.1122,0.0,0.0,0.0,0.0,0.0,0.0,0.0,0.0,0.0,0.0,0.0,0.0,0.0,0.0,0.0,0.0,0.0,0.0,0.0,0.0,0.0,0.0,0.0,0.0,0.0,0.0,0.0,0.0,0.0,0.0,0.0,0.0,0.0,0.0,0.0,0.0,0.0,0.0,0.0,0.0,0.0,0.0,0.0,0.0,0.0,0.0,0.0,0.0,0.0,0.0,0.0,0.0,0.0,0.0,0.0,0.0,0.0,0.0,0.0,0.0,0.0,0.0,0.0,0.0,0.0,0.0,0.0,0.0,0.0,0.0,0.0,0.0,0.0,0.0,0.0,0.0,0.0,0.0,0.0,0.0,0.0,0.0,0.0,0.0,0.0,0.0,0.0,0.0,0.0,0.0,0.0,0.0,0.0,0.0,0.0,0.0,0.0,0.0,0.0,0.0,0.0,0.0,0.0,0.0,0.0,0.0,0.0,0.0,0.5296,0.3849,0.3766,0.3155,0.1873,0.1919,0.141,0.0,0.0,0.0,0.0,0.0,0.0,0.0,0.0,0.0,0.0,0.0,0.0,0.0,0.0,0.0,0.0,0.0,0.0,0.0,0.0,0.0,0.0,0.0,0.0,0.0,0.0,0.0,0.0,0.0,0.0,0.0,0.0,0.0,0.0,0.0,0.0,0.0,0.0,0.0,0.0,0.0,0.0,0.0,0.0,0.0,0.0,0.0,0.0,0.0,0.0,0.0,0.0,0.0,0.0,0.0,0.0,0.0,0.0,0.0,0.0,0.0,0.0,0.0,0.0,0.0,0.0,0.0,0.0,0.0,0.0,0.0,0.0,0.0,0.0,0.0,0.0,0.0,0.0,0.0,0.0,0.0,0.0,0.0,0.0,0.0,0.0,0.0,0.0,0.0,0.0,0.0,0.0,0.0,0.0,0.0,0.0,0.0,0.0,0.0,0.0,0.0,0.0,0.0,0.0,0.0,0.0,0.0,0.0,0.0,0.3849,0.338,0.313,0.2989,0.1951,0.1438,0.0,0.0,0.0,0.0,0.0,0.0,0.0,0.0,0.0,0.0,0.0,0.0,0.0,0.0,0.0,0.0,0.0,0.0,0.0,0.0,0.0,0.0,0.0,0.0,0.0,0.0,0.0,0.0,0.0,0.0,0.0,0.0,0.0,0.0,0.0,0.0,0.0,0.0,0.0,0.0,0.0,0.0,0.0,0.0,0.0,0.0,0.0,0.0,0.0,0.0,0.0,0.0,0.0,0.0,0.0,0.0,0.0,0.0,0.0,0.0,0.0,0.0,0.0,0.0,0.0,0.0,0.0,0.0,0.0,0.0,0.0,0.0,0.0,0.0,0.0,0.0,0.0,0.0,0.0,0.0,0.0,0.0,0.0,0.0,0.0,0.0,0.0,0.0,0.0,0.0,0.0,0.0,0.0,0.0,0.0,0.0,0.0,0.0,0.0,0.0,0.0,0.0,0.0,0.0,0.0,0.0,0.0,0.0,0.0,0.4343,0.3713,0.3411,0.3416,0.2221,0.1674,0.1863,0.0,0.0,0.0,0.0,0.0,0.0,0.0,0.0,0.0,0.0,0.0,0.0,0.0,0.0,0.0,0.0,0.0,0.0,0.0,0.0,0.0,0.0,0.0,0.0,0.0,0.0,0.0,0.0,0.0,0.0,0.0,0.0,0.0,0.0,0.0,0.0,0.0,0.0,0.0,0.0,0.0,0.0,0.0,0.0,0.0,0.0,0.0,0.0,0.0,0.0,0.0,0.0,0.0,0.0,0.0,0.0,0.0,0.0,0.0,0.0,0.0,0.0,0.0,0.0,0.0,0.0,0.0,0.0,0.0,0.0,0.0,0.0,0.0,0.0,0.0,0.0,0.0,0.0,0.0,0.0,0.0,0.0,0.0,0.0,0.0,0.0,0.0,0.0,0.0,0.0,0.0,0.0,0.0,0.0,0.0,0.0,0.0,0.0,0.0,0.0,0.0,0.0,0.0,0.0,0.0,0.0,0.0,0.0,0.5132,0.4546,0.3858,0.3186,0.2659,0.2149,0.0,0.0,0.0,0.0,0.0,0.0,0.0,0.0,0.0,0.0,0.0,0.0,0.0,0.0,0.0,0.0,0.0,0.0,0.0,0.0,0.0,0.0,0.0,0.0,0.0,0.0,0.0,0.0,0.0,0.0,0.0,0.0,0.0,0.0,0.0,0.0,0.0,0.0,0.0,0.0,0.0,0.0,0.0,0.0,0.0,0.0,0.0,0.0,0.0,0.0,0.0,0.0,0.0,0.0,0.0,0.0,0.0,0.0,0.0,0.0,0.0,0.0,0.0,0.0,0.0,0.0,0.0,0.0,0.0,0.0,0.0,0.0,0.0,0.0,0.0,0.0,0.0,0.0,0.0,0.0,0.0,0.0,0.0,0.0,0.0,0.0,0.0,0.0,0.0,0.0,0.0,0.0,0.0,0.0,0.0,0.0,0.0,0.0,0.0,0.0,0.0,0.0,0.0,0.0,0.0,0.0,0.0,0.0,0.0,0.5406,0.4759,0.4215,0.3771,0.2941,0.2365,0.0,0.0,0.0,0.0,0.0,0.0,0.0,0.0,0.0,0.0,0.0,0.0,0.0,0.0,0.0,0.0,0.0,0.0,0.0,0.0,0.0,0.0,0.0,0.0,0.0,0.0,0.0,0.0,0.0,0.0,0.0,0.0,0.0,0.0,0.0,0.0,0.0,0.0,0.0,0.0,0.0,0.0,0.0,0.0,0.0,0.0,0.0,0.0,0.0,0.0,0.0,0.0,0.0,0.0,0.0,0.0,0.0,0.0,0.0,0.0,0.0,0.0,0.0,0.0,0.0,0.0,0.0,0.0,0.0,0.0,0.0,0.0,0.0,0.0,0.0,0.0,0.0,0.0,0.0,0.0,0.0,0.0,0.0,0.0,0.0,0.0,0.0,0.0,0.0,0.0,0.0,0.0,0.0,0.0,0.0,0.0,0.0,0.0,0.0,0.0,0.0,0.0,0.0,0.0,0.0,0.0,0.0,0.0,0.6204,0.5869,0.5034,0.4467,0.4215,0.3408,0.2806,0.0,0.0,0.0,0.0,0.0,0.0,0.0,0.0,0.0,0.0,0.0,0.0,0.0,0.0,0.0,0.0,0.0,0.0,0.0,0.0,0.0,0.0,0.0,0.0,0.0,0.0,0.0,0.0,0.0,0.0,0.0,0.0,0.0,0.0,0.0,0.0,0.0,0.0,0.0,0.0,0.0,0.0,0.0,0.0,0.0,0.0,0.0,0.0,0.0,0.0,0.0,0.0,0.0,0.0,0.0,0.0,0.0,0.0,0.0,0.0,0.0,0.0,0.0,0.0,0.0,0.0,0.0,0.0,0.0,0.0,0.0,0.0,0.0,0.0,0.0,0.0,0.0,0.0,0.0,0.0,0.0,0.0,0.0,0.0,0.0,0.0,0.0,0.0,0.0,0.0,0.0,0.0,0.0,0.0,0.0,0.0,0.0,0.0,0.0,0.0,0.0,0.0,0.0,0.0,0.0,0.0,0.0,0.0,0.6556,0.6438,0.5308,0.466,0.4546,0.3932,0.3272,0.0,0.0,0.0,0.0,0.0,0.0,0.0,0.0,0.0,0.0,0.0,0.0,0.0,0.0,0.0,0.0,0.0,0.0,0.0,0.0,0.0,0.0,0.0,0.0,0.0,0.0,0.0,0.0,0.0,0.0,0.0,0.0,0.0,0.0,0.0,0.0,0.0,0.0,0.0,0.0,0.0,0.0,0.0,0.0,0.0,0.0,0.0,0.0,0.0,0.0,0.0,0.0,0.0,0.0,0.0,0.0,0.0,0.0,0.0,0.0,0.0,0.0,0.0,0.0,0.0,0.0,0.0,0.0,0.0,0.0,0.0,0.0,0.0,0.0,0.0,0.0,0.0,0.0,0.0,0.0,0.0,0.0,0.0,0.0,0.0,0.0,0.0,0.0,0.0,0.0,0.0,0.0,0.0,0.0,0.0,0.0,0.0,0.0,0.0,0.0,0.0,0.0,0.0,0.0,0.0,0.0,0.0,0.0,0.6669,0.6767,0.5527,0.4846,0.4814,0.4012,0.3309,0.0,0.0,0.0,0.0,0.0,0.0,0.0,0.0,0.0,0.0,0.0,0.0,0.0,0.0,0.0,0.0,0.0,0.0,0.0,0.0,0.0,0.0,0.0,0.0,0.0,0.0,0.0,0.0,0.0,0.0,0.0,0.0,0.0,0.0,0.0,0.0,0.0,0.0,0.0,0.0,0.0,0.0,0.0,0.0,0.0,0.0,0.0,0.0,0.8281,0.0,0.0,0.0,0.0,0.0,0.0,0.0,0.0,0.0,0.0,0.0,0.0,0.0,0.0,0.0,0.0,0.0,0.0,0.0,0.0,0.0,0.0,0.0,0.0,0.0,0.0,0.0,0.0,0.0,0.0,0.0,0.0,0.0,0.0,0.0,0.0,0.0,0.0,0.0,0.0,0.0,0.0,0.0,0.0,0.0,0.0,0.0,0.0,0.0,0.0,0.0,0.0,0.0,0.0,0.0,0.0,0.0,0.0,0.0,0.6864,0.6885,0.566,0.4956,0.4901,0.4457,0.3763,0.0,0.0,0.0,0.0,0.0,0.0,0.0,0.0,0.0,0.0,0.0,0.0,0.0,0.0,0.0,0.0,0.0,0.0,0.0,0.0,0.0,0.0,0.0,0.0,0.0,0.0,0.0,0.0,0.0,0.0,0.0,0.0,0.0,0.0,0.0,0.0,0.0,0.0,0.0,0.0,0.0,0.0,0.0,0.0,0.0,0.0,0.0,0.0,0.0,0.0,0.0,0.0,0.0,0.0,0.0,0.0,0.0,0.0,0.0,0.0,0.0,0.0,0.0,0.0,0.0,0.0,0.0,0.0,0.0,0.0,0.0,0.0,0.0,0.0,0.0,0.0,0.0,0.0,0.0,0.0,0.0,0.0,0.0,0.0,0.0,0.0,0.0,0.0,0.0,0.0,0.0,0.0,0.0,0.0,0.0,0.0,0.0,0.0,0.0,0.0,0.0,0.0,0.0,0.0,0.0,0.0,0.0,0.7702,0.7052,0.6907,0.5746,0.5073,0.4956,0.4987,0.437,0.3153,0.0,0.0,0.0,0.0,0.0,0.0,0.0,0.0,0.0,0.0,0.0,0.0,0.0,0.0,0.0,0.0,0.0,0.0,0.0,0.0,0.0,0.0,0.0,0.0,0.0,0.0,0.0,0.0,0.0,0.0,0.0,0.0,0.0,0.0,0.0,0.0,0.0,0.0,1.1913,1.2003,0.0,0.0,0.0,0.0,0.0,0.0,0.0,0.0,0.8706,0.0,0.0,0.0,0.0,0.0,0.0,0.0,0.0,0.0,0.0,0.0,0.0,0.0,0.0,0.0,0.0,0.0,0.0,0.0,0.0,0.0,0.0,0.0,0.0,0.0,0.0,0.0,0.0,0.0,0.0,0.0,0.0,0.0,0.0,0.0,0.0,0.0,0.0,0.0,0.0,0.0,0.0,0.0,0.0,0.0,0.0,0.0,0.0,0.0,0.0,0.0,0.0,0.0,0.0,0.0,0.0,0.8956,0.7756,0.7133,0.7208,0.5946,0.527,0.5242,0.5242,0.4849,0.4012,0.0,0.0,0.0,0.0,0.0,0.0,0.0,0.0,0.0,0.0,0.0,0.0,0.0,0.0,0.0,0.0,0.0,0.0,0.0,0.0,0.0,0.0,0.0,0.0,0.0,0.0,0.0,0.0,0.0,0.0,0.0,0.0,0.0,0.0,0.0,0.0,0.0,0.0,0.0,1.3236,1.2831,0.0,0.0,0.0,0.0,0.0,0.0,0.0,0.0,0.9435,0.0,0.0,0.0,0.0,0.0,0.0,0.0,0.0,0.0,0.0,0.0,0.0,0.0,0.0,0.0,0.0,0.0,0.0,0.0,0.0,0.0,0.0,0.0,0.0,0.0,0.0,0.0,0.0,0.0,0.0,0.0,0.0,0.0,0.0,0.0,0.0,0.0,0.0,0.0,0.0,0.0,0.0,0.0,0.0,0.0,0.0,0.0,0.0,0.0,0.0,0.0,0.0,0.0,0.0,0.0,0.8839,0.8191,0.7777,0.7602,0.6413,0.5814,0.581,0.5553,0.5045,0.0,0.0,0.0,0.0,0.0,0.0,0.0,0.0,0.0,0.0,0.0,0.0,0.0,0.0,0.0,0.0,0.0,0.0,0.0,0.0,0.0,0.0,0.0,0.0,0.0,0.0,0.0,0.0,0.0,0.0,0.0,0.0,0.0,0.0,0.0,0.0,0.0,0.0,0.0,0.0,1.3518,1.3242,1.323,0.0,0.0,0.0,0.0,0.0,0.0,0.9693,0.9803,0.0,0.0,0.0,0.0,0.0,0.0,0.0,0.0,0.0,0.0,0.0,0.0,0.0,0.0,0.0,0.0,0.0,0.0,0.0,0.0,0.0,0.0,0.0,0.0,0.0,0.0,0.0,0.0,0.0,0.0,0.0,0.0,0.0,0.0,0.0,0.0,0.0,0.0,0.0,0.0,0.0,0.0,0.0,0.0,0.0,0.0,0.0,0.0,0.0,0.0,0.0,0.0,0.0,0.0,0.0,0.905,0.8616,0.8261,0.7952,0.6915,0.6334,0.6329,0.6002,0.5462,0.0,0.0,0.0,0.0,0.0,0.0,0.0,0.0,0.0,0.0,0.0,0.0,0.0,0.0,0.0,0.0,0.0,0.0,0.0,0.0,0.0,0.0,0.0,0.0,0.0,0.0,0.0,0.0,0.0,0.0,0.0,0.0,0.0,0.0,0.0,0.0,0.0,0.0,0.0,0.0,0.0,1.3727,1.3647,1.2569,0.0,0.0,0.0,0.0,1.0322,1.0537,0.0,0.0,0.0,0.0,0.0,0.0,0.0,0.0,0.0,0.0,0.0,0.0,0.0,0.0,0.0,0.0,0.0,0.0,0.0,0.0,0.0,0.0,0.0,0.0,0.0,0.0,0.0,0.0,0.0,0.0,0.0,0.0,0.0,0.0,0.0,0.0,0.0,0.0,0.0,0.0,0.0,0.0,0.0,0.0,0.0,0.0,0.0,0.0,0.0,0.0,0.0,0.0,0.0,0.0,0.0,0.0,1.0148,0.8776,0.8095,0.8112,0.7062,0.6463,0.6493,0.6695,0.6498,0.0,0.0,0.0,0.0,0.0,0.0,0.0,0.0,0.0,0.0,0.0,0.0,0.0,0.0,0.0,0.0,0.0,0.0,0.0,0.0,0.0,0.0,0.0,0.0,0.0,0.0,0.0,0.0,0.0,0.0,0.0,0.0,0.0,0.0,0.0,0.0,0.0,0.0,0.0,0.0,0.0,1.4915,1.397,1.2977,1.2353,0.0,0.0,1.1684,1.2183,1.2431,0.0,0.0,0.0,0.0,0.0,0.0,0.0,0.0,0.0,0.0,0.0,0.0,0.0,0.0,0.0,0.0,0.0,0.0,0.0,0.0,0.0,0.0,0.0,0.0,0.0,0.0,0.0,0.0,0.0,0.0,0.0,0.0,0.0,0.0,0.0,0.0,0.0,0.0,0.0,0.0,0.0,0.0,0.0,0.0,0.0,0.0,0.0,0.0,0.0,0.0,0.0,0.0,0.0,0.0,0.0,1.0752,1.0235,0.9549,0.9109,0.8916,0.7986,0.7475,0.7475,0.7206,0.686,0.0,0.0,0.0,0.0,0.0,0.0,0.0,0.0,0.0,0.0,0.0,0.0,0.0,0.0,0.0,0.0,0.0,0.0,0.0,0.0,0.0,0.0,0.0,0.0,0.0,0.0,0.0,0.0,0.0,0.0,0.0,0.0,0.0,0.0,0.0,0.0,0.0,0.0,0.0,0.0,0.0,0.0,1.4992,1.3838,0.0,0.0,0.0,1.2662,1.2809,0.0,0.0,0.0,0.0,0.0,0.0,0.0,0.0,0.0,0.0,0.0,0.0,0.0,0.0,0.0,0.0,0.0,0.0,0.0,0.0,0.0,0.0,0.0,0.0,0.0,0.0,0.0,0.0,0.0,0.0,0.0,0.0,0.0,0.0,0.0,0.0,0.0,0.0,0.0,0.0,0.0,0.0,0.0,0.0,0.0,0.0,0.0,0.0,0.0,0.0,0.0,0.0,0.0,0.0,0.0,0.0,0.0,1.0512,1.0301,0.9985,0.9569,0.8795,0.8395,0.8402,0.7948,0.0,0.0,0.0,0.0,0.0,0.0,0.0,0.0,0.0,0.0,0.0,0.0,0.0,0.0,0.0,0.0,0.0,0.0,0.0,0.0,0.0,0.0,0.0,0.0,0.0,0.0,0.0,1.3374,0.0,0.0,0.0,0.0,0.0,0.0,0.0,0.0,0.0,0.0,0.0,0.0,0.0,0.0,1.5084,1.6076,1.4974,1.4274,0.0,0.0,1.3727,1.3691,1.3749,1.3418,0.0,0.0,0.0,0.0,0.0,0.0,0.0,0.0,0.0,0.0,0.0,0.0,0.0,0.0,0.0,0.0,0.0,0.0,0.0,0.0,0.0,0.0,0.0,0.0,0.0,0.0,0.0,0.0,0.0,0.0,0.0,0.0,0.0,0.0,0.0,0.0,0.0,0.0,0.0,0.0,0.0,0.0,0.0,0.0,0.0,0.0,0.0,0.0,0.0,0.0,0.0,0.0,0.0,0.0,0.0,1.1596,1.0794,1.0205,0.9783,0.9243,0.8957,0.8957,0.9211,0.8846,0.0,0.0,0.0,0.0,0.0,0.0,0.0,0.0,0.0,0.0,0.0,0.0,0.0,0.0,0.0,0.0,0.0,0.0,0.0,0.0,0.0,0.0,0.0,0.0,0.0,0.0,0.0,0.0,0.0,0.0,0.0,0.0,0.0,0.0,0.0,0.0,0.0,0.0,0.0,0.0,0.0,1.6373,1.695,1.6391,1.6196,0.0,1.589,1.5099,1.5456,1.5074,1.4227,1.2723,0.0,0.0,0.0,0.0,0.0,0.0,0.0,0.0,0.0,0.0,0.0,0.0,0.0,0.0,0.0,0.0,0.0,0.0,0.0,0.0,0.0,0.0,0.0,0.0,0.0,0.0,0.0,0.0,0.0,0.0,0.0,0.0,0.0,0.0,0.0,0.0,0.0,0.0,0.0,0.0,0.0,0.0,0.0,0.0,0.0,0.0,0.0,0.0,0.0,0.0,0.0,0.0,0.0,1.3162,1.2637,1.2064,1.1369,1.0562,1.0099,0.9697,0.9379,0.9454,0.9411,0.0,0.0,0.0,0.0,0.0,0.0,0.0,0.0,0.0,0.0,0.0,0.0,0.0,0.0,0.0,0.0,0.0,0.0,0.0,0.0,0.0,0.0,0.0,0.0,0.0,0.0,0.0,0.0,1.6661,1.7204,1.7376,0.0,0.0,0.0,0.0,0.0,0.0,0.0,0.0,0.0,0.0,1.7865,1.752,1.7129,0.0,0.0,1.6389,1.5849,1.6084,1.5905,1.5338,1.4205,1.4012,0.0,0.0,0.0,0.0,0.0,0.0,0.0,0.0,0.0,0.0,0.0,0.0,0.0,0.0,0.0,0.0,0.0,0.0,0.0,0.0,0.0,0.0,0.0,0.0,0.0,0.0,0.0,0.0,0.0,0.0,0.0,0.0,0.0,0.0,0.0,0.0,0.0,0.0,0.0,0.0,0.0,0.0,0.0,0.0,0.0,0.0,0.0,0.0,0.0,0.0,0.0,0.0,1.3969,1.326,1.2946,1.2305,1.1282,1.0969,1.0628,1.0273,1.0178,1.0231,0.0,0.0,0.0,0.0,0.0,0.0,0.0,0.0,0.0,0.0,0.0,0.0,0.0,0.0,0.0,0.0,0.0,0.0,0.0,0.0,0.0,0.0,0.0,0.0,0.0,0.0,0.0,0.0,1.7928,1.833,1.8324,0.0,0.0,0.0,0.0,0.0,0.0,0.0,0.0,0.0,0.0,1.9281,1.868,1.8286,1.8081,1.7957,1.7286,1.6779,1.6727,1.6575,1.6193,1.5451,0.0,0.0,0.0,0.0,0.0,0.0,0.0,0.0,0.0,0.0,0.0,0.0,0.0,0.0,0.0,0.0,0.0,0.0,0.0,0.0,0.0,0.0,0.0,0.0,0.0,0.0,0.0,1.8495,0.0,0.0,1.7405,0.0,0.0,0.0,0.0,0.0,0.0,0.0,0.0,0.0,0.0,0.0,0.0,0.0,0.0,0.0,0.0,0.0,0.0,0.0,0.0,0.0,0.0,1.436,1.3438,1.338,1.2845,1.1932,1.1818,1.1744,1.1708,1.1627,1.1375,1.0981,0.0,0.0,0.0,0.0,0.0,0.0,0.0,0.0,0.0,0.0,0.0,0.0,0.0,0.0,0.0,0.0,0.0,0.0,0.0,0.0,0.0,0.0,0.0,0.0,0.0,0.0,1.8789,1.8798,1.886,0.0,0.0,0.0,0.0,0.0,0.0,0.0,0.0,0.0,0.0,2.0482,2.0644,2.0548,2.019,1.9927,1.9902,1.8879,1.7951,1.7583,1.7123,1.6643,0.0,0.0,0.0,0.0,0.0,0.0,0.0,0.0,0.0,0.0,0.0,0.0,0.0,0.0,0.0,0.0,0.0,0.0,0.0,0.0,0.0,0.0,0.0,0.0,0.0,0.0,0.0,1.9321,1.902,0.0,0.0,0.0,0.0,0.0,0.0,0.0,0.0,0.0,0.0,0.0,2.0778,2.142,0.0,0.0,0.0,0.0,0.0,0.0,0.0,0.0,0.0,0.0,0.0,0.0,1.5838,1.4794,1.4978,1.4292,1.2679,1.2602,1.2348,1.1829,1.1744,1.1671,1.1542,0.0,0.0,0.0,0.0,0.0,0.0,0.0,0.0,0.0,0.0,0.0,0.0,0.0,0.0,0.0,0.0,0.0,0.0,0.0,0.0,0.0,0.0,0.0,0.0,0.0,1.9204,0.0,0.0,0.0,0.0,0.0,0.0,0.0,0.0,0.0,0.0,0.0,2.1077,2.1032,2.21,2.265,2.2017,2.1462,2.1057,0.0,0.0,0.0,0.0,0.0,0.0,0.0,0.0,0.0,0.0,0.0,0.0,0.0,0.0,2.0548,1.842,1.8083,1.8218,1.8398,0.0,0.0,0.0,0.0,0.0,0.0,0.0,0.0,0.0,0.0,0.0,0.0,0.0,0.0,1.9965,1.9955,1.9448,0.0,0.0,0.0,0.0,0.0,0.0,0.0,0.0,2.2131,2.2084,2.1663,2.231,2.2278,0.0,2.1632,2.1225,0.0,0.0,0.0,0.0,0.0,0.0,0.0,0.0,1.6612,1.5673,1.564,1.4959,1.3543,1.3458,1.3204,1.2684,1.2631,1.2668,1.2842,1.3347,1.3712,0.0,0.0,0.0,0.0,0.0,0.0,0.0,0.0,0.0,0.0,0.0,0.0,0.0,0.0,0.0,0.0,0.0,0.0,0.0,0.0,0.0,0.0,0.0,2.0278,0.0,0.0,0.0,0.0,0.0,0.0,0.0,0.0,0.0,2.0961,2.2004,2.2767,2.2486,2.3508,2.3932,2.295,0.0,0.0,0.0,0.0,0.0,0.0,0.0,2.0101,2.0046,1.9947,1.9986,2.0213,2.1184,2.1983,2.2048,0.0,0.0,2.0197,1.9799,1.9859,2.0121,2.0265,2.0296,2.0234,1.9845,1.9413,0.0,0.0,0.0,0.0,0.0,0.0,0.0,0.0,1.9918,2.0251,0.0,1.9956,0.0,0.0,0.0,0.0,2.3348,2.3043,0.0,0.0,2.2396,2.2343,2.2957,2.2957,2.2991,2.3011,2.3292,2.272,2.1348,2.0058,0.0,0.0,0.0,0.0,0.0,0.0,1.6639,1.6005,1.5471,1.4897,1.436,1.4303,1.43,1.4254,1.4157,1.4326,1.4782,1.4914,1.5043,1.5125,1.5277,0.0,0.0,0.0,0.0,0.0,0.0,0.0,0.0,0.0,0.0,0.0,0.0,0.0,0.0,0.0,0.0,0.0,0.0,0.0,0.0,2.1305,0.0,0.0,0.0,0.0,0.0,0.0,0.0,0.0,0.0,0.0,2.384,2.401,2.4246,2.4414,0.0,0.0,0.0,0.0,2.3076,2.3062,2.2505,2.1978,2.1669,2.1697,2.1649,2.1366,0.0,0.0,2.3404,2.3571,2.3651,2.3773,2.3855,2.3724,2.3024,2.2073,2.1636,2.2184,2.1961,2.1848,2.2323,2.2185,2.1796,2.1387,0.0,0.0,0.0,0.0,2.0384,2.0573,2.0833,2.0673,2.0716,2.0889,2.112,0.0,0.0,0.0,0.0,0.0,0.0,2.3194,2.3118,2.3055,2.3011,2.2921,2.2921,2.2921,2.2907,2.2306,2.1778,2.1285,2.0219,1.9527,1.9273,0.0,0.0,0.0,0.0,1.7487,1.6425,1.6223,1.5736,1.4891,1.4733,1.4527,1.4316,1.4666,1.4948,1.5094,1.5363,1.5653,1.6009,1.6335,0.0,0.0,0.0,0.0,0.0,0.0,0.0,0.0,0.0,0.0,0.0,0.0,0.0,0.0,0.0,0.0,0.0,0.0,0.0,2.1881,2.2514,2.2738,0.0,0.0,0.0,0.0,0.0,0.0,0.0,0.0,0.0,2.5643,2.5724,2.5684,0.0,0.0,2.5473,2.4994,2.4662,2.4507,2.4507,2.4117,0.0,2.3704,2.3432,2.3302,2.3569,2.3876,2.4101,2.4266,2.4287,2.4323,2.4369,2.4405,2.4323,2.4158,2.388,2.3726,2.3893,2.3823,2.3564,2.3269,2.2821,2.2243,2.261,2.1535,2.1012,2.0937,2.1076,2.0806,2.0854,2.112,2.112,2.1267,2.1537,2.1843,2.2232,2.2735,2.3648,0.0,0.0,0.0,2.3287,2.3005,2.321,2.321,2.3,2.2982,2.2838,2.2511,2.1788,2.1167,2.0677,2.014,1.9678,1.9315,0.0,0.0,1.8507,1.8264,1.7699,1.6819,1.6548,1.6129,1.5521,1.5608,1.5716,1.5819,1.6147,1.635,1.6364,1.6775,1.7146,1.7421,1.8174,1.8582,0.0,0.0,0.0,0.0,0.0,0.0,0.0,0.0,0.0,0.0,0.0,1.9236,0.0,0.0,0.0,0.0,2.2085,2.2845,2.336,2.3771,0.0,0.0,0.0,0.0,0.0,0.0,0.0,2.5596,2.5981,2.639,2.6897,2.6951,2.6807,2.6522,2.6367,2.6192,2.5979,0.0,2.5612,2.5596,2.5166,2.4884,2.5029,2.4299,2.3899,2.4535,2.4898,2.517,2.5392,2.5297,2.5246,2.5451,2.5414,2.5341,2.5524,2.5561,2.5242,2.4527,2.4363,2.4146,2.3581,2.2923,2.2359,2.3608,2.3534,2.2697,2.2219,2.1957,2.1375,2.1205,2.1324,2.134,2.1886,2.2725,2.2249,2.2794,2.4029,2.4026,0.0,2.3582,2.3531,2.3342,2.3065,2.3065,2.3089,2.3151,2.3086,2.2699,2.2031,2.1635,2.0877,1.9851,1.9974,1.9767,1.9253,1.9293,1.9082,1.8624,1.8141,1.7725,1.7439,1.6805,1.6427,1.6346,1.6873,1.7486,1.8099,1.8206,1.819,1.8189,1.8722,1.9073,1.9198,2.0362,2.0793,2.0303,0.0,0.0,0.0,0.0,0.0,0.0,0.0,0.0,0.0,0.0,0.0,0.0,0.0,0.0,0.0,2.4001,0.0,2.5059,2.5028,0.0,0.0,0.0,2.3803,2.4339,2.5215,2.5956,2.6393,0.0,0.0,2.7757,2.7757,2.7654,2.7352,2.7005,2.6708,2.6573,2.6488,2.6454,2.6436,2.5832,2.5497,2.5801,2.4806,2.4213,2.4774,2.5403,2.6059,2.6522,2.6368,2.6368,2.6808,2.664,2.6472,2.694,2.6855,2.6336,2.4471,2.4172,2.405,2.3534,2.2965,2.2475,2.5464,2.5348,2.4116,2.3051,2.2218,2.2043,2.1892,2.1768,2.1766,2.2024,2.2519,2.2986,2.391,2.5091,2.4539,2.4382,2.4474,2.391,2.3651,2.3602,2.3613,2.3606,2.3617,2.2912,2.2467,2.218,2.1414,2.0879,2.055,2.0579,2.0528,2.0393,2.042,2.0169,1.9697,2.0117,2.0017,1.9397,1.8947,1.8621,1.8402,1.8505,1.8585,1.8573,1.8952,1.9059,1.888,1.9197,1.9734,2.0495,2.1071,2.1665,2.2262,2.2001,0.0,0.0,0.0,0.0,0.0,0.0,0.0,0.0,0.0,2.1022,2.1054,0.0,2.1771,0.0,2.5102,2.6222,2.6253,2.6074,0.0,0.0,2.5856,2.5712,2.6742,2.7116,2.7382,2.7642,2.8045,2.8311,2.8293,2.8311,2.828,2.8188,2.7651,2.7151,2.694,2.6874,2.6858,2.684,2.6686,2.6604,2.6639,2.6419,2.5962,2.5592,2.6183,2.6757,2.689,2.6858,2.6808,2.6972,2.7098,2.7112,2.7066,2.6714,2.6085,2.516,2.5151,2.4991,2.3806,2.3429,2.3068,2.5711,2.5594,2.4481,2.3551,2.2808,2.237,2.2142,2.2124,2.2139,2.2303,2.2664,2.325,2.3965,2.4694,2.4319,2.4208,2.4317,2.3923,2.3774,2.3795,2.3795,2.3596,2.3242,2.2733,2.2286,2.1885,2.1363,2.1126,2.1108,2.1108,2.1108,2.1118,2.1457,2.1444,2.1149,2.0977,2.0643,2.0147,1.9866,1.9794,1.9888,1.9904,1.9975,2.0105,2.0449,2.0522,2.0305,2.0476,2.0746,2.1166,2.1787,2.2185,2.2314,2.2455,2.2455,0.0,0.0,0.0,0.0,0.0,0.0,0.0,0.0,0.0,0.0,0.0,2.3038,2.4462,2.6219,2.7256,2.7191,2.7233,2.7405,2.7738,2.7363,2.7331,2.7998,2.8084,2.817,2.8272,2.8415,2.8504,2.8504,2.8504,2.8504,2.8504,2.8139,2.7837,2.7704,2.7657,2.7657,2.7675,2.7393,2.701,2.6725,2.6925,2.6876,2.6195,2.6318,2.6602,2.6616,2.6584,2.6602,2.6616,2.6739,2.679,2.6665,2.6421,2.5932,2.5322,2.524,2.4913,2.3824,2.3545,2.3328,2.5311,2.5176,2.4404,2.3896,2.3618,2.264,2.2392,2.268,2.268,2.2873,2.3193,2.3466,2.3681,2.3837,2.3837,2.3876,2.3878,2.3907,2.3888,2.3888,2.3888,2.346,2.2677,2.2567,2.2086,2.1306,2.1369,2.1442,2.1479,2.1688,2.1788,2.1824,2.245,2.2749,2.2711,2.1518,2.0837,2.066,2.0509,2.0692,2.12,2.1207,2.145,2.1965,2.2027,2.1998,2.184,2.1911,2.1886,2.1761,2.26,2.2774,2.2121,2.2767,2.2984,0.0,2.2527,0.0,0.0,0.0,0.0,0.0,0.0,0.0,0.0,2.4087,2.4722,2.5783,2.7275,2.8071,2.7908,2.8254,2.8504,2.8504,2.8504,2.8504,2.8498,2.8554,2.8578,2.856,2.8622,2.864,2.8676,2.8676,2.87,2.8752,2.8729,2.8681,2.8628,2.8523,2.841,2.8504,2.7882,2.7085,2.6465,2.6718,2.6826,2.6193,2.6092,2.6091,2.6135,2.6117,2.6104,2.6122,2.6206,2.6187,2.6115,2.6067,2.5746,2.5104,2.4888,2.4536,2.3804,2.3555,2.3544,2.584,2.538,2.4704,2.4461,2.4498,2.3777,2.3732,2.4192,2.4192,2.4337,2.4622,2.466,2.4449,2.4057,2.4058,2.4173,2.4357,2.4367,2.4357,2.4367,2.4375,2.3914,2.3056,2.2306,2.1502,2.0734,2.1225,2.1451,2.1459,2.2719,2.3381,2.3381,2.3498,2.3581,2.3552,0.0,0.0,0.0,2.2941,2.2858,2.2917,2.277,2.26,2.2484,2.2375,0.0,2.2068,2.2206,2.2655,2.3399,2.3876,0.0,0.0,0.0,0.0,0.0,0.0,0.0,0.0,0.0,0.0,0.0,2.5524,2.5225,2.4611,2.587,2.6762,2.6867,2.7805,2.8415,2.8358,2.8453,2.8504,2.8504,2.8516,2.8529,2.8578,2.8778,2.8929,2.8986,2.927,2.9476,2.9448,2.9604,2.971,2.9657,2.9657,2.9577,2.9476,2.892,2.8541,2.8449,2.7834,2.7085,2.6324,2.6294,2.6136,2.5434,2.5723,2.6042,2.6047,2.6065,2.6079,2.6065,2.6274,2.6326,2.6182,2.5834,2.5447,2.5114,2.4634,2.4144,2.3821,2.3753,2.3753,2.5445,2.5141,2.4443,2.4228,0.0,2.3948,2.4248,2.4998,2.4849,2.495,2.5239,2.5632,2.5444,2.4894,2.5309,2.5347,2.5094,2.5094,2.4871,2.45,2.45,2.3832,2.2609,2.2126,2.1475,2.0665,2.0991,2.1345,2.1731,2.2511,2.2914,2.2914,2.2896,2.2896,2.2914,2.3309,2.3597,2.3806,2.3692,2.3628,2.3591,2.3491,2.3359,2.3134,2.3111,0.0,0.0,0.0,0.0,0.0,0.0,0.0,0.0,0.0,0.0,2.5371,2.5324,2.5323,2.5477,2.6077,2.646,2.654,2.707,2.7044,2.6103,2.72,2.7881,2.7807,2.8373,2.8749,2.8749,2.8879,2.8941,2.8952,2.8986,2.9023,2.9146,2.925,2.9399,2.9523,2.9712,2.984,2.9848,2.9939,2.9992,3.0,2.9977,2.9939,2.9826,2.939,2.8905,2.8415,2.7996,2.7438,2.6686,2.6207,2.5897,2.553,2.5467,2.5514,2.5505,2.5505,2.5523,2.5514,2.5623,2.565,2.5569,2.5333,2.5125,2.5009,2.4727,2.4491,2.4352,2.4155,2.4029,2.4842,2.4704,2.412,2.3878,2.3919,2.3937,2.4524,2.5492,2.5393,0.0,0.0,2.6174,2.6114,2.5559,2.6236,2.6171,2.5529,2.5546,2.52,2.4555,2.4555,2.3764,2.232,2.2301,2.1891,2.1133,2.1245,2.1648,2.2301,2.245,2.2525,2.2506,2.2498,2.2525,2.2554,2.3151,2.3661,2.3966,2.3911,2.3868,2.3858,2.3827,2.3785,2.3714,2.3774,2.3818,2.3847,2.3902,2.3884,2.3829,2.4086,2.449,2.503,2.529,2.5807,2.665,2.6891,2.7044,2.7214,2.7515,2.7683,2.77,2.8471,2.8609,2.7886,2.8386,2.8752,2.8764,2.902,2.9177,2.9177,2.9365,2.9494,2.9513,2.9561,2.9616,2.972,2.9746,2.9815,2.9966,3.0037,3.004,3.0066,3.0095,3.0102,3.0102,3.0115,3.0085,3.0015,2.979,2.9289,2.8446,2.8054,2.7643,2.6888,2.6126,2.5764,2.5617,2.5242,2.4921,2.4902,2.4902,2.4902,2.4979,2.4902,2.4938,2.4933,2.4943,2.4902,2.4902,2.4908,2.4896,2.4869,2.4593,2.4399,2.4641,2.4205,2.4105,2.4192,2.4402,2.4402,2.4945,2.5857,2.6405,2.6265,2.5671,2.5889,2.5497,2.4703,2.5043,2.505,2.4853,2.4952,2.4953,2.484,2.4847,2.4362,2.3486,2.346,2.3038,2.235,2.2943,2.3353,2.3517,2.4128,2.4487,2.4443,2.4506,2.4443,2.4499,2.4613,2.4686,2.4737,2.4346,2.4107,2.4068,2.3939,2.3865,2.3795,2.3834,2.4114,2.4784,2.4813,2.5216,2.6069,2.6269,2.6516,2.6802,2.6946,2.7141,2.7308,2.7988,2.8404,2.8439,2.912,2.9546,2.9604,2.9741,2.9733,2.9565,2.9643,2.9736,2.9777,2.9815,2.9856,2.9864,2.9864,2.9899,2.9907,2.9923,2.9927,2.9954,2.9962,2.9991,3.0102,3.019,3.0259,3.0265,3.0392,3.0479,3.049,3.0403,3.0375,3.0203,2.9996,2.9523,2.8717,2.7974,2.7202,2.6333,2.5558,2.517,2.5038,2.5028,2.4935,2.4942,2.4942,2.4942,2.4896,2.4935,2.4929,2.4929,2.4902,2.4935,2.4948,2.4949,2.4936,2.4949,2.4865,2.4785,2.4653,2.4452,2.4497,2.4604,2.4719,2.4719,2.4964,2.5367,2.5675,2.5869,2.5971,2.644,2.6169,2.5452,2.594,2.5943,2.5469,2.5523,2.5312,2.4927,2.4902,2.4498,2.3771,2.3714,2.329,2.2562,2.286,2.3044,2.3101,2.3436,2.3601,2.3607,2.3601,2.3607,2.3619,2.403,2.4252,2.4245,2.4452,2.4554,2.4538,2.4481,2.442,2.4403,2.4849,2.5267,2.564,2.6077,2.6532,2.7014,2.709,2.7398,2.7954,2.7627,2.7596,2.8021,2.845,2.8693,2.8696,2.9541,3.0129,3.0267,3.0279,3.0254,3.0235,3.0054,2.9958,3.0,3.0,3.0,3.0,2.9988,3.0003,3.0003,3.0025,3.0082,3.0145,3.0158,3.0216,3.0333,3.0414,3.0471,3.0451,3.055,3.0617,3.0617,3.0569,3.0515,3.04,2.9925,2.9206,2.821,2.731,2.6441,2.5612,2.5241,2.5031,2.5006,2.5074,2.5109,2.5115,2.5115,2.5115,2.5115,2.5115,2.5126,2.5143,2.5168,2.5174,2.5171,2.5157,2.5184,2.5221,2.524,2.5159,2.4761,2.4776,2.4854,2.5015,2.52,2.5423,2.5525,2.5512,2.5564,2.5932,2.6502,2.6757,2.6444,2.593,2.6548,2.6486,2.5941,2.5911,2.557,2.5032,2.5,2.4657,2.4099,2.4067,2.3723,2.3209,2.3157,2.3149,2.3176,2.3181,2.3162,2.3162,2.3181,2.3186,2.3205,2.3777,2.4115,2.4154,2.471,2.4993,2.4908,2.4902,2.4902,2.4946,2.5749,2.6294,2.6484,2.7255,2.7691,2.7672,2.7709,2.8039,2.8677,2.8151,2.816,2.8891,2.9065,2.91,2.9155,2.9861,3.0378,3.0525,3.0554,3.0539,3.0519,3.0315,3.0158,3.0143,3.0143,3.0131,3.0151,3.0152,3.0139,3.0151,3.0201,3.0276,3.0365,3.038,3.0448,3.0593,3.0606,3.0625,3.0625,3.0625,3.0629,3.0618,3.0625,3.0625,3.0543,2.9872,2.8898,2.7868,2.6898,2.6078,2.5214,2.5118,2.5179,2.5184,2.5274,2.5321,2.5324,2.5337,2.5359,2.533,2.5344,2.5348,2.54,2.5397,2.539,2.5402,2.541,2.5456,2.5483,2.549,2.542,2.4881,2.4888,2.4946,2.537,2.6145,2.6962,2.7275,2.7326,2.753,2.7651,2.7539,2.6043,2.5311,2.5081,2.5449,2.5521,2.5338,2.5327,2.5407,2.5335,2.5278,2.522,2.5148,2.5173,2.5159,2.5061,2.5069,2.5082,2.512,2.5169,2.5192,2.524,2.5218,2.5153,2.5192,2.525,2.5308,2.5334,2.5409,2.5262,2.4916,2.4902,2.4902,2.4902,2.5744,2.6553,2.7193,2.8112,2.8537,2.8521,2.8644,2.8789,2.8898,2.8955,2.9382,3.0133,3.0257,3.0346,3.0419,3.0565,3.0642,3.0689,3.0703,3.0723,3.0725,3.0698,3.062,3.0612,3.0583,3.0516,3.0544,3.0548,3.0607,3.0691,3.0691,3.0664,3.0692,3.0667,3.0669,3.0691,3.0681,3.0694,3.0681,3.0681,3.0686,3.0675,3.0673,3.0673,3.0617,2.9933,2.9094,2.8203,2.7296,2.6342,2.5576,2.5345,2.537,2.543,2.5471,2.5476,2.547,2.5468,2.5477,2.5443,2.548,2.5473,2.5476,2.5492,2.5485,2.5496,2.5529,2.5588,2.5598,2.5595,2.5517,2.5311,2.578,2.5873,2.6406,2.7209,2.7614,2.7766,2.7791,2.7874,2.7932,2.7875,2.7133,2.6764,2.6692,2.6795,2.6809,2.6805,2.6862,2.6923,2.6958,2.6951,2.6683,2.6255,2.6736,2.6475,2.557,2.5974,2.6236,2.6254,2.6251,2.627,2.6209,2.5779,2.5504,2.5504,2.5504,2.5504,2.5504,2.5995,2.6193,2.5987,2.5528,2.524,2.5288,2.6068,2.6665,2.7031,2.7862,2.8539,2.8965,2.9105,2.9389,2.9872,2.9532,2.9447,2.9788,2.9825,3.0085,3.0625,3.0669,3.0704,3.0709,3.1178,3.1473,3.1493,3.1943,3.2216,3.2081,3.1284,3.0668,3.0731,3.1106,3.1451,3.1468,3.1473,3.1473,3.1454,3.1023,3.0709,3.0709,3.0709,3.0711,3.0709,3.0709,3.0709,3.0709,3.0711,3.0715,3.0652,2.9951,2.9111,2.8286,2.7407,2.6517,2.5722,2.5508,2.5517,2.551,2.5515,2.5512,2.5506,2.551,2.5501,2.5518,2.5525,2.5535,2.5551,2.5561,2.5561,2.5572,2.5616,2.5666,2.5668,2.5663,2.5649,2.6213,2.6805,2.714,2.7687,2.8314,2.8546,2.8642,2.8647,2.8642,2.867,2.8714,2.8722,2.8689,2.8584,2.8184,2.7978,2.8016,2.8028,2.8051,2.8107,2.8104,2.774,2.7272,2.7773,2.7466,2.6505,2.6889,2.7186,2.7214,2.7225,2.722,2.7101,2.6569,2.6272,2.6272,2.6252,2.6272,2.6333,2.6904,2.722,2.7121,2.6597,2.6229,2.6225,2.7029,2.7501,2.7478,2.8313,2.8929,2.9321,2.934,2.9599,3.0178,2.97,2.9499,2.9725,2.9764,3.0045,3.0706,3.0952,3.1115,3.1173,3.1897,3.2367,3.2484,3.2973,3.3285,3.3188,3.2172,3.1503,3.1529,3.1999,3.2354,3.2383,3.2386,3.2386,3.2349,3.178,3.1411,3.1173,3.1199,3.0978,3.0803,3.0767,3.0768,3.0767,3.0765,3.0764,3.0705,3.0221,2.9556,2.8712,2.7857,2.6871,2.5872,2.5602,2.557,2.558,2.558,2.5564,2.5551,2.5556,2.5564,2.5593,2.557,2.557,2.5611,2.5632,2.5625,2.5625,2.5664,2.5703,2.5694,2.5703,2.5703,2.7808,2.7944,2.8719,2.9155,2.9385,3.0078,3.0427,3.0284,3.0385,3.0431,3.0364,3.038,3.0442,3.0283,2.8897,2.8136,2.8142,2.8215,2.8249,2.8281,2.8231,2.8119,2.8038,2.8097,2.81,2.7878,2.8034,2.8162,2.8216,2.8232,2.8232,2.823,2.8067,2.8103,2.8024,2.7984,2.8124,2.7985,2.8126,2.8229,2.823,2.8195,2.8114,2.8082,2.878,2.9084,2.9223,2.9985,3.013,2.9405,2.941,2.943,2.9508,2.9465,2.981,3.0484,3.0668,3.0721,3.0939,3.1616,3.207,3.2226,3.2871,3.334,3.334,3.3516,3.3633,3.3457,3.3437,3.3281,3.3266,3.3282,3.3328,3.334,3.332,3.334,3.332,3.3164,3.291,3.2305,3.2031,3.1641,3.0996,3.0879,3.0879,3.0879,3.0879,3.0879,3.0879,3.0801,3.0332,2.9551,2.8671,2.7652,2.6092,2.5618,2.5627,2.5636,2.5644,2.5669,2.5681,2.5683,2.5679,2.5674,2.5657,2.5657,2.5692,2.5684,2.5684,2.5684,2.5684,2.5703,2.5703,2.5703,2.5703,2.8346,2.8946,2.9749,3.0125,3.0208,3.048,3.06,3.0614,3.0614,3.0625,3.0643,3.067,3.0708,3.075,3.0165,2.9842,2.9756,2.976,2.9799,2.988,2.9882,2.9612,2.9148,2.9594,2.9246,2.8452,2.8823,2.9096,2.9136,2.9136,2.9135,2.8998,2.8548,2.8294,2.8294,2.8294,2.8294,2.8372,2.8823,2.9135,2.9175,2.9664,2.9932,2.9836,2.909,2.8673,2.8636,2.8946,2.9233,2.9513,2.9533,2.9788,3.0298,3.036,3.0478,3.0792,3.0855,3.1111,3.1638,3.1992,3.2422,3.2988,3.375,3.4238,3.4336,3.4726,3.5078,3.5039,3.5059,3.5059,3.494,3.4587,3.4237,3.4219,3.4219,3.4238,3.4121,3.375,3.3281,3.2949,3.2559,3.1855,3.1211,3.0918,3.0918,3.0918,3.0918,3.0918,3.0898,3.0918,3.0605,2.9844,2.9275,2.8647,2.7519,2.6247,2.5698,2.568,2.5701,2.5702,2.5723,2.5703,2.5683,2.5664,2.5683,2.5683,2.5683,2.5684,2.5684,2.5684,2.5684,2.5684,2.5703,2.5684,2.5684,2.9271,2.9872,3.0414,3.0656,3.0691,3.0711,3.0699,3.0706,3.0689,3.0728,3.0753,3.0759,3.0826,3.0895,3.0916,3.0853,3.0762,3.074,3.0808,3.0897,3.0916,3.0585,3.0195,3.0625,3.0293,2.9375,2.9726,3.0038,3.0018,3.0017,3.0016,2.9958,2.9411,2.9137,2.9138,2.9137,2.9138,2.9274,2.9706,2.998,3.0059,3.0546,3.0838,3.0682,2.9685,2.9062,2.9068,2.9115,2.9393,2.9921,3.0019,3.0293,3.084,3.0918,3.1035,3.1269,3.1328,3.1699,3.248,3.2831,3.3223,3.375,3.4551,3.5049,3.5108,3.5596,3.589,3.5928,3.5928,3.5948,3.585,3.5381,3.5073,3.5097,3.5097,3.5076,3.5056,3.4551,3.4121,3.3672,3.2773,3.1953,3.1378,3.1016,3.0859,3.0832,3.0832,3.0832,3.0832,3.0813,3.0696,3.0051,2.9647,2.9206,2.8449,2.7467,2.6514,2.6376,2.6125,2.6029,2.5777,2.5738,2.5679,2.5678,2.5658,2.5657,2.5657,2.5657,2.5658,2.5658,2.5664,2.5664,2.5664,2.5664,2.5664,3.0582,3.064,3.07,3.0774,3.0869,3.0889,3.0892,3.0871,3.0892,3.0871,3.0874,3.0896,3.0896,3.0917,3.0918,3.0898,3.0878,3.0877,3.0896,3.0917,3.0918,3.0898,3.082,3.0859,3.0879,3.0644,3.0801,3.084,3.0781,3.0762,3.0762,3.082,3.0702,3.0547,3.0798,3.0624,3.0721,3.0683,3.066,3.0712,3.0787,3.0803,3.0841,3.0819,3.072,3.0774,3.0879,3.08,3.0684,3.0781,3.0801,3.0859,3.0878,3.0957,3.1309,3.1953,3.2148,3.2578,3.334,3.4031,3.435,3.468,3.5316,3.5673,3.5675,3.5751,3.5829,3.5812,3.5807,3.5821,3.5824,3.5729,3.574,3.5934,3.5771,3.5758,3.5772,3.5784,3.5424,3.4455,3.3193,3.2148,3.1817,3.1345,3.0923,3.0767,3.0726,3.0728,3.0732,3.0751,3.0717,3.052,3.0109,2.9613,2.918,2.8693,2.7872,2.7193,2.6856,2.6573,2.6076,2.5863,2.5672,2.5633,2.5634,2.5633,2.5634,2.5634,2.5629,2.5627,2.5618,2.5657,2.5626,2.5632,2.5624,3.0822,3.0848,3.0828,3.085,3.0914,3.0914,3.0915,3.0916,3.0916,3.0917,3.0917,3.0918,3.0918,3.0918,3.0918,3.0918,3.0918,3.0918,3.0918,3.0957,3.0937,3.0957,3.0957,3.0937,3.0918,3.0898,3.0855,3.083,3.0828,3.0819,3.0752,3.0752,3.0774,3.0774,3.0796,3.0774,3.0773,3.0753,3.0742,3.0735,3.0792,3.1319,3.16,3.1658,3.2162,3.253,3.2496,3.1412,3.0789,3.0807,3.0767,3.0767,3.0864,3.1329,3.1776,3.2069,3.2652,3.3296,3.4037,3.4398,3.4818,3.5286,3.5663,3.5775,3.5791,3.5808,3.5805,3.5789,3.5791,3.5791,3.5791,3.5791,3.5807,3.5853,3.5825,3.5834,3.5829,3.5819,3.5402,3.4675,3.4072,3.3312,3.2316,3.1673,3.1398,3.0896,3.0779,3.074,3.0726,3.0735,3.0709,3.0631,3.0294,3.0118,2.9842,2.9613,2.913,2.8288,2.7765,2.7218,2.6644,2.6221,2.5972,2.5682,2.5665,2.5648,2.565,2.5687,2.5758,2.5764,2.5849,2.5792,2.5658,2.5747,2.5987,3.0916,3.0916,3.0916,3.0916,3.0916,3.0916,3.0917,3.0956,3.1249,3.1367,3.1445,3.1719,3.1816,3.1836,3.1834,3.1832,3.1832,3.1807,3.1783,3.1728,3.1445,3.1523,3.1695,3.1436,3.1316,3.1295,3.128,3.1056,3.0803,3.1343,3.1349,3.0845,3.131,3.1486,3.1271,3.1503,3.1542,3.1288,3.1504,3.1471,3.139,3.1971,3.2402,3.2479,3.2942,3.3215,3.3156,3.213,3.1614,3.1648,3.1658,3.1658,3.1717,3.2223,3.2608,3.2981,3.3448,3.4111,3.4851,3.5009,3.5146,3.5652,3.5771,3.5753,3.5753,3.5772,3.5772,3.5772,3.5749,3.5756,3.5753,3.5753,3.5772,3.5772,3.5762,3.5762,3.5764,3.5753,3.5574,3.5057,3.4672,3.398,3.3222,3.2499,3.2246,3.1667,3.1297,3.1106,3.1028,3.085,3.0743,3.0662,3.0544,3.0475,3.0564,3.0438,3.0302,2.9539,2.8721,2.8061,2.7414,2.7104,2.6815,2.6175,2.5961,2.5958,2.5939,2.6103,2.6178,2.6143,2.6351,2.664,2.6819,2.6747,2.6893,3.0898,3.0879,3.0898,3.0956,3.1015,3.1034,3.1131,3.1249,3.1894,3.2245,3.2402,3.2851,3.3223,3.3301,3.3107,3.3116,3.3326,3.3126,3.3147,3.305,3.2735,3.2687,3.2961,3.2389,3.2123,3.2077,3.2087,3.1692,3.1244,3.2355,3.2483,3.1287,3.2349,3.2845,3.2291,3.2864,3.2719,3.2204,3.2725,3.2637,3.2054,3.2763,3.318,3.3185,3.3364,3.348,3.3485,3.3355,3.3244,3.3255,3.3047,3.3005,3.3192,3.3315,3.3657,3.424,3.4486,3.4947,3.5548,3.5593,3.5612,3.5685,3.5728,3.5704,3.5716,3.5713,3.5809,3.5901,3.5896,3.5905,3.5963,3.6065,3.6007,3.5803,3.5785,3.5712,3.5711,3.5706,3.563,3.5523,3.4999,3.4399,3.4211,3.3563,3.3195,3.2784,3.2188,3.1733,3.152,3.1151,3.0713,3.0616,3.0615,3.0615,3.06,3.0595,3.0462,3.0181,2.9496,2.8942,2.8195,2.7823,2.7528,2.6881,2.6413,2.6359,2.6455,2.6714,2.6989,2.7233,2.7532,2.7922,2.7849,2.7606,2.7559,3.0877,3.0829,3.0829,3.115,3.1656,3.1712,3.2081,3.2645,3.2881,3.3021,3.3095,3.321,3.3431,3.3347,3.3375,3.3327,3.3419,3.3387,3.3677,3.4091,3.4036,3.3616,3.3388,3.31,3.2953,3.2948,3.2908,3.2748,3.257,3.3033,3.2926,3.2505,3.2926,3.313,3.2893,3.3115,3.3067,3.2854,3.2991,3.3093,3.3011,3.3616,3.4046,3.4118,3.464,3.493,3.5007,3.5027,3.436,3.3228,3.3145,3.3164,3.3309,3.3798,3.4253,3.4505,3.5039,3.5422,3.5636,3.5713,3.5713,3.5707,3.5706,3.5704,3.5704,3.5704,3.5994,3.6381,3.6593,3.6845,3.7328,3.7464,3.7232,3.6613,3.6109,3.5766,3.5715,3.5704,3.5704,3.5665,3.5438,3.5071,3.4587,3.4258,3.3847,3.3281,3.2604,3.1971,3.1985,3.1444,3.1023,3.0714,3.0626,3.0622,3.0602,3.0602,3.0578,3.0559,3.0201,2.9857,2.9072,2.8395,2.8062,2.7628,2.7326,2.7202,2.7415,2.7675,2.7972,2.8262,2.8281,2.8416,2.8165,2.793,2.8027,3.0799,3.0783,3.1133,3.1566,3.2029,3.2374,3.2839,3.3307,3.3677,3.3793,3.3871,3.4225,3.4342,3.4361,3.4332,3.4319,3.4315,3.4303,3.4583,3.4917,3.4975,3.4738,3.4344,3.4022,3.3767,3.3767,3.3723,3.3483,3.3339,3.379,3.3789,3.3349,3.3842,3.3996,3.3683,3.404,3.3963,3.3789,3.3944,3.4035,3.3745,3.4485,3.4891,3.5013,3.5477,3.5704,3.5704,3.5684,3.5046,3.404,3.3963,3.419,3.4229,3.464,3.4955,3.4974,3.5438,3.569,3.5704,3.5704,3.5704,3.5709,3.5704,3.5897,3.6129,3.6207,3.6535,3.7303,3.7419,3.7709,3.8057,3.8212,3.7787,3.7,3.6477,3.6052,3.5742,3.5704,3.5704,3.5704,3.5665,3.5554,3.4969,3.4955,3.4698,3.4234,3.3634,3.3209,3.2938,3.2106,3.1545,3.1429,3.1178,3.1197,3.1081,3.1004,3.081,3.0752,3.0714,3.0424,2.9824,2.9055,2.8784,2.8489,2.8223,2.8146,2.8378,2.8629,2.8919,2.9074,2.8977,2.9016,2.8977,2.8726,2.8765,3.0843,3.0894,3.1768,3.2169,3.243,3.3073,3.3527,3.3731,3.4348,3.4624,3.476,3.5415,3.5535,3.5788,3.5399,3.5622,3.5622,3.5442,3.5542,3.56,3.5605,3.5519,3.5381,3.4827,3.4584,3.456,3.4534,3.4186,3.407,3.5013,3.4775,3.4176,3.4988,3.5162,3.4756,3.5201,3.5206,3.4775,3.5085,3.5085,3.4717,3.5187,3.551,3.5549,3.5593,3.5704,3.5704,3.5665,3.5298,3.4568,3.5303,3.5472,3.5593,3.5665,3.5646,3.5607,3.5646,3.5704,3.5742,3.582,3.5878,3.5936,3.6013,3.6226,3.6884,3.7052,3.7406,3.8257,3.8334,3.847,3.8663,3.8522,3.8141,3.756,3.7232,3.6671,3.6033,3.5742,3.5704,3.5704,3.5704,3.5704,3.5704,3.5704,3.5646,3.5027,3.4432,3.393,3.3557,3.2957,3.2643,3.2623,3.2314,3.1927,3.1715,3.1463,3.1178,3.0984,3.1023,3.081,3.0424,2.9863,2.9592,2.934,2.9205,2.921,2.934,2.9592,2.9785,2.9921,2.9843,3.0172,3.0424,2.9998,2.9863,3.169,3.1702,3.257,3.3312,3.3858,3.4085,3.455,3.5156,3.533,3.5383,3.5466,3.5645,3.5728,3.5728,3.5708,3.5702,3.5713,3.5701,3.5704,3.5704,3.5704,3.5715,3.5683,3.5424,3.54,3.538,3.5419,3.5278,3.5298,3.5317,3.5535,3.5298,3.5287,3.5607,3.5491,3.5486,3.5646,3.5458,3.5626,3.5607,3.5427,3.5505,3.5673,3.5673,3.5693,3.5679,3.5704,3.5704,3.5607,3.553,3.564,3.5855,3.5742,3.5704,3.5704,3.5723,3.5742,3.5723,3.582,3.6303,3.6651,3.669,3.7135,3.7735,3.7845,3.7903,3.8334,3.8992,3.923,3.9456,3.9901,3.9553,3.9108,3.8727,3.8237,3.758,3.6767,3.6091,3.582,3.5704,3.5704,3.5704,3.5704,3.5704,3.5665,3.5574,3.5168,3.4529,3.4137,3.377,3.3687,3.3668,3.3204,3.2817,3.2662,3.2333,3.1908,3.1661,3.1603,3.1294,3.0888,3.0772,3.054,3.0385,3.025,3.023,3.0037,3.0172,3.0288,3.0501,3.0617,3.0617,3.0617,3.0617,3.0617,3.1891,3.2006,3.3222,3.4013,3.4438,3.4839,3.5278,3.5646,3.5704,3.5704,3.5704,3.5704,3.5704,3.5704,3.5704,3.5709,3.5704,3.5704,3.5704,3.5704,3.5704,3.5704,3.5704,3.5704,3.5704,3.5704,3.5684,3.5704,3.5704,3.5704,3.5684,3.5698,3.5651,3.5631,3.5668,3.5631,3.5651,3.566,3.5704,3.5687,3.5614,3.5602,3.5553,3.5522,3.5528,3.5509,3.5509,3.5907,3.6061,3.6177,3.6427,3.6324,3.5809,3.5704,3.5723,3.5723,3.611,3.6226,3.6458,3.7,3.7516,3.7497,3.7961,3.8392,3.8682,3.8798,3.9224,3.9868,4.0139,4.0332,4.0719,4.0487,4.0023,3.9501,3.9088,3.8431,3.7599,3.6767,3.6071,3.5839,3.5704,3.5704,3.5704,3.5809,3.5698,3.564,3.5626,3.5085,3.5148,3.4814,3.4698,3.4524,3.404,3.3712,3.361,3.3262,3.2739,3.2546,3.2449,3.1985,3.1468,3.1483,3.1541,3.1159,3.0675,3.0559,3.0443,3.0598,3.0617,3.0617,3.0617,3.0617,3.0617,3.0656,3.0636,3.2063,3.2333,3.3924,3.4607,3.4723,3.5356,3.5665,3.5704,3.5704,3.5704,3.5704,3.5704,3.5704,3.5704,3.5704,3.5704,3.5704,3.5704,3.5704,3.5704,3.5704,3.5704,3.5704,3.5704,3.5693,3.5673,3.5704,3.5704,3.5704,3.5673,3.5651,3.5651,3.5578,3.5559,3.5614,3.5584,3.5572,3.5626,3.5622,3.5572,3.5496,3.5463,3.5416,3.5367,3.5345,3.5499,3.5691,3.6124,3.6523,3.673,3.742,3.7094,3.6408,3.6026,3.6026,3.6097,3.6716,3.6954,3.716,3.7758,3.8299,3.8344,3.853,3.8871,3.9438,3.9631,3.994,4.0333,4.0623,4.0623,4.0752,4.0643,4.0288,3.985,3.9618,3.9206,3.8484,3.7672,3.7106,3.6419,3.6452,3.653,3.6203,3.607,3.5869,3.5726,3.5706,3.5693,3.5731,3.564,3.5383,3.5278,3.4814,3.4621,3.4524,3.4383,3.3842,3.3397,3.33,3.2798,3.2222,3.2198,3.2121,3.1352,3.0926,3.0907,3.0791,3.0733,3.0714,3.0656,3.0772,3.0946,3.0888,3.0728,3.0733,3.332,3.406,3.5046,3.5496,3.5496,3.5646,3.5704,3.5704,3.5704,3.5704,3.5704,3.5704,3.5704,3.5704,3.5704,3.5704,3.5704,3.5704,3.5704,3.5704,3.5698,3.5693,3.5673,3.5651,3.5614,3.559,3.5608,3.5662,3.5651,3.5596,3.5534,3.5509,3.5483,3.549,3.5515,3.5534,3.5528,3.5663,3.5597,3.5542,3.5602,3.5572,3.5565,3.5519,3.5549,3.5787,3.6197,3.6435,3.6826,3.7515,3.7707,3.7685,3.7525,3.7437,3.7414,3.734,3.7521,3.7701,3.7816,3.8466,3.8881,3.9103,3.9442,3.9881,4.0203,4.027,4.0328,4.0424,4.0559,4.0559,4.0533,4.0559,4.0469,4.0212,4.0061,3.9854,3.9259,3.8863,3.8524,3.7848,3.7699,3.7408,3.6984,3.6632,3.651,3.6278,3.6015,3.5944,3.5886,3.5774,3.5574,3.5552,3.5549,3.5491,3.5452,3.5311,3.5002,3.4389,3.4098,3.3731,3.3267,3.301,3.2623,3.2184,3.1777,3.1657,3.1444,3.1159,3.1062,3.1192,3.127,3.1386,3.1347,3.1308,3.1076,3.3615,3.449,3.5342,3.5704,3.5704,3.5704,3.5704,3.5704,3.5704,3.5704,3.5704,3.5704,3.5704,3.5704,3.5704,3.5704,3.5704,3.5704,3.5704,3.5698,3.5645,3.5596,3.5546,3.5515,3.5457,3.5423,3.545,3.5483,3.5489,3.543,3.5383,3.5362,3.5326,3.5319,3.5374,3.533,3.5602,3.582,3.5963,3.6104,3.6402,3.6389,3.6354,3.6354,3.6354,3.6593,3.6898,3.7489,3.7804,3.8261,3.868,3.8823,3.8852,3.8766,3.8536,3.8068,3.8208,3.8465,3.8608,3.9229,3.9687,3.9763,4.0128,4.0315,4.0383,4.0361,4.038,4.0399,4.0399,4.0399,4.0399,4.0399,4.0367,4.0326,4.03,4.0134,3.9914,3.9815,3.9515,3.908,3.8485,3.8035,3.7744,3.7443,3.7257,3.6903,3.6427,3.6215,3.6106,3.5888,3.5727,3.5554,3.554,3.5559,3.5565,3.5558,3.555,3.5104,3.4803,3.445,3.4287,3.403,3.3784,3.346,3.3073,3.2662,3.2411,3.2237,3.2024,3.1831,3.214,3.2295,3.2063,3.185,3.1715,3.3851,3.4703,3.5419,3.5704,3.5704,3.5704,3.5704,3.5704,3.5704,3.5704,3.5704,3.5704,3.5704,3.5704,3.5704,3.5704,3.5704,3.5673,3.5651,3.5633,3.5502,3.5438,3.5199,3.5086,3.4855,3.4481,3.4883,3.5113,3.5311,3.5274,3.5251,3.5235,3.5147,3.5147,3.5219,3.5447,3.5848,3.6236,3.6657,3.7037,3.7395,3.7461,3.739,3.739,3.739,3.743,3.7715,3.8181,3.8645,3.9014,3.944,3.9816,3.9862,3.9881,3.9371,3.8573,3.8923,3.9181,3.941,3.9688,4.0052,4.0052,4.0165,4.023,4.0257,4.0266,4.0274,4.0273,4.0247,4.0266,4.0257,4.0257,4.0239,4.0203,4.0194,4.0211,4.0172,4.0132,4.0119,3.9653,3.9042,3.8644,3.8332,3.813,3.7947,3.7433,3.6953,3.6576,3.643,3.6058,3.5816,3.5475,3.5367,3.5402,3.5423,3.545,3.5451,3.5335,3.5212,3.5048,3.5052,3.5049,3.4765,3.4422,3.4272,3.3886,3.361,3.3184,3.2739,3.2643,3.3088,3.3107,3.2681,3.2662,3.2687,3.4639,3.5549,3.5646,3.5704,3.5704,3.5698,3.5704,3.5679,3.5693,3.5704,3.5662,3.5698,3.5693,3.5687,3.5668,3.5679,3.5656,3.5565,3.5547,3.5509,3.5376,3.5012,3.4436,3.4263,3.4064,3.3887,3.4119,3.4526,3.5135,3.5259,3.513,3.5113,3.5105,3.5113,3.517,3.5564,3.6268,3.6488,3.7024,3.7442,3.7526,3.7543,3.7495,3.7466,3.7523,3.778,3.8329,3.8709,3.905,3.9635,3.9786,3.99,3.99,3.99,3.9862,3.9716,3.9764,3.9802,3.9806,3.9903,3.9989,4.0,3.9969,4.001,4.0119,4.0244,4.0301,4.0273,4.029,4.0263,4.032,4.0206,4.0118,4.002,4.0,4.006,4.0091,4.0129,4.0139,4.0156,3.9553,3.9242,3.8951,3.8772,3.8554,3.801,3.7523,3.7173,3.6826,3.6542,3.6255,3.599,3.5845,3.584,3.5837,3.5783,3.5732,3.5664,3.5623,3.5624,3.5579,3.5578,3.5508,3.5223,3.5074,3.4853,3.4427,3.3924,3.3378,3.3474,3.3982,3.3687,3.3165,3.3281,3.3518,3.5049,3.559,3.559,3.559,3.5571,3.559,3.559,3.5578,3.549,3.5457,3.5483,3.5483,3.5483,3.5489,3.5476,3.5476,3.545,3.5416,3.5395,3.5367,3.5232,3.4958,3.4781,3.4598,3.4208,3.4124,3.4706,3.5437,3.5615,3.5264,3.5001,3.5029,3.4991,3.4982,3.5019,3.5362,3.6122,3.6996,3.8076,3.8774,3.8717,3.8395,3.814,3.8121,3.814,3.8367,3.8671,3.921,3.9494,3.9881,3.99,3.99,3.99,3.99,3.9881,3.9919,4.0404,4.0385,3.9976,3.9938,3.9938,3.9919,3.9919,3.9943,4.0083,4.0427,4.0703,4.0813,4.1218,4.1119,4.075,4.0739,4.0355,4.013,4.0033,4.0084,4.014,3.9996,4.0,4.005,4.01,3.9832,3.9594,3.9471,3.9319,3.9042,3.8547,3.8137,3.7737,3.7348,3.7043,3.6729,3.6614,3.6518,3.6485,3.646,3.6438,3.6362,3.6197,3.6152,3.6005,3.5951,3.5977,3.5794,3.5477,3.5256,3.5079,3.4872,3.4524,3.4659,3.4897,3.4524,3.4176,3.3944,3.4098,3.5195,3.5409,3.5456,3.5443,3.545,3.5443,3.545,3.5437,3.536,3.5315,3.5308,3.5315,3.5315,3.5308,3.5323,3.5338,3.5315,3.5278,3.5262,3.5223,3.5111,3.489,3.4703,3.4679,3.4737,3.4661,3.5486,3.5818,3.5638,3.5533,3.5344,3.5211,3.5031,3.4936,3.4974,3.5363,3.6064,3.7297,3.8348,3.902,3.9248,3.8917,3.886,3.8917,3.9012,3.8993,3.9077,3.9483,3.9862,3.99,4.0203,4.0336,4.0336,4.062,4.0734,4.0866,4.1264,4.1094,4.0601,4.0336,4.0222,4.0165,3.9957,3.99,4.0025,4.0677,4.0991,4.074,4.143,4.1381,4.1075,4.0783,4.065,4.0385,4.0336,4.0374,4.0479,4.0634,4.0778,4.0954,4.09,4.045,4.0264,4.0148,4.0053,3.9937,3.9574,3.9087,3.8553,3.8017,3.7601,3.7233,3.7147,3.7053,3.7015,3.7023,3.7037,3.7058,3.6897,3.6822,3.675,3.6671,3.6652,3.6363,3.6015,3.5923,3.5902,3.5803,3.5684,3.5472,3.5317,3.5491,3.5317,3.4955,3.4723,3.501,3.5138,3.527,3.5323,3.5304,3.5323,3.5323,3.5323,3.5308,3.5266,3.5251,3.5293,3.5258,3.5285,3.527,3.5251,3.5285,3.519,3.513,3.507,3.4972,3.4727,3.469,3.4794,3.4832,3.4529,3.5657,3.5884,3.5438,3.5922,3.595,3.6026,3.523,3.4984,3.5135,3.5571,3.6244,3.7192,3.7883,3.8367,3.8746,3.8822,3.9012,3.9521,3.973,3.9805,3.9805,3.9957,4.0184,4.0222,4.0772,4.1075,4.1169,4.1548,4.1757,4.187,4.2136,4.1901,4.1321,4.0961,4.0999,4.0847,4.0412,3.99,3.9957,4.0696,4.079,4.0601,4.1529,4.1283,4.0658,4.0089,4.0734,4.0734,4.0866,4.1169,4.1378,4.1749,4.1874,4.1977,4.1719,4.1245,4.0999,4.0931,4.024,4.0064,3.9901,3.9414,3.894,3.8424,3.7988,3.7657,3.76,3.7535,3.745,3.7547,3.7871,3.784,3.7653,3.763,3.7652,3.7529,3.7214,3.7196,3.6947,3.6839,3.6709,3.6609,3.6381,3.5897,3.5704,3.5704,3.5704,3.54,3.5342,3.4945,3.4973,3.5035,3.5105,3.5179,3.5171,3.5171,3.5163,3.5088,3.5034,3.5062,3.5053,3.5053,3.5062,3.5053,3.5053,3.5044,3.5009,3.5001,3.5191,3.5296,3.5429,3.5514,3.5855,3.631,3.6083,3.6661,3.6851,3.6623,3.632,3.6168,3.5931,3.5287,3.5022,3.5192,3.5704,3.6339,3.6889,3.7628,3.8424,3.8538,3.8709,3.8841,3.9096,3.9153,3.9456,3.9843,4.0431,4.0904,4.1359,4.1738,4.1889,4.1977,4.2344,4.2515,4.2602,4.2905,4.2659,4.1927,4.1435,4.098,4.0431,4.0071,3.9919,4.0014,4.0734,4.1321,4.1586,4.2098,4.209,4.1605,4.1454,4.1586,4.134,4.1435,4.1851,4.228,4.2678,4.2735,4.2735,4.2412,4.1984,4.1832,4.1723,4.0888,4.0138,3.9976,3.9805,3.9418,3.9039,3.866,3.849,3.8471,3.8319,3.8254,3.8484,3.8763,3.8613,3.8412,3.8439,3.8407,3.786,3.7625,3.7713,3.7856,3.7713,3.7558,3.7408,3.7013,3.64,3.5974,3.5704,3.5704,3.5858,3.5994,3.4908,3.4908,3.4908,3.4954,3.5035,3.5035,3.5025,3.5027,3.4945,3.4908,3.4908,3.4908,3.4908,3.4908,3.4917,3.4927,3.4936,3.4946,3.5107,3.5429,3.5865,3.6301,3.6756,3.723,3.7647,3.778,3.7742,3.7704,3.7192,3.6548,3.6055,3.5628,3.5268,3.4984,3.5097,3.5732,3.6206,3.6585,3.7723,3.8671,3.8709,3.9277,3.9532,3.9721,3.993,4.0309,4.0828,4.134,4.1719,4.2174,4.2564,4.2742,4.2856,4.2969,4.3114,4.3284,4.3322,4.3284,4.245,4.1624,4.0809,4.0146,3.9957,4.0033,4.0393,4.1037,4.1795,4.2242,4.3038,4.336,4.2545,4.2174,4.2337,4.2223,4.2306,4.2678,4.3208,4.3606,4.3493,4.3417,4.3076,4.2773,4.2583,4.242,4.1889,4.1075,4.0696,4.0544,4.0309,3.9919,3.9578,3.9483,3.9521,3.9342,3.9182,3.9275,3.9364,3.9423,3.9261,3.9233,3.9061,3.8539,3.8443,3.8837,3.8873,3.8614,3.835,3.8085,3.7479,3.6801,3.6588,3.6555,3.6748,3.698,3.6826,3.4908,3.4908,3.4908,3.4917,3.4936,3.4917,3.4927,3.4917,3.4917,3.4908,3.4908,3.4908,3.4908,3.4908,3.4908,3.4908,3.4946,3.5022,3.5344,3.5931,3.6491,3.6794,3.7457,3.8159,3.866,3.8652,3.8329,3.7856,3.739,3.6377,3.5713,3.5344,3.5135,3.5097,3.504,3.5799,3.6206,3.651,3.8064,3.8803,3.9286,4.0309,4.084,4.1048,4.1389,4.1711,4.2128,4.2261,4.2571,4.2893,4.3398,4.3625,4.3682,4.4213,4.4459,4.4573,4.3947,4.3303,4.2401,4.1624,4.0866,4.0241,4.0203,4.0431,4.1113,4.1795,4.2363,4.2735,4.3265,4.3284,4.281,4.2507,4.2886,4.3076,4.3133,4.3417,4.3929,4.427,4.4137,4.4061,4.3853,4.3625,4.3379,4.3114,4.2742,4.2192,4.1616,4.1275,4.1105,4.0904,4.0601,4.0468,4.0487,4.0165,3.9951,3.9915,3.9976,4.0063,3.9967,3.9765,3.9785,3.9584,3.9647,3.9938,3.9687,3.9268,3.8985,3.8724,3.8402,3.8175,3.7864,3.7806,3.798,3.7922,3.7632,3.4908,3.4908,3.4908,3.4908,3.4908,3.4908,3.4908,3.4908,3.4908,3.4908,3.4908,3.4908,3.4908,3.4908,3.4946,3.4965,3.5022,3.5647,3.6102,3.6291,3.7211,3.7893,3.8462,3.8963,3.9418,3.9134,3.8603,3.7799,3.7371,3.614,3.5363,3.5003,3.5505,3.5761,3.5988,3.6594,3.7201,3.8064,3.9399,4.0404,4.0498,4.134,4.1954,4.1973,4.2295,4.2737,4.3192,4.3211,4.34,4.3741,4.4271,4.434,4.4397,4.4852,4.4845,4.4693,4.4099,4.3038,4.2052,4.1245,4.1113,4.0866,4.0809,4.1132,4.1927,4.2192,4.2647,4.3152,4.3568,4.3549,4.336,4.3303,4.3493,4.3493,4.3625,4.3985,4.4402,4.463,4.4687,4.4649,4.4516,4.4421,4.4232,4.3985,4.3625,4.3322,4.2791,4.2242,4.1977,4.1939,4.1757,4.1529,4.1378,4.0999,4.0759,4.0672,4.0465,4.0418,4.0169,3.9861,3.9972,4.0339,4.0234,4.0214,4.0074,3.9901,3.9654,3.9536,3.9837,3.9741,3.9141,3.8638,3.8522,3.8348,3.8057,3.4908,3.4908,3.4908,3.4908,3.4908,3.4908,3.4908,3.4908,3.4908,3.4908,3.4908,3.4908,3.4908,3.4984,3.5211,3.5353,3.5457,3.6215,3.6984,3.7116,3.8083,3.8709,3.9191,3.9513,3.9483,3.9191,3.8224,3.7325,3.686,3.5571,3.5211,3.5571,3.6157,3.6704,3.715,3.789,3.8755,3.9673,4.0806,4.1252,4.143,4.1917,4.2497,4.2504,4.2806,4.3429,4.3819,4.4058,4.4191,4.4625,4.4757,4.4757,4.4776,4.477,4.4663,4.4298,4.3317,4.2344,4.1503,4.1226,4.1416,4.2109,4.1825,4.2052,4.264,4.2905,4.3398,4.3834,4.4042,4.408,4.408,4.4061,4.4042,4.4061,4.4175,4.4535,4.463,4.4857,4.4895,4.4895,4.4895,4.4895,4.4895,4.4838,4.4554,4.427,4.3966,4.3398,4.2829,4.2716,4.264,4.2412,4.2155,4.1795,4.151,4.1362,4.1127,4.0809,4.0658,4.0506,4.0696,4.1116,4.0804,4.0482,4.0327,4.0243,4.0277,4.0311,4.0287,4.0229,3.9928,3.9482,3.9121,3.8972,3.8856,3.4908,3.4908,3.4908,3.4908,3.4908,3.4908,3.4908,3.4908,3.4908,3.4908,3.4908,3.4908,3.5003,3.5154,3.5799,3.6149,3.6396,3.7097,3.7742,3.8348,3.8784,3.9229,3.9456,3.9635,3.9248,3.8546,3.7704,3.6832,3.6196,3.5609,3.5571,3.6318,3.7003,3.7734,3.8557,3.929,4.0042,4.0719,4.139,4.1599,4.1612,4.246,4.271,4.2867,4.3412,4.4057,4.4358,4.4414,4.4438,4.4537,4.4524,4.451,4.4524,4.4565,4.4111,4.3297,4.2085,4.1514,4.1283,4.1215,4.2098,4.2924,4.2905,4.3133,4.3436,4.372,4.4061,4.4402,4.463,4.4724,4.4781,4.4743,4.4724,4.4724,4.4724,4.4838,4.4838,4.4895,4.4895,4.4895,4.4895,4.4895,4.4895,4.4895,4.4895,4.4743,4.444,4.4251,4.3701,4.3265,4.317,4.3057,4.281,4.2552,4.2306,4.2109,4.1825,4.1529,4.1757,4.173,4.1873,4.1792,4.1502,4.1166,4.0692,4.0535,4.0669,4.0575,4.0412,4.0321,4.0255,4.0262,3.9888,4.0133,4.0133,3.4908,3.4908,3.4908,3.4908,3.4908,3.4908,3.4908,3.4908,3.4908,3.4908,3.4908,3.4908,3.5249,3.5836,3.6112,3.6566,3.7192,3.7837,3.831,3.8784,3.9163,3.921,3.9172,3.9001,3.8509,3.7799,3.7021,3.6519,3.6291,3.5817,3.6618,3.7718,3.7928,3.8825,3.9618,4.0364,4.0571,4.0929,4.1537,4.1644,4.1788,4.2524,4.2685,4.3023,4.3591,4.4154,4.4229,4.4266,4.4285,4.4374,4.4444,4.4482,4.4496,4.4453,4.4062,4.2586,4.1655,4.1085,4.1226,4.1726,4.2552,4.3594,4.386,4.427,4.4497,4.4516,4.4592,4.4781,4.4895,4.4895,4.4895,4.4895,4.4895,4.4895,4.4895,4.4895,4.4895,4.4895,4.4895,4.4895,4.4895,4.4895,4.4895,4.4895,4.4895,4.4895,4.4838,4.4687,4.4497,4.4023,4.3796,4.3701,4.3549,4.3341,4.3057,4.2829,4.2545,4.2318,4.2621,4.2735,4.2549,4.2401,4.2196,4.1844,4.1387,4.116,4.1141,4.1033,4.0984,4.0616,4.0528,4.0641,4.0746,4.0862,4.0835,3.4791,3.4791,3.4772,3.4791,3.4791,3.4781,3.4781,3.4801,3.4879,3.4908,3.4946,3.5306,3.5704,3.6234,3.6908,3.7533,3.7969,3.8755,3.9229,3.9304,3.9332,3.9088,3.8765,3.8262,3.7666,3.6973,3.6528,3.6243,3.6288,3.6906,3.769,3.8229,3.8609,3.9326,3.9833,3.995,3.9933,4.0315,4.079,4.1287,4.1662,4.1921,4.2043,4.238,4.302,4.3338,4.3413,4.3432,4.3409,4.3502,4.3525,4.3806,4.3708,4.3531,4.3277,4.1918,4.0942,4.1224,4.1769,4.2057,4.2956,4.3837,4.4543,4.4719,4.4807,4.48,4.4819,4.4895,4.4895,4.4895,4.4895,4.4895,4.4895,4.4895,4.4895,4.4895,4.4895,4.4895,4.4895,4.4895,4.4895,4.4895,4.4895,4.4895,4.4895,4.4895,4.4895,4.4838,4.4781,4.4611,4.4478,4.4421,4.4308,4.4156,4.3853,4.3625,4.3531,4.3474,4.3682,4.3682,4.3341,4.3019,4.2864,4.2488,4.2058,4.1963,4.1903,4.1789,4.1679,4.1378,4.135,4.1736,4.1622,4.1113,4.1042,3.4612,3.4604,3.4612,3.4623,3.4612,3.4623,3.4623,3.4634,3.4791,3.4879,3.5021,3.575,3.6138,3.662,3.7633,3.842,3.8807,3.9394,3.9618,3.9765,3.9061,3.8645,3.818,3.7663,3.6789,3.6308,3.6032,3.5861,3.6478,3.7235,3.8047,3.8389,3.8921,3.9367,3.9368,3.9361,3.9272,3.9272,3.9787,4.0305,4.0361,4.0374,4.034,4.0566,4.1141,4.1661,4.1657,4.1601,4.156,4.1839,4.2199,4.2698,4.2571,4.2164,4.1833,4.1579,4.0652,4.1323,4.217,4.261,4.3277,4.4083,4.4764,4.4852,4.487,4.4895,4.4895,4.4895,4.4895,4.4895,4.4895,4.4895,4.4895,4.4895,4.4895,4.4895,4.4895,4.4895,4.4895,4.4895,4.4895,4.4895,4.4895,4.4895,4.4895,4.4895,4.4895,4.4895,4.4971,4.4971,4.5028,4.5009,4.4743,4.4592,4.4573,4.4421,4.4611,4.4668,4.463,4.4573,4.4175,4.3834,4.3531,4.3251,4.3001,4.2838,4.2744,4.2508,4.2424,4.2537,4.2633,4.3013,4.2699,4.197,4.1719,3.4612,3.4612,3.4612,3.4612,3.4612,3.4612,3.4602,3.4612,3.4647,3.4676,3.4837,3.5553,3.6308,3.702,3.8063,3.8799,3.9286,3.9328,3.9648,3.9255,3.8622,3.7819,3.739,3.6569,3.5778,3.5171,3.5011,3.5649,3.6686,3.7709,3.8584,3.8976,3.9227,3.9137,3.8946,3.8862,3.8758,3.8562,3.8805,3.9133,3.9087,3.9551,3.9816,4.0015,4.0453,4.0813,4.0919,4.1088,4.1209,4.1422,4.1664,4.1854,4.1883,4.1151,4.1189,4.1395,4.0918,4.1608,4.25,4.3074,4.3557,4.4214,4.4764,4.4821,4.487,4.4883,4.4895,4.4895,4.4895,4.4895,4.4895,4.4895,4.4895,4.4895,4.4895,4.4895,4.4895,4.4895,4.4895,4.4895,4.4895,4.4895,4.4895,4.4895,4.4895,4.4895,4.4895,4.4933,4.5103,4.5179,4.535,4.5293,4.4971,4.4857,4.4895,4.4895,4.4895,4.4895,4.4781,4.4819,4.4914,4.4554,4.4156,4.4175,4.4033,4.38,4.3429,4.2983,4.2986,4.3415,4.3566,4.3824,4.3685,4.3073,4.2899,3.4409,3.4427,3.4427,3.4381,3.4335,3.4393,3.4363,3.4293,3.4281,3.4486,3.4981,3.5888,3.6625,3.7265,3.8227,3.8595,3.8946,3.8882,3.8592,3.823,3.7659,3.6897,3.6157,3.5525,3.4887,3.4355,3.52,3.6118,3.7149,3.8027,3.8799,3.9017,3.8998,3.884,3.8621,3.8588,3.8478,3.8218,3.8219,3.817,3.8153,3.8672,3.9057,3.929,3.9438,3.9783,3.9761,3.991,3.9987,4.0311,4.0689,4.1,4.114,4.1084,4.1248,4.1425,4.1483,4.1754,4.2889,4.3451,4.3702,4.4323,4.4725,4.477,4.487,4.4895,4.4895,4.4895,4.4895,4.4895,4.4895,4.4895,4.4895,4.4895,4.4895,4.4895,4.4895,4.4895,4.4895,4.4895,4.4895,4.4895,4.4895,4.4895,4.5009,4.5596,4.5501,4.5767,4.5805,4.5691,4.5767,4.571,4.5483,4.5066,4.4895,4.4895,4.4895,4.4895,4.5085,4.499,4.5047,4.4952,4.48,4.4812,4.477,4.4636,4.4223,4.3874,4.4104,4.4635,4.4614,4.4532,4.4329,4.4214,4.4194,3.4148,3.4117,3.4124,3.4023,3.3895,3.4049,3.4097,3.4047,3.4021,3.448,3.5312,3.6521,3.6883,3.7396,3.8141,3.8122,3.8074,3.7947,3.7536,3.6976,3.6075,3.5789,3.5328,3.4641,3.4458,3.4932,3.584,3.6675,3.7581,3.8278,3.8641,3.868,3.8575,3.8401,3.8385,3.8318,3.8201,3.8018,3.7915,3.781,3.7897,3.8036,3.8242,3.8323,3.8302,3.8318,3.8336,3.8433,3.8562,3.9396,4.0285,4.0874,4.1256,4.1553,4.1906,4.2103,4.2251,4.2809,4.3527,4.3587,4.3919,4.4308,4.4544,4.4732,4.4846,4.4895,4.4895,4.4895,4.4895,4.4895,4.4895,4.4895,4.4895,4.4895,4.4895,4.4914,4.4914,4.4933,4.4933,4.4952,4.4971,4.4971,4.5122,4.5103,4.5483,4.607,4.6506,4.6847,4.6999,4.6752,4.6639,4.6487,4.6259,4.5786,4.5407,4.5388,4.5558,4.571,4.5899,4.5501,4.5255,4.5407,4.5483,4.5457,4.5394,4.5148,4.5223,4.5064,4.5428,4.5619,4.5365,4.5133,4.5206,4.5162,4.5432,3.3855,3.3694,3.3712,3.3684,3.3671,3.373,3.4018,3.4487,3.4542,3.4998,3.5798,3.6592,3.7103,3.718,3.7651,3.7637,3.7225,3.6988,3.679,3.6403,3.5311,3.4986,3.4889,3.4708,3.4892,3.5571,3.6402,3.7051,3.7676,3.8193,3.8481,3.8446,3.8449,3.8287,3.8104,3.8035,3.7966,3.781,3.7721,3.7667,3.7667,3.7739,3.7721,3.7757,3.7757,3.7898,3.807,3.8285,3.8928,3.9783,4.0752,4.1523,4.2017,4.237,4.2742,4.3039,4.3169,4.341,4.381,4.3912,4.4227,4.4388,4.4619,4.4745,4.4833,4.4895,4.4895,4.4895,4.4895,4.4895,4.4895,4.4895,4.4895,4.4895,4.4895,4.4971,4.5028,4.5066,4.5103,4.516,4.5217,4.5501,4.5956,4.6051,4.6316,4.6828,4.7169,4.7491,4.7751,4.7624,4.7548,4.7378,4.7188,4.7074,4.6923,4.6639,4.6695,4.679,4.6752,4.643,4.6222,4.6146,4.6196,4.6215,4.5823,4.5451,4.5606,4.6119,4.5944,4.5995,4.5815,4.5696,4.5877,4.6116,4.638]}]]